<?xml version="1.0" encoding="UTF-8" standalone="no" ?>
<gpx xmlns="http://www.topografix.com/GPX/1/1" xmlns:xsi="http://www.w3.org/2001/XMLSchema-instance" xsi:schemaLocation="http://www.topografix.com/GPX/1/1 http://www.topografix.com/GPX/1/1/gpx.xsd" version="1.1" creator="VisuGPX - https://www.visugpx.com">
  <metadata>
    <name>-voiture la pierre st martin</name>
    <desc><![CDATA[SEMAINE LSVC 2024]]></desc>
  </metadata>
  <trk>
    <name><![CDATA[-voiture la pierre st martin]]></name>
    <extensions>
      <line xmlns="http://www.topografix.com/GPX/gpx_style/0/2">
        <color>0000FF</color>
        <width>4</width>
      </line>
    </extensions>
    <trkseg>
      <trkpt lat="42.98037" lon="-0.74934">
        <ele>1624.89</ele>
        <time>2024-05-29T14:10:01.000Z</time>
      </trkpt>
      <trkpt lat="42.98036" lon="-0.74948">
        <ele>1626</ele>
        <time>2024-05-29T14:10:01.002Z</time>
      </trkpt>
      <trkpt lat="42.98029" lon="-0.74972">
        <ele>1627.24</ele>
        <time>2024-05-29T14:10:01.007Z</time>
      </trkpt>
      <trkpt lat="42.98023" lon="-0.74988">
        <ele>1628.63</ele>
        <time>2024-05-29T14:10:01.014Z</time>
      </trkpt>
      <trkpt lat="42.98016" lon="-0.75017">
        <ele>1630.36</ele>
        <time>2024-05-29T14:10:01.024Z</time>
      </trkpt>
      <trkpt lat="42.98017" lon="-0.75028">
        <ele>1632.26</ele>
        <time>2024-05-29T14:10:01.036Z</time>
      </trkpt>
      <trkpt lat="42.98023" lon="-0.75042">
        <ele>1634.52</ele>
        <time>2024-05-29T14:10:01.050Z</time>
      </trkpt>
      <trkpt lat="42.98033" lon="-0.75055">
        <ele>1636.97</ele>
        <time>2024-05-29T14:10:01.066Z</time>
      </trkpt>
      <trkpt lat="42.98064" lon="-0.7509">
        <ele>1639.59</ele>
        <time>2024-05-29T14:10:01.088Z</time>
      </trkpt>
      <trkpt lat="42.98073" lon="-0.75104">
        <ele>1641.94</ele>
        <time>2024-05-29T14:10:01.112Z</time>
      </trkpt>
      <trkpt lat="42.98081" lon="-0.75135">
        <ele>1644.63</ele>
        <time>2024-05-29T14:10:01.140Z</time>
      </trkpt>
      <trkpt lat="42.98089" lon="-0.75178">
        <ele>1647.39</ele>
        <time>2024-05-29T14:10:01.173Z</time>
      </trkpt>
      <trkpt lat="42.98091" lon="-0.75247">
        <ele>1650.66</ele>
        <time>2024-05-29T14:10:01.215Z</time>
      </trkpt>
      <trkpt lat="42.98089" lon="-0.75271">
        <ele>1653.31</ele>
        <time>2024-05-29T14:10:01.259Z</time>
      </trkpt>
      <trkpt lat="42.98082" lon="-0.75283">
        <ele>1655.84</ele>
        <time>2024-05-29T14:10:01.305Z</time>
      </trkpt>
      <trkpt lat="42.98072" lon="-0.75295">
        <ele>1658.25</ele>
        <time>2024-05-29T14:10:01.353Z</time>
      </trkpt>
      <trkpt lat="42.9799" lon="-0.75365">
        <ele>1662.07</ele>
        <time>2024-05-29T14:10:01.417Z</time>
      </trkpt>
      <trkpt lat="42.97954" lon="-0.75383">
        <ele>1664.89</ele>
        <time>2024-05-29T14:10:01.487Z</time>
      </trkpt>
      <trkpt lat="42.97954" lon="-0.75383">
        <ele>1667.12</ele>
        <time>2024-05-29T14:10:01.557Z</time>
      </trkpt>
      <trkpt lat="42.97946" lon="-0.75392">
        <ele>1669.12</ele>
        <time>2024-05-29T14:10:01.629Z</time>
      </trkpt>
      <trkpt lat="42.97941" lon="-0.75403">
        <ele>1670.82</ele>
        <time>2024-05-29T14:10:01.702Z</time>
      </trkpt>
      <trkpt lat="42.97937" lon="-0.75417">
        <ele>1672.24</ele>
        <time>2024-05-29T14:10:01.777Z</time>
      </trkpt>
      <trkpt lat="42.97934" lon="-0.75468">
        <ele>1673.15</ele>
        <time>2024-05-29T14:10:01.858Z</time>
      </trkpt>
      <trkpt lat="42.97921" lon="-0.75498">
        <ele>1674.06</ele>
        <time>2024-05-29T14:10:01.943Z</time>
      </trkpt>
      <trkpt lat="42.97887" lon="-0.75544">
        <ele>1674.92</ele>
        <time>2024-05-29T14:10:02.036Z</time>
      </trkpt>
      <trkpt lat="42.97838" lon="-0.75614">
        <ele>1675.45</ele>
        <time>2024-05-29T14:10:02.140Z</time>
      </trkpt>
      <trkpt lat="42.97766" lon="-0.75668">
        <ele>1675.77</ele>
        <time>2024-05-29T14:10:02.257Z</time>
      </trkpt>
      <trkpt lat="42.97694" lon="-0.75725">
        <ele>1676.3</ele>
        <time>2024-05-29T14:10:02.387Z</time>
      </trkpt>
      <trkpt lat="42.97652" lon="-0.75745">
        <ele>1677.04</ele>
        <time>2024-05-29T14:10:02.525Z</time>
      </trkpt>
      <trkpt lat="42.97624" lon="-0.75761">
        <ele>1677.89</ele>
        <time>2024-05-29T14:10:02.667Z</time>
      </trkpt>
      <trkpt lat="42.97596" lon="-0.75783">
        <ele>1678.83</ele>
        <time>2024-05-29T14:10:02.815Z</time>
      </trkpt>
      <trkpt lat="42.97581" lon="-0.75787">
        <ele>1679.8</ele>
        <time>2024-05-29T14:10:02.965Z</time>
      </trkpt>
      <trkpt lat="42.97552" lon="-0.75781">
        <ele>1681.1</ele>
        <time>2024-05-29T14:10:03.120Z</time>
      </trkpt>
      <trkpt lat="42.9754" lon="-0.75782">
        <ele>1682.43</ele>
        <time>2024-05-29T14:10:03.277Z</time>
      </trkpt>
      <trkpt lat="42.97535" lon="-0.75787">
        <ele>1683.83</ele>
        <time>2024-05-29T14:10:03.435Z</time>
      </trkpt>
      <trkpt lat="42.97528" lon="-0.75808">
        <ele>1685.33</ele>
        <time>2024-05-29T14:10:03.595Z</time>
      </trkpt>
      <trkpt lat="42.97523" lon="-0.75839">
        <ele>1686.87</ele>
        <time>2024-05-29T14:10:03.759Z</time>
      </trkpt>
      <trkpt lat="42.97512" lon="-0.75863">
        <ele>1688.61</ele>
        <time>2024-05-29T14:10:03.926Z</time>
      </trkpt>
      <trkpt lat="42.97494" lon="-0.75875">
        <ele>1690.64</ele>
        <time>2024-05-29T14:10:04.097Z</time>
      </trkpt>
      <trkpt lat="42.97458" lon="-0.75883">
        <ele>1693.04</ele>
        <time>2024-05-29T14:10:04.273Z</time>
      </trkpt>
      <trkpt lat="42.97442" lon="-0.75883">
        <ele>1695.33</ele>
        <time>2024-05-29T14:10:04.452Z</time>
      </trkpt>
      <trkpt lat="42.9743" lon="-0.75874">
        <ele>1697.72</ele>
        <time>2024-05-29T14:10:04.633Z</time>
      </trkpt>
      <trkpt lat="42.97422" lon="-0.75846">
        <ele>1700.26</ele>
        <time>2024-05-29T14:10:04.818Z</time>
      </trkpt>
      <trkpt lat="42.97433" lon="-0.75733">
        <ele>1703.5</ele>
        <time>2024-05-29T14:10:05.016Z</time>
      </trkpt>
      <trkpt lat="42.97417" lon="-0.75684">
        <ele>1706.47</ele>
        <time>2024-05-29T14:10:05.220Z</time>
      </trkpt>
      <trkpt lat="42.97412" lon="-0.75676">
        <ele>1709.05</ele>
        <time>2024-05-29T14:10:05.426Z</time>
      </trkpt>
      <trkpt lat="42.97404" lon="-0.75673">
        <ele>1711.66</ele>
        <time>2024-05-29T14:10:05.633Z</time>
      </trkpt>
      <trkpt lat="42.97397" lon="-0.75675">
        <ele>1714.21</ele>
        <time>2024-05-29T14:10:05.841Z</time>
      </trkpt>
      <trkpt lat="42.97393" lon="-0.75682">
        <ele>1716.72</ele>
        <time>2024-05-29T14:10:06.050Z</time>
      </trkpt>
      <trkpt lat="42.97377" lon="-0.75734">
        <ele>1719.44</ele>
        <time>2024-05-29T14:10:06.266Z</time>
      </trkpt>
      <trkpt lat="42.97332" lon="-0.75795">
        <ele>1721.73</ele>
        <time>2024-05-29T14:10:06.492Z</time>
      </trkpt>
      <trkpt lat="42.97327" lon="-0.75796">
        <ele>1724.14</ele>
        <time>2024-05-29T14:10:06.719Z</time>
      </trkpt>
      <trkpt lat="42.97322" lon="-0.75792">
        <ele>1726.62</ele>
        <time>2024-05-29T14:10:06.947Z</time>
      </trkpt>
      <trkpt lat="42.97317" lon="-0.75785">
        <ele>1729.14</ele>
        <time>2024-05-29T14:10:07.176Z</time>
      </trkpt>
      <trkpt lat="42.97317" lon="-0.75775">
        <ele>1731.57</ele>
        <time>2024-05-29T14:10:07.406Z</time>
      </trkpt>
      <trkpt lat="42.97325" lon="-0.75745">
        <ele>1734.06</ele>
        <time>2024-05-29T14:10:07.640Z</time>
      </trkpt>
      <trkpt lat="42.97325" lon="-0.75737">
        <ele>1736.5</ele>
        <time>2024-05-29T14:10:07.875Z</time>
      </trkpt>
      <trkpt lat="42.97321" lon="-0.75731">
        <ele>1739.01</ele>
        <time>2024-05-29T14:10:08.111Z</time>
      </trkpt>
      <trkpt lat="42.97312" lon="-0.75734">
        <ele>1741.56</ele>
        <time>2024-05-29T14:10:08.348Z</time>
      </trkpt>
      <trkpt lat="42.97292" lon="-0.75774">
        <ele>1744.02</ele>
        <time>2024-05-29T14:10:08.591Z</time>
      </trkpt>
      <trkpt lat="42.97259" lon="-0.75815">
        <ele>1746.68</ele>
        <time>2024-05-29T14:10:08.841Z</time>
      </trkpt>
      <trkpt lat="42.9724" lon="-0.75893">
        <ele>1749.1</ele>
        <time>2024-05-29T14:10:09.101Z</time>
      </trkpt>
      <trkpt lat="42.97225" lon="-0.75926">
        <ele>1751.55</ele>
        <time>2024-05-29T14:10:09.365Z</time>
      </trkpt>
      <trkpt lat="42.9716" lon="-0.75983">
        <ele>1754.82</ele>
        <time>2024-05-29T14:10:09.642Z</time>
      </trkpt>
      <trkpt lat="42.9715" lon="-0.75997">
        <ele>1757.13</ele>
        <time>2024-05-29T14:10:09.921Z</time>
      </trkpt>
      <trkpt lat="42.97144" lon="-0.76028">
        <ele>1759.25</ele>
        <time>2024-05-29T14:10:10.204Z</time>
      </trkpt>
      <trkpt lat="42.9714" lon="-0.76093">
        <ele>1761.34</ele>
        <time>2024-05-29T14:10:10.494Z</time>
      </trkpt>
      <trkpt lat="42.97141" lon="-0.76127">
        <ele>1763.14</ele>
        <time>2024-05-29T14:10:10.788Z</time>
      </trkpt>
      <trkpt lat="42.97139" lon="-0.76145">
        <ele>1764.79</ele>
        <time>2024-05-29T14:10:11.084Z</time>
      </trkpt>
      <trkpt lat="42.97124" lon="-0.76186">
        <ele>1766.64</ele>
        <time>2024-05-29T14:10:11.386Z</time>
      </trkpt>
      <trkpt lat="42.97101" lon="-0.76249">
        <ele>1768.03</ele>
        <time>2024-05-29T14:10:11.696Z</time>
      </trkpt>
      <trkpt lat="42.97091" lon="-0.76314">
        <ele>1768.99</ele>
        <time>2024-05-29T14:10:12.014Z</time>
      </trkpt>
      <trkpt lat="42.9708" lon="-0.76355">
        <ele>1769.92</ele>
        <time>2024-05-29T14:10:12.337Z</time>
      </trkpt>
      <trkpt lat="42.97077" lon="-0.76381">
        <ele>1770.55</ele>
        <time>2024-05-29T14:10:12.663Z</time>
      </trkpt>
      <trkpt lat="42.97077" lon="-0.76448">
        <ele>1770.76</ele>
        <time>2024-05-29T14:10:12.997Z</time>
      </trkpt>
      <trkpt lat="42.97072" lon="-0.76473">
        <ele>1770.97</ele>
        <time>2024-05-29T14:10:13.334Z</time>
      </trkpt>
      <trkpt lat="42.97058" lon="-0.76518">
        <ele>1770.64</ele>
        <time>2024-05-29T14:10:13.677Z</time>
      </trkpt>
      <trkpt lat="42.97058" lon="-0.76518">
        <ele>1770.55</ele>
        <time>2024-05-29T14:10:14.020Z</time>
      </trkpt>
      <trkpt lat="42.97043" lon="-0.7656">
        <ele>1770.03</ele>
        <time>2024-05-29T14:10:14.368Z</time>
      </trkpt>
      <trkpt lat="42.97033" lon="-0.76581">
        <ele>1769.73</ele>
        <time>2024-05-29T14:10:14.719Z</time>
      </trkpt>
      <trkpt lat="42.97001" lon="-0.76631">
        <ele>1769.48</ele>
        <time>2024-05-29T14:10:15.078Z</time>
      </trkpt>
      <trkpt lat="42.97001" lon="-0.76631">
        <ele>1768.91</ele>
        <time>2024-05-29T14:10:15.437Z</time>
      </trkpt>
      <trkpt lat="42.96961" lon="-0.76692">
        <ele>1768.42</ele>
        <time>2024-05-29T14:10:15.806Z</time>
      </trkpt>
      <trkpt lat="42.96936" lon="-0.76733">
        <ele>1767.62</ele>
        <time>2024-05-29T14:10:16.181Z</time>
      </trkpt>
      <trkpt lat="42.96924" lon="-0.76752">
        <ele>1766.56</ele>
        <time>2024-05-29T14:10:16.559Z</time>
      </trkpt>
      <trkpt lat="42.9691" lon="-0.76779">
        <ele>1765.2</ele>
        <time>2024-05-29T14:10:16.941Z</time>
      </trkpt>
      <trkpt lat="42.96902" lon="-0.76798">
        <ele>1763.83</ele>
        <time>2024-05-29T14:10:17.325Z</time>
      </trkpt>
      <trkpt lat="42.96897" lon="-0.76823">
        <ele>1762.27</ele>
        <time>2024-05-29T14:10:17.712Z</time>
      </trkpt>
      <trkpt lat="42.96886" lon="-0.76906">
        <ele>1760.55</ele>
        <time>2024-05-29T14:10:18.109Z</time>
      </trkpt>
      <trkpt lat="42.96867" lon="-0.77029">
        <ele>1758.73</ele>
        <time>2024-05-29T14:10:18.521Z</time>
      </trkpt>
      <trkpt lat="42.96862" lon="-0.77089">
        <ele>1757.44</ele>
        <time>2024-05-29T14:10:18.940Z</time>
      </trkpt>
      <trkpt lat="42.9686" lon="-0.77099">
        <ele>1755.85</ele>
        <time>2024-05-29T14:10:19.360Z</time>
      </trkpt>
      <trkpt lat="42.96857" lon="-0.77107">
        <ele>1754.15</ele>
        <time>2024-05-29T14:10:19.781Z</time>
      </trkpt>
      <trkpt lat="42.96852" lon="-0.77112">
        <ele>1752.33</ele>
        <time>2024-05-29T14:10:20.203Z</time>
      </trkpt>
      <trkpt lat="42.96844" lon="-0.77116">
        <ele>1750.37</ele>
        <time>2024-05-29T14:10:20.627Z</time>
      </trkpt>
      <trkpt lat="42.96832" lon="-0.77114">
        <ele>1748.19</ele>
        <time>2024-05-29T14:10:21.053Z</time>
      </trkpt>
      <trkpt lat="42.96826" lon="-0.77109">
        <ele>1746.23</ele>
        <time>2024-05-29T14:10:21.480Z</time>
      </trkpt>
      <trkpt lat="42.96822" lon="-0.77102">
        <ele>1744.37</ele>
        <time>2024-05-29T14:10:21.908Z</time>
      </trkpt>
      <trkpt lat="42.96818" lon="-0.77092">
        <ele>1742.62</ele>
        <time>2024-05-29T14:10:22.337Z</time>
      </trkpt>
      <trkpt lat="42.96819" lon="-0.77081">
        <ele>1741.06</ele>
        <time>2024-05-29T14:10:22.767Z</time>
      </trkpt>
      <trkpt lat="42.96827" lon="-0.77044">
        <ele>1739.59</ele>
        <time>2024-05-29T14:10:23.202Z</time>
      </trkpt>
      <trkpt lat="42.9683" lon="-0.77025">
        <ele>1738.19</ele>
        <time>2024-05-29T14:10:23.639Z</time>
      </trkpt>
      <trkpt lat="42.96832" lon="-0.76952">
        <ele>1736.67</ele>
        <time>2024-05-29T14:10:24.085Z</time>
      </trkpt>
      <trkpt lat="42.96837" lon="-0.76884">
        <ele>1735.82</ele>
        <time>2024-05-29T14:10:24.539Z</time>
      </trkpt>
      <trkpt lat="42.96836" lon="-0.76876">
        <ele>1734.46</ele>
        <time>2024-05-29T14:10:24.994Z</time>
      </trkpt>
      <trkpt lat="42.96827" lon="-0.76857">
        <ele>1732.99</ele>
        <time>2024-05-29T14:10:25.451Z</time>
      </trkpt>
      <trkpt lat="42.96798" lon="-0.7684">
        <ele>1731.27</ele>
        <time>2024-05-29T14:10:25.913Z</time>
      </trkpt>
      <trkpt lat="42.96787" lon="-0.76825">
        <ele>1730.39</ele>
        <time>2024-05-29T14:10:26.378Z</time>
      </trkpt>
      <trkpt lat="42.96785" lon="-0.76819">
        <ele>1729.86</ele>
        <time>2024-05-29T14:10:26.844Z</time>
      </trkpt>
      <trkpt lat="42.9678" lon="-0.76785">
        <ele>1729.54</ele>
        <time>2024-05-29T14:10:27.314Z</time>
      </trkpt>
      <trkpt lat="42.96779" lon="-0.76763">
        <ele>1729.4</ele>
        <time>2024-05-29T14:10:27.786Z</time>
      </trkpt>
      <trkpt lat="42.96781" lon="-0.76712">
        <ele>1729.42</ele>
        <time>2024-05-29T14:10:28.264Z</time>
      </trkpt>
      <trkpt lat="42.9678" lon="-0.76702">
        <ele>1729.35</ele>
        <time>2024-05-29T14:10:28.744Z</time>
      </trkpt>
      <trkpt lat="42.96776" lon="-0.76691">
        <ele>1729.35</ele>
        <time>2024-05-29T14:10:29.225Z</time>
      </trkpt>
      <trkpt lat="42.9677" lon="-0.76682">
        <ele>1729.59</ele>
        <time>2024-05-29T14:10:29.707Z</time>
      </trkpt>
      <trkpt lat="42.96762" lon="-0.76673">
        <ele>1730.13</ele>
        <time>2024-05-29T14:10:30.191Z</time>
      </trkpt>
      <trkpt lat="42.96745" lon="-0.76666">
        <ele>1731.25</ele>
        <time>2024-05-29T14:10:30.678Z</time>
      </trkpt>
      <trkpt lat="42.96736" lon="-0.76665">
        <ele>1732.08</ele>
        <time>2024-05-29T14:10:31.166Z</time>
      </trkpt>
      <trkpt lat="42.96724" lon="-0.76667">
        <ele>1732.93</ele>
        <time>2024-05-29T14:10:31.656Z</time>
      </trkpt>
      <trkpt lat="42.96714" lon="-0.76672">
        <ele>1733.56</ele>
        <time>2024-05-29T14:10:32.148Z</time>
      </trkpt>
      <trkpt lat="42.96711" lon="-0.76674">
        <ele>1738.69</ele>
        <time>2024-05-29T14:10:32.641Z</time>
      </trkpt>
      <trkpt lat="42.96711" lon="-0.76674">
        <ele>1738.71</ele>
        <time>2024-05-29T14:10:33.134Z</time>
      </trkpt>
      <trkpt lat="42.96705" lon="-0.7668">
        <ele>1737.88</ele>
        <time>2024-05-29T14:10:33.628Z</time>
      </trkpt>
      <trkpt lat="42.96698" lon="-0.7669">
        <ele>1736.82</ele>
        <time>2024-05-29T14:10:34.123Z</time>
      </trkpt>
      <trkpt lat="42.96692" lon="-0.76702">
        <ele>1735.5</ele>
        <time>2024-05-29T14:10:34.620Z</time>
      </trkpt>
      <trkpt lat="42.96686" lon="-0.76725">
        <ele>1733.51</ele>
        <time>2024-05-29T14:10:35.120Z</time>
      </trkpt>
      <trkpt lat="42.96686" lon="-0.76738">
        <ele>1731.55</ele>
        <time>2024-05-29T14:10:35.621Z</time>
      </trkpt>
      <trkpt lat="42.96694" lon="-0.76859">
        <ele>1727.99</ele>
        <time>2024-05-29T14:10:36.137Z</time>
      </trkpt>
      <trkpt lat="42.96693" lon="-0.76876">
        <ele>1725.23</ele>
        <time>2024-05-29T14:10:36.655Z</time>
      </trkpt>
      <trkpt lat="42.96691" lon="-0.7689">
        <ele>1722.65</ele>
        <time>2024-05-29T14:10:37.174Z</time>
      </trkpt>
      <trkpt lat="42.96684" lon="-0.76906">
        <ele>1720.31</ele>
        <time>2024-05-29T14:10:37.696Z</time>
      </trkpt>
      <trkpt lat="42.96639" lon="-0.76981">
        <ele>1719.14</ele>
        <time>2024-05-29T14:10:38.229Z</time>
      </trkpt>
      <trkpt lat="42.96623" lon="-0.77012">
        <ele>1718.21</ele>
        <time>2024-05-29T14:10:38.766Z</time>
      </trkpt>
      <trkpt lat="42.966" lon="-0.77045">
        <ele>1716.92</ele>
        <time>2024-05-29T14:10:39.309Z</time>
      </trkpt>
      <trkpt lat="42.96592" lon="-0.7706">
        <ele>1715.39</ele>
        <time>2024-05-29T14:10:39.854Z</time>
      </trkpt>
      <trkpt lat="42.96576" lon="-0.7711">
        <ele>1713.07</ele>
        <time>2024-05-29T14:10:40.405Z</time>
      </trkpt>
      <trkpt lat="42.96568" lon="-0.77128">
        <ele>1710.98</ele>
        <time>2024-05-29T14:10:40.959Z</time>
      </trkpt>
      <trkpt lat="42.96536" lon="-0.77184">
        <ele>1708.41</ele>
        <time>2024-05-29T14:10:41.521Z</time>
      </trkpt>
      <trkpt lat="42.96528" lon="-0.77192">
        <ele>1705.91</ele>
        <time>2024-05-29T14:10:42.085Z</time>
      </trkpt>
      <trkpt lat="42.96499" lon="-0.77207">
        <ele>1702.98</ele>
        <time>2024-05-29T14:10:42.654Z</time>
      </trkpt>
      <trkpt lat="42.9648" lon="-0.7722">
        <ele>1700.1</ele>
        <time>2024-05-29T14:10:43.226Z</time>
      </trkpt>
      <trkpt lat="42.96472" lon="-0.77231">
        <ele>1697.34</ele>
        <time>2024-05-29T14:10:43.800Z</time>
      </trkpt>
      <trkpt lat="42.96463" lon="-0.77246">
        <ele>1694.54</ele>
        <time>2024-05-29T14:10:44.376Z</time>
      </trkpt>
      <trkpt lat="42.96449" lon="-0.77274">
        <ele>1691.64</ele>
        <time>2024-05-29T14:10:44.956Z</time>
      </trkpt>
      <trkpt lat="42.96442" lon="-0.77283">
        <ele>1688.89</ele>
        <time>2024-05-29T14:10:45.538Z</time>
      </trkpt>
      <trkpt lat="42.96431" lon="-0.77291">
        <ele>1686.14</ele>
        <time>2024-05-29T14:10:46.122Z</time>
      </trkpt>
      <trkpt lat="42.96368" lon="-0.77312">
        <ele>1682.42</ele>
        <time>2024-05-29T14:10:46.716Z</time>
      </trkpt>
      <trkpt lat="42.96337" lon="-0.77322">
        <ele>1679.37</ele>
        <time>2024-05-29T14:10:47.315Z</time>
      </trkpt>
      <trkpt lat="42.96335" lon="-0.77332">
        <ele>1676.74</ele>
        <time>2024-05-29T14:10:47.916Z</time>
      </trkpt>
      <trkpt lat="42.96344" lon="-0.7734">
        <ele>1674.51</ele>
        <time>2024-05-29T14:10:48.518Z</time>
      </trkpt>
      <trkpt lat="42.96299" lon="-0.77428">
        <ele>1671.43</ele>
        <time>2024-05-29T14:10:49.133Z</time>
      </trkpt>
      <trkpt lat="42.96293" lon="-0.77433">
        <ele>1669.28</ele>
        <time>2024-05-29T14:10:49.749Z</time>
      </trkpt>
      <trkpt lat="42.96285" lon="-0.77434">
        <ele>1667.45</ele>
        <time>2024-05-29T14:10:50.366Z</time>
      </trkpt>
      <trkpt lat="42.9628" lon="-0.77433">
        <ele>1665.92</ele>
        <time>2024-05-29T14:10:50.984Z</time>
      </trkpt>
      <trkpt lat="42.96272" lon="-0.77428">
        <ele>1664.65</ele>
        <time>2024-05-29T14:10:51.604Z</time>
      </trkpt>
      <trkpt lat="42.96267" lon="-0.77419">
        <ele>1663.66</ele>
        <time>2024-05-29T14:10:52.225Z</time>
      </trkpt>
      <trkpt lat="42.96261" lon="-0.77395">
        <ele>1662.86</ele>
        <time>2024-05-29T14:10:52.849Z</time>
      </trkpt>
      <trkpt lat="42.96258" lon="-0.77357">
        <ele>1662.58</ele>
        <time>2024-05-29T14:10:53.477Z</time>
      </trkpt>
      <trkpt lat="42.96255" lon="-0.77347">
        <ele>1662.28</ele>
        <time>2024-05-29T14:10:54.107Z</time>
      </trkpt>
      <trkpt lat="42.96252" lon="-0.77341">
        <ele>1662.15</ele>
        <time>2024-05-29T14:10:54.738Z</time>
      </trkpt>
      <trkpt lat="42.96246" lon="-0.77335">
        <ele>1662.03</ele>
        <time>2024-05-29T14:10:55.370Z</time>
      </trkpt>
      <trkpt lat="42.96237" lon="-0.77334">
        <ele>1661.9</ele>
        <time>2024-05-29T14:10:56.003Z</time>
      </trkpt>
      <trkpt lat="42.96227" lon="-0.77336">
        <ele>1661.83</ele>
        <time>2024-05-29T14:10:56.638Z</time>
      </trkpt>
      <trkpt lat="42.9622" lon="-0.77344">
        <ele>1661.73</ele>
        <time>2024-05-29T14:10:57.274Z</time>
      </trkpt>
      <trkpt lat="42.96215" lon="-0.77355">
        <ele>1661.59</ele>
        <time>2024-05-29T14:10:57.912Z</time>
      </trkpt>
      <trkpt lat="42.96215" lon="-0.77366">
        <ele>1661.34</ele>
        <time>2024-05-29T14:10:58.551Z</time>
      </trkpt>
      <trkpt lat="42.96218" lon="-0.77377">
        <ele>1661.05</ele>
        <time>2024-05-29T14:10:59.191Z</time>
      </trkpt>
      <trkpt lat="42.96273" lon="-0.77502">
        <ele>1660.74</ele>
        <time>2024-05-29T14:10:59.849Z</time>
      </trkpt>
      <trkpt lat="42.96282" lon="-0.77527">
        <ele>1660.29</ele>
        <time>2024-05-29T14:11:00.510Z</time>
      </trkpt>
      <trkpt lat="42.96286" lon="-0.77544">
        <ele>1659.77</ele>
        <time>2024-05-29T14:11:01.173Z</time>
      </trkpt>
      <trkpt lat="42.96288" lon="-0.77577">
        <ele>1659.15</ele>
        <time>2024-05-29T14:11:01.840Z</time>
      </trkpt>
      <trkpt lat="42.96288" lon="-0.77577">
        <ele>1658.41</ele>
        <time>2024-05-29T14:11:02.507Z</time>
      </trkpt>
      <trkpt lat="42.96285" lon="-0.77619">
        <ele>1657.42</ele>
        <time>2024-05-29T14:11:03.179Z</time>
      </trkpt>
      <trkpt lat="42.9628" lon="-0.77637">
        <ele>1656.23</ele>
        <time>2024-05-29T14:11:03.853Z</time>
      </trkpt>
      <trkpt lat="42.96273" lon="-0.7765">
        <ele>1654.88</ele>
        <time>2024-05-29T14:11:04.529Z</time>
      </trkpt>
      <trkpt lat="42.96265" lon="-0.77662">
        <ele>1653.29</ele>
        <time>2024-05-29T14:11:05.207Z</time>
      </trkpt>
      <trkpt lat="42.96254" lon="-0.77668">
        <ele>1651.65</ele>
        <time>2024-05-29T14:11:05.887Z</time>
      </trkpt>
      <trkpt lat="42.9624" lon="-0.77671">
        <ele>1649.89</ele>
        <time>2024-05-29T14:11:06.569Z</time>
      </trkpt>
      <trkpt lat="42.96121" lon="-0.77675">
        <ele>1648.23</ele>
        <time>2024-05-29T14:11:07.270Z</time>
      </trkpt>
      <trkpt lat="42.96111" lon="-0.77679">
        <ele>1646.58</ele>
        <time>2024-05-29T14:11:07.973Z</time>
      </trkpt>
      <trkpt lat="42.96105" lon="-0.77684">
        <ele>1644.69</ele>
        <time>2024-05-29T14:11:08.677Z</time>
      </trkpt>
      <trkpt lat="42.96102" lon="-0.77694">
        <ele>1642.53</ele>
        <time>2024-05-29T14:11:09.382Z</time>
      </trkpt>
      <trkpt lat="42.96101" lon="-0.77707">
        <ele>1640.07</ele>
        <time>2024-05-29T14:11:10.089Z</time>
      </trkpt>
      <trkpt lat="42.96104" lon="-0.77719">
        <ele>1637.3</ele>
        <time>2024-05-29T14:11:10.797Z</time>
      </trkpt>
      <trkpt lat="42.96111" lon="-0.77728">
        <ele>1634.31</ele>
        <time>2024-05-29T14:11:11.507Z</time>
      </trkpt>
      <trkpt lat="42.9619" lon="-0.77778">
        <ele>1630.42</ele>
        <time>2024-05-29T14:11:12.231Z</time>
      </trkpt>
      <trkpt lat="42.96209" lon="-0.77797">
        <ele>1627.71</ele>
        <time>2024-05-29T14:11:12.958Z</time>
      </trkpt>
      <trkpt lat="42.96221" lon="-0.77821">
        <ele>1625.05</ele>
        <time>2024-05-29T14:11:13.689Z</time>
      </trkpt>
      <trkpt lat="42.96224" lon="-0.77841">
        <ele>1622.27</ele>
        <time>2024-05-29T14:11:14.422Z</time>
      </trkpt>
      <trkpt lat="42.96228" lon="-0.77883">
        <ele>1619.53</ele>
        <time>2024-05-29T14:11:15.160Z</time>
      </trkpt>
      <trkpt lat="42.96232" lon="-0.77901">
        <ele>1616.86</ele>
        <time>2024-05-29T14:11:15.900Z</time>
      </trkpt>
      <trkpt lat="42.96238" lon="-0.77918">
        <ele>1614.26</ele>
        <time>2024-05-29T14:11:16.643Z</time>
      </trkpt>
      <trkpt lat="42.96249" lon="-0.77931">
        <ele>1611.75</ele>
        <time>2024-05-29T14:11:17.388Z</time>
      </trkpt>
      <trkpt lat="42.96265" lon="-0.77942">
        <ele>1609.21</ele>
        <time>2024-05-29T14:11:18.136Z</time>
      </trkpt>
      <trkpt lat="42.96282" lon="-0.77946">
        <ele>1606.84</ele>
        <time>2024-05-29T14:11:18.887Z</time>
      </trkpt>
      <trkpt lat="42.96301" lon="-0.77947">
        <ele>1604.55</ele>
        <time>2024-05-29T14:11:19.641Z</time>
      </trkpt>
      <trkpt lat="42.96317" lon="-0.7795">
        <ele>1602.14</ele>
        <time>2024-05-29T14:11:20.397Z</time>
      </trkpt>
      <trkpt lat="42.96331" lon="-0.77961">
        <ele>1599.64</ele>
        <time>2024-05-29T14:11:21.156Z</time>
      </trkpt>
      <trkpt lat="42.96342" lon="-0.77979">
        <ele>1597.18</ele>
        <time>2024-05-29T14:11:21.918Z</time>
      </trkpt>
      <trkpt lat="42.96349" lon="-0.78006">
        <ele>1594.84</ele>
        <time>2024-05-29T14:11:22.683Z</time>
      </trkpt>
      <trkpt lat="42.96357" lon="-0.7803">
        <ele>1592.87</ele>
        <time>2024-05-29T14:11:23.451Z</time>
      </trkpt>
      <trkpt lat="42.96384" lon="-0.78085">
        <ele>1591.06</ele>
        <time>2024-05-29T14:11:24.227Z</time>
      </trkpt>
      <trkpt lat="42.9639" lon="-0.78102">
        <ele>1589.29</ele>
        <time>2024-05-29T14:11:25.005Z</time>
      </trkpt>
      <trkpt lat="42.96394" lon="-0.78119">
        <ele>1587.55</ele>
        <time>2024-05-29T14:11:25.785Z</time>
      </trkpt>
      <trkpt lat="42.96396" lon="-0.78137">
        <ele>1585.95</ele>
        <time>2024-05-29T14:11:26.567Z</time>
      </trkpt>
      <trkpt lat="42.96396" lon="-0.78167">
        <ele>1584.47</ele>
        <time>2024-05-29T14:11:27.353Z</time>
      </trkpt>
      <trkpt lat="42.9639" lon="-0.78213">
        <ele>1583</ele>
        <time>2024-05-29T14:11:28.144Z</time>
      </trkpt>
      <trkpt lat="42.96379" lon="-0.78273">
        <ele>1581.85</ele>
        <time>2024-05-29T14:11:28.943Z</time>
      </trkpt>
      <trkpt lat="42.96372" lon="-0.78332">
        <ele>1581.13</ele>
        <time>2024-05-29T14:11:29.749Z</time>
      </trkpt>
      <trkpt lat="42.96366" lon="-0.78358">
        <ele>1580.81</ele>
        <time>2024-05-29T14:11:30.558Z</time>
      </trkpt>
      <trkpt lat="42.96359" lon="-0.78378">
        <ele>1580.93</ele>
        <time>2024-05-29T14:11:31.369Z</time>
      </trkpt>
      <trkpt lat="42.96337" lon="-0.78432">
        <ele>1581.52</ele>
        <time>2024-05-29T14:11:32.188Z</time>
      </trkpt>
      <trkpt lat="42.96308" lon="-0.78525">
        <ele>1582.56</ele>
        <time>2024-05-29T14:11:33.019Z</time>
      </trkpt>
      <trkpt lat="42.96297" lon="-0.78563">
        <ele>1583.74</ele>
        <time>2024-05-29T14:11:33.854Z</time>
      </trkpt>
      <trkpt lat="42.96287" lon="-0.78615">
        <ele>1585.11</ele>
        <time>2024-05-29T14:11:34.696Z</time>
      </trkpt>
      <trkpt lat="42.96273" lon="-0.78733">
        <ele>1586.48</ele>
        <time>2024-05-29T14:11:35.552Z</time>
      </trkpt>
      <trkpt lat="42.96269" lon="-0.78765">
        <ele>1587.97</ele>
        <time>2024-05-29T14:11:36.411Z</time>
      </trkpt>
      <trkpt lat="42.96262" lon="-0.78795">
        <ele>1589.67</ele>
        <time>2024-05-29T14:11:37.274Z</time>
      </trkpt>
      <trkpt lat="42.96253" lon="-0.78826">
        <ele>1591.42</ele>
        <time>2024-05-29T14:11:38.141Z</time>
      </trkpt>
      <trkpt lat="42.96209" lon="-0.78943">
        <ele>1593.5</ele>
        <time>2024-05-29T14:11:39.024Z</time>
      </trkpt>
      <trkpt lat="42.96192" lon="-0.78999">
        <ele>1594.29</ele>
        <time>2024-05-29T14:11:39.914Z</time>
      </trkpt>
      <trkpt lat="42.96184" lon="-0.79029">
        <ele>1594.67</ele>
        <time>2024-05-29T14:11:40.807Z</time>
      </trkpt>
      <trkpt lat="42.96141" lon="-0.79272">
        <ele>1593.99</ele>
        <time>2024-05-29T14:11:41.730Z</time>
      </trkpt>
      <trkpt lat="42.96133" lon="-0.79316">
        <ele>1594.32</ele>
        <time>2024-05-29T14:11:42.658Z</time>
      </trkpt>
      <trkpt lat="42.96121" lon="-0.79362">
        <ele>1594.66</ele>
        <time>2024-05-29T14:11:43.592Z</time>
      </trkpt>
      <trkpt lat="42.961" lon="-0.79428">
        <ele>1593.8</ele>
        <time>2024-05-29T14:11:44.534Z</time>
      </trkpt>
      <trkpt lat="42.961" lon="-0.79428">
        <ele>1593.09</ele>
        <time>2024-05-29T14:11:45.476Z</time>
      </trkpt>
      <trkpt lat="42.96015" lon="-0.79669">
        <ele>1591.47</ele>
        <time>2024-05-29T14:11:46.450Z</time>
      </trkpt>
      <trkpt lat="42.96" lon="-0.79705">
        <ele>1591.22</ele>
        <time>2024-05-29T14:11:47.429Z</time>
      </trkpt>
      <trkpt lat="42.96" lon="-0.79705">
        <ele>1591.45</ele>
        <time>2024-05-29T14:11:48.408Z</time>
      </trkpt>
      <trkpt lat="42.95986" lon="-0.79737">
        <ele>1591.76</ele>
        <time>2024-05-29T14:11:49.391Z</time>
      </trkpt>
      <trkpt lat="42.95937" lon="-0.79831">
        <ele>1592.75</ele>
        <time>2024-05-29T14:11:50.388Z</time>
      </trkpt>
      <trkpt lat="42.95906" lon="-0.79893">
        <ele>1593.23</ele>
        <time>2024-05-29T14:11:51.393Z</time>
      </trkpt>
      <trkpt lat="42.95879" lon="-0.79962">
        <ele>1593.62</ele>
        <time>2024-05-29T14:11:52.408Z</time>
      </trkpt>
      <trkpt lat="42.95865" lon="-0.79988">
        <ele>1592.83</ele>
        <time>2024-05-29T14:11:53.426Z</time>
      </trkpt>
      <trkpt lat="42.95865" lon="-0.79988">
        <ele>1592.83</ele>
        <time>2024-05-29T14:11:54.444Z</time>
      </trkpt>
      <trkpt lat="42.95859" lon="-0.8">
        <ele>1592.66</ele>
        <time>2024-05-29T14:11:55.464Z</time>
      </trkpt>
      <trkpt lat="42.95859" lon="-0.8">
        <ele>1592.47</ele>
        <time>2024-05-29T14:11:56.484Z</time>
      </trkpt>
      <trkpt lat="42.95842" lon="-0.80024">
        <ele>1592.32</ele>
        <time>2024-05-29T14:11:57.508Z</time>
      </trkpt>
      <trkpt lat="42.958" lon="-0.80069">
        <ele>1592.25</ele>
        <time>2024-05-29T14:11:58.540Z</time>
      </trkpt>
      <trkpt lat="42.9577" lon="-0.80109">
        <ele>1591.66</ele>
        <time>2024-05-29T14:11:59.579Z</time>
      </trkpt>
      <trkpt lat="42.95757" lon="-0.80133">
        <ele>1591.12</ele>
        <time>2024-05-29T14:12:00.622Z</time>
      </trkpt>
      <trkpt lat="42.95746" lon="-0.80158">
        <ele>1590.63</ele>
        <time>2024-05-29T14:12:01.668Z</time>
      </trkpt>
      <trkpt lat="42.95746" lon="-0.80158">
        <ele>1590.26</ele>
        <time>2024-05-29T14:12:02.714Z</time>
      </trkpt>
      <trkpt lat="42.95737" lon="-0.80188">
        <ele>1589.88</ele>
        <time>2024-05-29T14:12:03.764Z</time>
      </trkpt>
      <trkpt lat="42.95687" lon="-0.80391">
        <ele>1590.54</ele>
        <time>2024-05-29T14:12:04.839Z</time>
      </trkpt>
      <trkpt lat="42.95687" lon="-0.80391">
        <ele>1590.65</ele>
        <time>2024-05-29T14:12:05.914Z</time>
      </trkpt>
      <trkpt lat="42.9566" lon="-0.80488">
        <ele>1590.06</ele>
        <time>2024-05-29T14:12:07.001Z</time>
      </trkpt>
      <trkpt lat="42.95641" lon="-0.80519">
        <ele>1589.2</ele>
        <time>2024-05-29T14:12:08.093Z</time>
      </trkpt>
      <trkpt lat="42.95632" lon="-0.80529">
        <ele>1588.58</ele>
        <time>2024-05-29T14:12:09.187Z</time>
      </trkpt>
      <trkpt lat="42.95622" lon="-0.80533">
        <ele>1588.12</ele>
        <time>2024-05-29T14:12:10.282Z</time>
      </trkpt>
      <trkpt lat="42.95615" lon="-0.80534">
        <ele>1587.79</ele>
        <time>2024-05-29T14:12:11.379Z</time>
      </trkpt>
      <trkpt lat="42.95606" lon="-0.80533">
        <ele>1587.6</ele>
        <time>2024-05-29T14:12:12.477Z</time>
      </trkpt>
      <trkpt lat="42.95565" lon="-0.80511">
        <ele>1588.03</ele>
        <time>2024-05-29T14:12:13.582Z</time>
      </trkpt>
      <trkpt lat="42.95555" lon="-0.80508">
        <ele>1588.38</ele>
        <time>2024-05-29T14:12:14.689Z</time>
      </trkpt>
      <trkpt lat="42.95534" lon="-0.80511">
        <ele>1588.8</ele>
        <time>2024-05-29T14:12:15.799Z</time>
      </trkpt>
      <trkpt lat="42.95525" lon="-0.80518">
        <ele>1589.06</ele>
        <time>2024-05-29T14:12:16.911Z</time>
      </trkpt>
      <trkpt lat="42.95507" lon="-0.8054">
        <ele>1589.02</ele>
        <time>2024-05-29T14:12:18.027Z</time>
      </trkpt>
      <trkpt lat="42.95456" lon="-0.80612">
        <ele>1589.54</ele>
        <time>2024-05-29T14:12:19.154Z</time>
      </trkpt>
      <trkpt lat="42.95449" lon="-0.80626">
        <ele>1589.69</ele>
        <time>2024-05-29T14:12:20.283Z</time>
      </trkpt>
      <trkpt lat="42.95432" lon="-0.80681">
        <ele>1589.06</ele>
        <time>2024-05-29T14:12:21.419Z</time>
      </trkpt>
      <trkpt lat="42.95423" lon="-0.80698">
        <ele>1588.89</ele>
        <time>2024-05-29T14:12:22.558Z</time>
      </trkpt>
      <trkpt lat="42.95398" lon="-0.80737">
        <ele>1588.59</ele>
        <time>2024-05-29T14:12:23.703Z</time>
      </trkpt>
      <trkpt lat="42.95378" lon="-0.80757">
        <ele>1588.55</ele>
        <time>2024-05-29T14:12:24.852Z</time>
      </trkpt>
      <trkpt lat="42.95367" lon="-0.80765">
        <ele>1588.29</ele>
        <time>2024-05-29T14:12:26.003Z</time>
      </trkpt>
      <trkpt lat="42.95357" lon="-0.8077">
        <ele>1587.98</ele>
        <time>2024-05-29T14:12:27.156Z</time>
      </trkpt>
      <trkpt lat="42.953" lon="-0.80791">
        <ele>1587.61</ele>
        <time>2024-05-29T14:12:28.318Z</time>
      </trkpt>
      <trkpt lat="42.95286" lon="-0.80799">
        <ele>1587.23</ele>
        <time>2024-05-29T14:12:29.482Z</time>
      </trkpt>
      <trkpt lat="42.95276" lon="-0.80809">
        <ele>1586.8</ele>
        <time>2024-05-29T14:12:30.648Z</time>
      </trkpt>
      <trkpt lat="42.95265" lon="-0.8082">
        <ele>1586.36</ele>
        <time>2024-05-29T14:12:31.817Z</time>
      </trkpt>
      <trkpt lat="42.95257" lon="-0.80839">
        <ele>1585.89</ele>
        <time>2024-05-29T14:12:32.988Z</time>
      </trkpt>
      <trkpt lat="42.95252" lon="-0.80856">
        <ele>1585.34</ele>
        <time>2024-05-29T14:12:34.161Z</time>
      </trkpt>
      <trkpt lat="42.95249" lon="-0.80877">
        <ele>1584.64</ele>
        <time>2024-05-29T14:12:35.337Z</time>
      </trkpt>
      <trkpt lat="42.95243" lon="-0.8093">
        <ele>1583.7</ele>
        <time>2024-05-29T14:12:36.519Z</time>
      </trkpt>
      <trkpt lat="42.9524" lon="-0.80943">
        <ele>1582.93</ele>
        <time>2024-05-29T14:12:37.703Z</time>
      </trkpt>
      <trkpt lat="42.95236" lon="-0.80956">
        <ele>1582.13</ele>
        <time>2024-05-29T14:12:38.888Z</time>
      </trkpt>
      <trkpt lat="42.95228" lon="-0.8097">
        <ele>1581.24</ele>
        <time>2024-05-29T14:12:40.075Z</time>
      </trkpt>
      <trkpt lat="42.9522" lon="-0.80981">
        <ele>1580.34</ele>
        <time>2024-05-29T14:12:41.264Z</time>
      </trkpt>
      <trkpt lat="42.9521" lon="-0.8099">
        <ele>1579.5</ele>
        <time>2024-05-29T14:12:42.455Z</time>
      </trkpt>
      <trkpt lat="42.95144" lon="-0.81027">
        <ele>1578.52</ele>
        <time>2024-05-29T14:12:43.658Z</time>
      </trkpt>
      <trkpt lat="42.95133" lon="-0.81035">
        <ele>1577.58</ele>
        <time>2024-05-29T14:12:44.863Z</time>
      </trkpt>
      <trkpt lat="42.95124" lon="-0.81041">
        <ele>1576.69</ele>
        <time>2024-05-29T14:12:46.069Z</time>
      </trkpt>
      <trkpt lat="42.95124" lon="-0.81041">
        <ele>1575.82</ele>
        <time>2024-05-29T14:12:47.275Z</time>
      </trkpt>
      <trkpt lat="42.95047" lon="-0.8109">
        <ele>1574.63</ele>
        <time>2024-05-29T14:12:48.495Z</time>
      </trkpt>
      <trkpt lat="42.95032" lon="-0.81101">
        <ele>1573.67</ele>
        <time>2024-05-29T14:12:49.718Z</time>
      </trkpt>
      <trkpt lat="42.95019" lon="-0.81123">
        <ele>1572.83</ele>
        <time>2024-05-29T14:12:50.944Z</time>
      </trkpt>
      <trkpt lat="42.9501" lon="-0.81142">
        <ele>1571.98</ele>
        <time>2024-05-29T14:12:52.173Z</time>
      </trkpt>
      <trkpt lat="42.94998" lon="-0.81187">
        <ele>1571.12</ele>
        <time>2024-05-29T14:12:53.407Z</time>
      </trkpt>
      <trkpt lat="42.94983" lon="-0.81339">
        <ele>1570.42</ele>
        <time>2024-05-29T14:12:54.659Z</time>
      </trkpt>
      <trkpt lat="42.94975" lon="-0.8138">
        <ele>1569.63</ele>
        <time>2024-05-29T14:12:55.916Z</time>
      </trkpt>
      <trkpt lat="42.94969" lon="-0.81407">
        <ele>1568.8</ele>
        <time>2024-05-29T14:12:57.177Z</time>
      </trkpt>
      <trkpt lat="42.94963" lon="-0.81422">
        <ele>1568.06</ele>
        <time>2024-05-29T14:12:58.439Z</time>
      </trkpt>
      <trkpt lat="42.94955" lon="-0.81434">
        <ele>1567.29</ele>
        <time>2024-05-29T14:12:59.703Z</time>
      </trkpt>
      <trkpt lat="42.94944" lon="-0.81444">
        <ele>1566.5</ele>
        <time>2024-05-29T14:13:00.969Z</time>
      </trkpt>
      <trkpt lat="42.94932" lon="-0.81448">
        <ele>1565.58</ele>
        <time>2024-05-29T14:13:02.237Z</time>
      </trkpt>
      <trkpt lat="42.94907" lon="-0.81451">
        <ele>1564.35</ele>
        <time>2024-05-29T14:13:03.510Z</time>
      </trkpt>
      <trkpt lat="42.94886" lon="-0.81463">
        <ele>1563.3</ele>
        <time>2024-05-29T14:13:04.786Z</time>
      </trkpt>
      <trkpt lat="42.94875" lon="-0.81479">
        <ele>1562.29</ele>
        <time>2024-05-29T14:13:06.065Z</time>
      </trkpt>
      <trkpt lat="42.94865" lon="-0.81504">
        <ele>1561.01</ele>
        <time>2024-05-29T14:13:07.347Z</time>
      </trkpt>
      <trkpt lat="42.94852" lon="-0.81534">
        <ele>1559.45</ele>
        <time>2024-05-29T14:13:08.633Z</time>
      </trkpt>
      <trkpt lat="42.94849" lon="-0.81549">
        <ele>1557.69</ele>
        <time>2024-05-29T14:13:09.921Z</time>
      </trkpt>
      <trkpt lat="42.94844" lon="-0.81568">
        <ele>1555.57</ele>
        <time>2024-05-29T14:13:11.211Z</time>
      </trkpt>
      <trkpt lat="42.94819" lon="-0.81805">
        <ele>1552.25</ele>
        <time>2024-05-29T14:13:12.530Z</time>
      </trkpt>
      <trkpt lat="42.94819" lon="-0.81829">
        <ele>1549.71</ele>
        <time>2024-05-29T14:13:13.851Z</time>
      </trkpt>
      <trkpt lat="42.9482" lon="-0.81921">
        <ele>1546.86</ele>
        <time>2024-05-29T14:13:15.183Z</time>
      </trkpt>
      <trkpt lat="42.94823" lon="-0.81947">
        <ele>1543.91</ele>
        <time>2024-05-29T14:13:16.518Z</time>
      </trkpt>
      <trkpt lat="42.94843" lon="-0.82096">
        <ele>1540.12</ele>
        <time>2024-05-29T14:13:17.871Z</time>
      </trkpt>
      <trkpt lat="42.94851" lon="-0.82137">
        <ele>1536.6</ele>
        <time>2024-05-29T14:13:19.229Z</time>
      </trkpt>
      <trkpt lat="42.94907" lon="-0.82345">
        <ele>1531.97</ele>
        <time>2024-05-29T14:13:20.613Z</time>
      </trkpt>
      <trkpt lat="42.94942" lon="-0.82449">
        <ele>1528.03</ele>
        <time>2024-05-29T14:13:22.010Z</time>
      </trkpt>
      <trkpt lat="42.94944" lon="-0.82465">
        <ele>1523.91</ele>
        <time>2024-05-29T14:13:23.409Z</time>
      </trkpt>
      <trkpt lat="42.94946" lon="-0.82483">
        <ele>1519.39</ele>
        <time>2024-05-29T14:13:24.811Z</time>
      </trkpt>
      <trkpt lat="42.94947" lon="-0.82592">
        <ele>1513.89</ele>
        <time>2024-05-29T14:13:26.225Z</time>
      </trkpt>
      <trkpt lat="42.94942" lon="-0.82719">
        <ele>1509.8</ele>
        <time>2024-05-29T14:13:27.654Z</time>
      </trkpt>
      <trkpt lat="42.94938" lon="-0.82756">
        <ele>1506.33</ele>
        <time>2024-05-29T14:13:29.088Z</time>
      </trkpt>
      <trkpt lat="42.9493" lon="-0.82794">
        <ele>1502.88</ele>
        <time>2024-05-29T14:13:30.526Z</time>
      </trkpt>
      <trkpt lat="42.94925" lon="-0.82809">
        <ele>1499.99</ele>
        <time>2024-05-29T14:13:31.966Z</time>
      </trkpt>
      <trkpt lat="42.94917" lon="-0.82831">
        <ele>1497.43</ele>
        <time>2024-05-29T14:13:33.409Z</time>
      </trkpt>
      <trkpt lat="42.94889" lon="-0.82898">
        <ele>1494.25</ele>
        <time>2024-05-29T14:13:34.861Z</time>
      </trkpt>
      <trkpt lat="42.94889" lon="-0.82898">
        <ele>1494.25</ele>
        <time>2024-05-29T14:13:36.313Z</time>
      </trkpt>
      <trkpt lat="42.94872" lon="-0.82939">
        <ele>1492.38</ele>
        <time>2024-05-29T14:13:37.771Z</time>
      </trkpt>
      <trkpt lat="42.94856" lon="-0.82984">
        <ele>1489.47</ele>
        <time>2024-05-29T14:13:39.235Z</time>
      </trkpt>
      <trkpt lat="42.94845" lon="-0.83026">
        <ele>1486.55</ele>
        <time>2024-05-29T14:13:40.704Z</time>
      </trkpt>
      <trkpt lat="42.94839" lon="-0.83042">
        <ele>1483.78</ele>
        <time>2024-05-29T14:13:42.175Z</time>
      </trkpt>
      <trkpt lat="42.9483" lon="-0.83057">
        <ele>1481.04</ele>
        <time>2024-05-29T14:13:43.648Z</time>
      </trkpt>
      <trkpt lat="42.94778" lon="-0.8312">
        <ele>1477.38</ele>
        <time>2024-05-29T14:13:45.132Z</time>
      </trkpt>
      <trkpt lat="42.94765" lon="-0.83138">
        <ele>1474.09</ele>
        <time>2024-05-29T14:13:46.619Z</time>
      </trkpt>
      <trkpt lat="42.94755" lon="-0.83154">
        <ele>1470.85</ele>
        <time>2024-05-29T14:13:48.109Z</time>
      </trkpt>
      <trkpt lat="42.94723" lon="-0.83221">
        <ele>1467.45</ele>
        <time>2024-05-29T14:13:49.608Z</time>
      </trkpt>
      <trkpt lat="42.94715" lon="-0.83245">
        <ele>1464.16</ele>
        <time>2024-05-29T14:13:51.110Z</time>
      </trkpt>
      <trkpt lat="42.94699" lon="-0.83294">
        <ele>1460.71</ele>
        <time>2024-05-29T14:13:52.619Z</time>
      </trkpt>
      <trkpt lat="42.94593" lon="-0.83669">
        <ele>1454.65</ele>
        <time>2024-05-29T14:13:54.175Z</time>
      </trkpt>
      <trkpt lat="42.94593" lon="-0.83669">
        <ele>1450.57</ele>
        <time>2024-05-29T14:13:55.731Z</time>
      </trkpt>
      <trkpt lat="42.94577" lon="-0.83725">
        <ele>1446.56</ele>
        <time>2024-05-29T14:13:57.294Z</time>
      </trkpt>
      <trkpt lat="42.94575" lon="-0.83745">
        <ele>1443.02</ele>
        <time>2024-05-29T14:13:58.859Z</time>
      </trkpt>
      <trkpt lat="42.94577" lon="-0.83761">
        <ele>1439.9</ele>
        <time>2024-05-29T14:14:00.426Z</time>
      </trkpt>
      <trkpt lat="42.94585" lon="-0.83778">
        <ele>1437.1</ele>
        <time>2024-05-29T14:14:01.996Z</time>
      </trkpt>
      <trkpt lat="42.94596" lon="-0.83792">
        <ele>1434.69</ele>
        <time>2024-05-29T14:14:03.568Z</time>
      </trkpt>
      <trkpt lat="42.94607" lon="-0.83818">
        <ele>1432.4</ele>
        <time>2024-05-29T14:14:05.144Z</time>
      </trkpt>
      <trkpt lat="42.94612" lon="-0.83837">
        <ele>1430.32</ele>
        <time>2024-05-29T14:14:06.722Z</time>
      </trkpt>
      <trkpt lat="42.94616" lon="-0.83891">
        <ele>1428.12</ele>
        <time>2024-05-29T14:14:08.306Z</time>
      </trkpt>
      <trkpt lat="42.94616" lon="-0.83908">
        <ele>1426.25</ele>
        <time>2024-05-29T14:14:09.892Z</time>
      </trkpt>
      <trkpt lat="42.94612" lon="-0.83934">
        <ele>1424.33</ele>
        <time>2024-05-29T14:14:11.481Z</time>
      </trkpt>
      <trkpt lat="42.94584" lon="-0.84001">
        <ele>1421.75</ele>
        <time>2024-05-29T14:14:13.079Z</time>
      </trkpt>
      <trkpt lat="42.94568" lon="-0.84027">
        <ele>1419.56</ele>
        <time>2024-05-29T14:14:14.681Z</time>
      </trkpt>
      <trkpt lat="42.94547" lon="-0.84051">
        <ele>1417.45</ele>
        <time>2024-05-29T14:14:16.288Z</time>
      </trkpt>
      <trkpt lat="42.94527" lon="-0.84072">
        <ele>1415.37</ele>
        <time>2024-05-29T14:14:17.899Z</time>
      </trkpt>
      <trkpt lat="42.94509" lon="-0.84098">
        <ele>1413.37</ele>
        <time>2024-05-29T14:14:19.514Z</time>
      </trkpt>
      <trkpt lat="42.94499" lon="-0.84117">
        <ele>1411.58</ele>
        <time>2024-05-29T14:14:21.132Z</time>
      </trkpt>
      <trkpt lat="42.94491" lon="-0.84138">
        <ele>1409.86</ele>
        <time>2024-05-29T14:14:22.753Z</time>
      </trkpt>
      <trkpt lat="42.9449" lon="-0.84162">
        <ele>1408.3</ele>
        <time>2024-05-29T14:14:24.376Z</time>
      </trkpt>
      <trkpt lat="42.94493" lon="-0.84184">
        <ele>1406.8</ele>
        <time>2024-05-29T14:14:26.002Z</time>
      </trkpt>
      <trkpt lat="42.94504" lon="-0.84204">
        <ele>1405.47</ele>
        <time>2024-05-29T14:14:27.631Z</time>
      </trkpt>
      <trkpt lat="42.94514" lon="-0.84218">
        <ele>1404.18</ele>
        <time>2024-05-29T14:14:29.262Z</time>
      </trkpt>
      <trkpt lat="42.94533" lon="-0.84236">
        <ele>1402.96</ele>
        <time>2024-05-29T14:14:30.897Z</time>
      </trkpt>
      <trkpt lat="42.9454" lon="-0.84248">
        <ele>1401.61</ele>
        <time>2024-05-29T14:14:32.534Z</time>
      </trkpt>
      <trkpt lat="42.94545" lon="-0.84262">
        <ele>1400.2</ele>
        <time>2024-05-29T14:14:34.173Z</time>
      </trkpt>
      <trkpt lat="42.94546" lon="-0.84281">
        <ele>1398.71</ele>
        <time>2024-05-29T14:14:35.814Z</time>
      </trkpt>
      <trkpt lat="42.94544" lon="-0.84299">
        <ele>1397.16</ele>
        <time>2024-05-29T14:14:37.457Z</time>
      </trkpt>
      <trkpt lat="42.94536" lon="-0.84314">
        <ele>1395.39</ele>
        <time>2024-05-29T14:14:39.102Z</time>
      </trkpt>
      <trkpt lat="42.94524" lon="-0.84332">
        <ele>1393.66</ele>
        <time>2024-05-29T14:14:40.750Z</time>
      </trkpt>
      <trkpt lat="42.94505" lon="-0.84352">
        <ele>1391.72</ele>
        <time>2024-05-29T14:14:42.402Z</time>
      </trkpt>
      <trkpt lat="42.94465" lon="-0.84391">
        <ele>1389.1</ele>
        <time>2024-05-29T14:14:44.062Z</time>
      </trkpt>
      <trkpt lat="42.94451" lon="-0.84409">
        <ele>1386.81</ele>
        <time>2024-05-29T14:14:45.725Z</time>
      </trkpt>
      <trkpt lat="42.9439" lon="-0.84509">
        <ele>1384.09</ele>
        <time>2024-05-29T14:14:47.403Z</time>
      </trkpt>
      <trkpt lat="42.94384" lon="-0.84525">
        <ele>1381.9</ele>
        <time>2024-05-29T14:14:49.083Z</time>
      </trkpt>
      <trkpt lat="42.94379" lon="-0.84554">
        <ele>1379.93</ele>
        <time>2024-05-29T14:14:50.767Z</time>
      </trkpt>
      <trkpt lat="42.94373" lon="-0.8457">
        <ele>1377.89</ele>
        <time>2024-05-29T14:14:52.453Z</time>
      </trkpt>
      <trkpt lat="42.94365" lon="-0.84582">
        <ele>1375.84</ele>
        <time>2024-05-29T14:14:54.141Z</time>
      </trkpt>
      <trkpt lat="42.94347" lon="-0.84596">
        <ele>1373.78</ele>
        <time>2024-05-29T14:14:55.832Z</time>
      </trkpt>
      <trkpt lat="42.94314" lon="-0.84608">
        <ele>1371.59</ele>
        <time>2024-05-29T14:14:57.528Z</time>
      </trkpt>
      <trkpt lat="42.94291" lon="-0.84609">
        <ele>1369.44</ele>
        <time>2024-05-29T14:14:59.228Z</time>
      </trkpt>
      <trkpt lat="42.9427" lon="-0.84607">
        <ele>1367.26</ele>
        <time>2024-05-29T14:15:00.931Z</time>
      </trkpt>
      <trkpt lat="42.94262" lon="-0.84609">
        <ele>1365.23</ele>
        <time>2024-05-29T14:15:02.636Z</time>
      </trkpt>
      <trkpt lat="42.94248" lon="-0.84616">
        <ele>1363.01</ele>
        <time>2024-05-29T14:15:04.343Z</time>
      </trkpt>
      <trkpt lat="42.94236" lon="-0.84629">
        <ele>1360.76</ele>
        <time>2024-05-29T14:15:06.053Z</time>
      </trkpt>
      <trkpt lat="42.9423" lon="-0.84643">
        <ele>1358.55</ele>
        <time>2024-05-29T14:15:07.765Z</time>
      </trkpt>
      <trkpt lat="42.94224" lon="-0.84663">
        <ele>1356.46</ele>
        <time>2024-05-29T14:15:09.479Z</time>
      </trkpt>
      <trkpt lat="42.94223" lon="-0.84685">
        <ele>1354.58</ele>
        <time>2024-05-29T14:15:11.196Z</time>
      </trkpt>
      <trkpt lat="42.94224" lon="-0.84756">
        <ele>1352.88</ele>
        <time>2024-05-29T14:15:12.921Z</time>
      </trkpt>
      <trkpt lat="42.94227" lon="-0.84776">
        <ele>1351.09</ele>
        <time>2024-05-29T14:15:14.648Z</time>
      </trkpt>
      <trkpt lat="42.94237" lon="-0.84805">
        <ele>1349.42</ele>
        <time>2024-05-29T14:15:16.379Z</time>
      </trkpt>
      <trkpt lat="42.94244" lon="-0.8482">
        <ele>1347.7</ele>
        <time>2024-05-29T14:15:18.112Z</time>
      </trkpt>
      <trkpt lat="42.94259" lon="-0.84843">
        <ele>1346.04</ele>
        <time>2024-05-29T14:15:19.849Z</time>
      </trkpt>
      <trkpt lat="42.94267" lon="-0.8486">
        <ele>1344.31</ele>
        <time>2024-05-29T14:15:21.588Z</time>
      </trkpt>
      <trkpt lat="42.94272" lon="-0.8488">
        <ele>1342.65</ele>
        <time>2024-05-29T14:15:23.330Z</time>
      </trkpt>
      <trkpt lat="42.94271" lon="-0.84901">
        <ele>1341.07</ele>
        <time>2024-05-29T14:15:25.074Z</time>
      </trkpt>
      <trkpt lat="42.94267" lon="-0.8492">
        <ele>1339.53</ele>
        <time>2024-05-29T14:15:26.820Z</time>
      </trkpt>
      <trkpt lat="42.94264" lon="-0.8493">
        <ele>1338.19</ele>
        <time>2024-05-29T14:15:28.568Z</time>
      </trkpt>
      <trkpt lat="42.94256" lon="-0.8494">
        <ele>1336.85</ele>
        <time>2024-05-29T14:15:30.317Z</time>
      </trkpt>
      <trkpt lat="42.94256" lon="-0.8494">
        <ele>1335.58</ele>
        <time>2024-05-29T14:15:32.066Z</time>
      </trkpt>
      <trkpt lat="42.94224" lon="-0.84968">
        <ele>1333.7</ele>
        <time>2024-05-29T14:15:33.822Z</time>
      </trkpt>
      <trkpt lat="42.94215" lon="-0.84987">
        <ele>1332.47</ele>
        <time>2024-05-29T14:15:35.580Z</time>
      </trkpt>
      <trkpt lat="42.9421" lon="-0.85006">
        <ele>1331.26</ele>
        <time>2024-05-29T14:15:37.341Z</time>
      </trkpt>
      <trkpt lat="42.94205" lon="-0.85029">
        <ele>1330.1</ele>
        <time>2024-05-29T14:15:39.104Z</time>
      </trkpt>
      <trkpt lat="42.94204" lon="-0.85057">
        <ele>1329.04</ele>
        <time>2024-05-29T14:15:40.871Z</time>
      </trkpt>
      <trkpt lat="42.94203" lon="-0.85094">
        <ele>1327.87</ele>
        <time>2024-05-29T14:15:42.642Z</time>
      </trkpt>
      <trkpt lat="42.94204" lon="-0.85149">
        <ele>1326.65</ele>
        <time>2024-05-29T14:15:44.420Z</time>
      </trkpt>
      <trkpt lat="42.94206" lon="-0.8517">
        <ele>1325.4</ele>
        <time>2024-05-29T14:15:46.200Z</time>
      </trkpt>
      <trkpt lat="42.94217" lon="-0.85203">
        <ele>1324.33</ele>
        <time>2024-05-29T14:15:47.984Z</time>
      </trkpt>
      <trkpt lat="42.94227" lon="-0.85219">
        <ele>1323.36</ele>
        <time>2024-05-29T14:15:49.771Z</time>
      </trkpt>
      <trkpt lat="42.94235" lon="-0.85229">
        <ele>1322.31</ele>
        <time>2024-05-29T14:15:51.559Z</time>
      </trkpt>
      <trkpt lat="42.94285" lon="-0.85262">
        <ele>1320.87</ele>
        <time>2024-05-29T14:15:53.356Z</time>
      </trkpt>
      <trkpt lat="42.94345" lon="-0.85308">
        <ele>1320.18</ele>
        <time>2024-05-29T14:15:55.164Z</time>
      </trkpt>
      <trkpt lat="42.94365" lon="-0.8532">
        <ele>1319.08</ele>
        <time>2024-05-29T14:15:56.976Z</time>
      </trkpt>
      <trkpt lat="42.94368" lon="-0.85326">
        <ele>1317.63</ele>
        <time>2024-05-29T14:15:58.789Z</time>
      </trkpt>
      <trkpt lat="42.94369" lon="-0.85332">
        <ele>1316.05</ele>
        <time>2024-05-29T14:16:00.602Z</time>
      </trkpt>
      <trkpt lat="42.94369" lon="-0.85337">
        <ele>1314.31</ele>
        <time>2024-05-29T14:16:02.416Z</time>
      </trkpt>
      <trkpt lat="42.94366" lon="-0.85344">
        <ele>1312.32</ele>
        <time>2024-05-29T14:16:04.231Z</time>
      </trkpt>
      <trkpt lat="42.9436" lon="-0.85346">
        <ele>1310.28</ele>
        <time>2024-05-29T14:16:06.047Z</time>
      </trkpt>
      <trkpt lat="42.94354" lon="-0.85346">
        <ele>1308.16</ele>
        <time>2024-05-29T14:16:07.864Z</time>
      </trkpt>
      <trkpt lat="42.94348" lon="-0.85343">
        <ele>1306.03</ele>
        <time>2024-05-29T14:16:09.682Z</time>
      </trkpt>
      <trkpt lat="42.94313" lon="-0.85317">
        <ele>1303.99</ele>
        <time>2024-05-29T14:16:11.506Z</time>
      </trkpt>
      <trkpt lat="42.94287" lon="-0.85305">
        <ele>1301.61</ele>
        <time>2024-05-29T14:16:13.335Z</time>
      </trkpt>
      <trkpt lat="42.94255" lon="-0.85296">
        <ele>1299.14</ele>
        <time>2024-05-29T14:16:15.169Z</time>
      </trkpt>
      <trkpt lat="42.94191" lon="-0.85287">
        <ele>1296.2</ele>
        <time>2024-05-29T14:16:17.013Z</time>
      </trkpt>
      <trkpt lat="42.94167" lon="-0.85274">
        <ele>1293.7</ele>
        <time>2024-05-29T14:16:18.861Z</time>
      </trkpt>
      <trkpt lat="42.94158" lon="-0.85264">
        <ele>1291.22</ele>
        <time>2024-05-29T14:16:20.711Z</time>
      </trkpt>
      <trkpt lat="42.94145" lon="-0.85243">
        <ele>1288.65</ele>
        <time>2024-05-29T14:16:22.564Z</time>
      </trkpt>
      <trkpt lat="42.94134" lon="-0.85212">
        <ele>1286.09</ele>
        <time>2024-05-29T14:16:24.422Z</time>
      </trkpt>
      <trkpt lat="42.94127" lon="-0.85163">
        <ele>1283.55</ele>
        <time>2024-05-29T14:16:26.285Z</time>
      </trkpt>
      <trkpt lat="42.94124" lon="-0.85142">
        <ele>1281.28</ele>
        <time>2024-05-29T14:16:28.151Z</time>
      </trkpt>
      <trkpt lat="42.94124" lon="-0.85116">
        <ele>1279.16</ele>
        <time>2024-05-29T14:16:30.020Z</time>
      </trkpt>
      <trkpt lat="42.94128" lon="-0.85075">
        <ele>1277.14</ele>
        <time>2024-05-29T14:16:31.894Z</time>
      </trkpt>
      <trkpt lat="42.94127" lon="-0.85068">
        <ele>1274.95</ele>
        <time>2024-05-29T14:16:33.769Z</time>
      </trkpt>
      <trkpt lat="42.94123" lon="-0.85061">
        <ele>1272.66</ele>
        <time>2024-05-29T14:16:35.645Z</time>
      </trkpt>
      <trkpt lat="42.94119" lon="-0.85058">
        <ele>1270.31</ele>
        <time>2024-05-29T14:16:37.521Z</time>
      </trkpt>
      <trkpt lat="42.94109" lon="-0.85065">
        <ele>1267.93</ele>
        <time>2024-05-29T14:16:39.399Z</time>
      </trkpt>
      <trkpt lat="42.94107" lon="-0.85073">
        <ele>1265.79</ele>
        <time>2024-05-29T14:16:41.278Z</time>
      </trkpt>
      <trkpt lat="42.94102" lon="-0.8514">
        <ele>1263.66</ele>
        <time>2024-05-29T14:16:43.165Z</time>
      </trkpt>
      <trkpt lat="42.94098" lon="-0.8516">
        <ele>1261.5</ele>
        <time>2024-05-29T14:16:45.054Z</time>
      </trkpt>
      <trkpt lat="42.94086" lon="-0.85201">
        <ele>1259.25</ele>
        <time>2024-05-29T14:16:46.949Z</time>
      </trkpt>
      <trkpt lat="42.94068" lon="-0.85243">
        <ele>1257.17</ele>
        <time>2024-05-29T14:16:48.849Z</time>
      </trkpt>
      <trkpt lat="42.94041" lon="-0.85293">
        <ele>1254.91</ele>
        <time>2024-05-29T14:16:50.757Z</time>
      </trkpt>
      <trkpt lat="42.94032" lon="-0.85315">
        <ele>1252.98</ele>
        <time>2024-05-29T14:16:52.667Z</time>
      </trkpt>
      <trkpt lat="42.94025" lon="-0.85346">
        <ele>1251.22</ele>
        <time>2024-05-29T14:16:54.581Z</time>
      </trkpt>
      <trkpt lat="42.9402" lon="-0.85353">
        <ele>1249.5</ele>
        <time>2024-05-29T14:16:56.496Z</time>
      </trkpt>
      <trkpt lat="42.94016" lon="-0.85357">
        <ele>1247.79</ele>
        <time>2024-05-29T14:16:58.412Z</time>
      </trkpt>
      <trkpt lat="42.94009" lon="-0.85357">
        <ele>1246.03</ele>
        <time>2024-05-29T14:17:00.329Z</time>
      </trkpt>
      <trkpt lat="42.94004" lon="-0.85353">
        <ele>1244.34</ele>
        <time>2024-05-29T14:17:02.247Z</time>
      </trkpt>
      <trkpt lat="42.94001" lon="-0.85347">
        <ele>1242.68</ele>
        <time>2024-05-29T14:17:04.166Z</time>
      </trkpt>
      <trkpt lat="42.94001" lon="-0.85339">
        <ele>1241.14</ele>
        <time>2024-05-29T14:17:06.086Z</time>
      </trkpt>
      <trkpt lat="42.94001" lon="-0.8533">
        <ele>1239.6</ele>
        <time>2024-05-29T14:17:08.007Z</time>
      </trkpt>
      <trkpt lat="42.94018" lon="-0.85255">
        <ele>1238.1</ele>
        <time>2024-05-29T14:17:09.937Z</time>
      </trkpt>
      <trkpt lat="42.94021" lon="-0.85232">
        <ele>1236.61</ele>
        <time>2024-05-29T14:17:11.870Z</time>
      </trkpt>
      <trkpt lat="42.94021" lon="-0.85186">
        <ele>1235.05</ele>
        <time>2024-05-29T14:17:13.809Z</time>
      </trkpt>
      <trkpt lat="42.94024" lon="-0.85155">
        <ele>1233.64</ele>
        <time>2024-05-29T14:17:15.751Z</time>
      </trkpt>
      <trkpt lat="42.94035" lon="-0.85096">
        <ele>1232.37</ele>
        <time>2024-05-29T14:17:17.700Z</time>
      </trkpt>
      <trkpt lat="42.94032" lon="-0.85085">
        <ele>1230.77</ele>
        <time>2024-05-29T14:17:19.651Z</time>
      </trkpt>
      <trkpt lat="42.94029" lon="-0.85082">
        <ele>1229.18</ele>
        <time>2024-05-29T14:17:21.602Z</time>
      </trkpt>
      <trkpt lat="42.94025" lon="-0.8508">
        <ele>1227.54</ele>
        <time>2024-05-29T14:17:23.554Z</time>
      </trkpt>
      <trkpt lat="42.94019" lon="-0.85081">
        <ele>1225.86</ele>
        <time>2024-05-29T14:17:25.507Z</time>
      </trkpt>
      <trkpt lat="42.94016" lon="-0.85085">
        <ele>1224.22</ele>
        <time>2024-05-29T14:17:27.461Z</time>
      </trkpt>
      <trkpt lat="42.94012" lon="-0.85096">
        <ele>1222.56</ele>
        <time>2024-05-29T14:17:29.416Z</time>
      </trkpt>
      <trkpt lat="42.94004" lon="-0.85133">
        <ele>1220.8</ele>
        <time>2024-05-29T14:17:31.376Z</time>
      </trkpt>
      <trkpt lat="42.93984" lon="-0.85206">
        <ele>1218.89</ele>
        <time>2024-05-29T14:17:33.345Z</time>
      </trkpt>
      <trkpt lat="42.9397" lon="-0.85244">
        <ele>1216.99</ele>
        <time>2024-05-29T14:17:35.319Z</time>
      </trkpt>
      <trkpt lat="42.93952" lon="-0.85287">
        <ele>1215.23</ele>
        <time>2024-05-29T14:17:37.299Z</time>
      </trkpt>
      <trkpt lat="42.93936" lon="-0.85316">
        <ele>1213.42</ele>
        <time>2024-05-29T14:17:39.283Z</time>
      </trkpt>
      <trkpt lat="42.93898" lon="-0.85379">
        <ele>1211.46</ele>
        <time>2024-05-29T14:17:41.277Z</time>
      </trkpt>
      <trkpt lat="42.93883" lon="-0.85411">
        <ele>1209.8</ele>
        <time>2024-05-29T14:17:43.275Z</time>
      </trkpt>
      <trkpt lat="42.93876" lon="-0.85441">
        <ele>1208.17</ele>
        <time>2024-05-29T14:17:45.277Z</time>
      </trkpt>
      <trkpt lat="42.93873" lon="-0.85467">
        <ele>1206.64</ele>
        <time>2024-05-29T14:17:47.282Z</time>
      </trkpt>
      <trkpt lat="42.93874" lon="-0.85485">
        <ele>1205.19</ele>
        <time>2024-05-29T14:17:49.289Z</time>
      </trkpt>
      <trkpt lat="42.93873" lon="-0.85492">
        <ele>1203.77</ele>
        <time>2024-05-29T14:17:51.297Z</time>
      </trkpt>
      <trkpt lat="42.9387" lon="-0.85498">
        <ele>1202.35</ele>
        <time>2024-05-29T14:17:53.306Z</time>
      </trkpt>
      <trkpt lat="42.93866" lon="-0.85501">
        <ele>1200.95</ele>
        <time>2024-05-29T14:17:55.315Z</time>
      </trkpt>
      <trkpt lat="42.9386" lon="-0.85501">
        <ele>1199.58</ele>
        <time>2024-05-29T14:17:57.325Z</time>
      </trkpt>
      <trkpt lat="42.93855" lon="-0.85497">
        <ele>1198.24</ele>
        <time>2024-05-29T14:17:59.336Z</time>
      </trkpt>
      <trkpt lat="42.93853" lon="-0.85492">
        <ele>1197.03</ele>
        <time>2024-05-29T14:18:01.348Z</time>
      </trkpt>
      <trkpt lat="42.93851" lon="-0.85483">
        <ele>1195.83</ele>
        <time>2024-05-29T14:18:03.361Z</time>
      </trkpt>
      <trkpt lat="42.93851" lon="-0.85466">
        <ele>1194.66</ele>
        <time>2024-05-29T14:18:05.376Z</time>
      </trkpt>
      <trkpt lat="42.93853" lon="-0.85379">
        <ele>1193.18</ele>
        <time>2024-05-29T14:18:07.401Z</time>
      </trkpt>
      <trkpt lat="42.93856" lon="-0.85363">
        <ele>1191.94</ele>
        <time>2024-05-29T14:18:09.428Z</time>
      </trkpt>
      <trkpt lat="42.93865" lon="-0.8533">
        <ele>1190.66</ele>
        <time>2024-05-29T14:18:11.459Z</time>
      </trkpt>
      <trkpt lat="42.93867" lon="-0.85311">
        <ele>1189.28</ele>
        <time>2024-05-29T14:18:13.493Z</time>
      </trkpt>
      <trkpt lat="42.93866" lon="-0.85284">
        <ele>1187.75</ele>
        <time>2024-05-29T14:18:15.530Z</time>
      </trkpt>
      <trkpt lat="42.9386" lon="-0.85243">
        <ele>1186.22</ele>
        <time>2024-05-29T14:18:17.572Z</time>
      </trkpt>
      <trkpt lat="42.93864" lon="-0.85205">
        <ele>1185.08</ele>
        <time>2024-05-29T14:18:19.618Z</time>
      </trkpt>
      <trkpt lat="42.93864" lon="-0.85198">
        <ele>1183.74</ele>
        <time>2024-05-29T14:18:21.665Z</time>
      </trkpt>
      <trkpt lat="42.93862" lon="-0.85191">
        <ele>1182.28</ele>
        <time>2024-05-29T14:18:23.713Z</time>
      </trkpt>
      <trkpt lat="42.93857" lon="-0.85187">
        <ele>1180.67</ele>
        <time>2024-05-29T14:18:25.762Z</time>
      </trkpt>
      <trkpt lat="42.93852" lon="-0.85186">
        <ele>1178.95</ele>
        <time>2024-05-29T14:18:27.812Z</time>
      </trkpt>
      <trkpt lat="42.93848" lon="-0.85188">
        <ele>1177.15</ele>
        <time>2024-05-29T14:18:29.862Z</time>
      </trkpt>
      <trkpt lat="42.93843" lon="-0.85193">
        <ele>1175.25</ele>
        <time>2024-05-29T14:18:31.913Z</time>
      </trkpt>
      <trkpt lat="42.93839" lon="-0.85207">
        <ele>1173.24</ele>
        <time>2024-05-29T14:18:33.966Z</time>
      </trkpt>
      <trkpt lat="42.93829" lon="-0.85254">
        <ele>1170.95</ele>
        <time>2024-05-29T14:18:36.025Z</time>
      </trkpt>
      <trkpt lat="42.93824" lon="-0.85272">
        <ele>1168.82</ele>
        <time>2024-05-29T14:18:38.086Z</time>
      </trkpt>
      <trkpt lat="42.9377" lon="-0.85396">
        <ele>1166.33</ele>
        <time>2024-05-29T14:18:40.164Z</time>
      </trkpt>
      <trkpt lat="42.9373" lon="-0.85537">
        <ele>1163.29</ele>
        <time>2024-05-29T14:18:42.260Z</time>
      </trkpt>
      <trkpt lat="42.93724" lon="-0.85557">
        <ele>1160.86</ele>
        <time>2024-05-29T14:18:44.358Z</time>
      </trkpt>
      <trkpt lat="42.93721" lon="-0.85581">
        <ele>1158.42</ele>
        <time>2024-05-29T14:18:46.459Z</time>
      </trkpt>
      <trkpt lat="42.93723" lon="-0.85605">
        <ele>1156.11</ele>
        <time>2024-05-29T14:18:48.563Z</time>
      </trkpt>
      <trkpt lat="42.93727" lon="-0.85625">
        <ele>1153.6</ele>
        <time>2024-05-29T14:18:50.669Z</time>
      </trkpt>
      <trkpt lat="42.93727" lon="-0.85632">
        <ele>1150.99</ele>
        <time>2024-05-29T14:18:52.776Z</time>
      </trkpt>
      <trkpt lat="42.9372" lon="-0.85642">
        <ele>1148.16</ele>
        <time>2024-05-29T14:18:54.885Z</time>
      </trkpt>
      <trkpt lat="42.93712" lon="-0.85642">
        <ele>1145.26</ele>
        <time>2024-05-29T14:18:56.995Z</time>
      </trkpt>
      <trkpt lat="42.93709" lon="-0.85639">
        <ele>1142.33</ele>
        <time>2024-05-29T14:18:59.106Z</time>
      </trkpt>
      <trkpt lat="42.93704" lon="-0.85631">
        <ele>1139.22</ele>
        <time>2024-05-29T14:19:01.218Z</time>
      </trkpt>
      <trkpt lat="42.93694" lon="-0.85504">
        <ele>1135.81</ele>
        <time>2024-05-29T14:19:03.345Z</time>
      </trkpt>
      <trkpt lat="42.93693" lon="-0.85463">
        <ele>1132.42</ele>
        <time>2024-05-29T14:19:05.477Z</time>
      </trkpt>
      <trkpt lat="42.93696" lon="-0.85345">
        <ele>1128.59</ele>
        <time>2024-05-29T14:19:07.623Z</time>
      </trkpt>
      <trkpt lat="42.93693" lon="-0.85213">
        <ele>1124.52</ele>
        <time>2024-05-29T14:19:09.784Z</time>
      </trkpt>
      <trkpt lat="42.937" lon="-0.85147">
        <ele>1120.68</ele>
        <time>2024-05-29T14:19:11.953Z</time>
      </trkpt>
      <trkpt lat="42.93708" lon="-0.85098">
        <ele>1117.06</ele>
        <time>2024-05-29T14:19:14.128Z</time>
      </trkpt>
      <trkpt lat="42.93709" lon="-0.85081">
        <ele>1113.32</ele>
        <time>2024-05-29T14:19:16.305Z</time>
      </trkpt>
      <trkpt lat="42.93705" lon="-0.85024">
        <ele>1109.28</ele>
        <time>2024-05-29T14:19:18.489Z</time>
      </trkpt>
      <trkpt lat="42.93706" lon="-0.84994">
        <ele>1105.47</ele>
        <time>2024-05-29T14:19:20.676Z</time>
      </trkpt>
      <trkpt lat="42.9371" lon="-0.84946">
        <ele>1101.63</ele>
        <time>2024-05-29T14:19:22.869Z</time>
      </trkpt>
      <trkpt lat="42.93733" lon="-0.84822">
        <ele>1097.29</ele>
        <time>2024-05-29T14:19:25.077Z</time>
      </trkpt>
      <trkpt lat="42.93742" lon="-0.84754">
        <ele>1092.83</ele>
        <time>2024-05-29T14:19:27.293Z</time>
      </trkpt>
      <trkpt lat="42.93749" lon="-0.84658">
        <ele>1088.8</ele>
        <time>2024-05-29T14:19:29.520Z</time>
      </trkpt>
      <trkpt lat="42.93746" lon="-0.84462">
        <ele>1083.7</ele>
        <time>2024-05-29T14:19:31.770Z</time>
      </trkpt>
      <trkpt lat="42.93747" lon="-0.84438">
        <ele>1079.77</ele>
        <time>2024-05-29T14:19:34.023Z</time>
      </trkpt>
      <trkpt lat="42.9375" lon="-0.84415">
        <ele>1075.96</ele>
        <time>2024-05-29T14:19:36.279Z</time>
      </trkpt>
      <trkpt lat="42.93754" lon="-0.84396">
        <ele>1072.24</ele>
        <time>2024-05-29T14:19:38.537Z</time>
      </trkpt>
      <trkpt lat="42.93767" lon="-0.84364">
        <ele>1068.64</ele>
        <time>2024-05-29T14:19:40.800Z</time>
      </trkpt>
      <trkpt lat="42.9378" lon="-0.84323">
        <ele>1064.94</ele>
        <time>2024-05-29T14:19:43.068Z</time>
      </trkpt>
      <trkpt lat="42.93783" lon="-0.84301">
        <ele>1061.3</ele>
        <time>2024-05-29T14:19:45.339Z</time>
      </trkpt>
      <trkpt lat="42.93782" lon="-0.84273">
        <ele>1057.62</ele>
        <time>2024-05-29T14:19:47.613Z</time>
      </trkpt>
      <trkpt lat="42.93778" lon="-0.84256">
        <ele>1054.05</ele>
        <time>2024-05-29T14:19:49.889Z</time>
      </trkpt>
      <trkpt lat="42.9376" lon="-0.8421">
        <ele>1050.35</ele>
        <time>2024-05-29T14:19:52.171Z</time>
      </trkpt>
      <trkpt lat="42.93755" lon="-0.84195">
        <ele>1046.88</ele>
        <time>2024-05-29T14:19:54.455Z</time>
      </trkpt>
      <trkpt lat="42.93748" lon="-0.84159">
        <ele>1043.3</ele>
        <time>2024-05-29T14:19:56.743Z</time>
      </trkpt>
      <trkpt lat="42.93714" lon="-0.83954">
        <ele>1039.36</ele>
        <time>2024-05-29T14:19:59.056Z</time>
      </trkpt>
      <trkpt lat="42.93708" lon="-0.83924">
        <ele>1036.08</ele>
        <time>2024-05-29T14:20:01.373Z</time>
      </trkpt>
      <trkpt lat="42.93688" lon="-0.83856">
        <ele>1032.56</ele>
        <time>2024-05-29T14:20:03.698Z</time>
      </trkpt>
      <trkpt lat="42.93666" lon="-0.83739">
        <ele>1029.42</ele>
        <time>2024-05-29T14:20:06.038Z</time>
      </trkpt>
      <trkpt lat="42.93644" lon="-0.83651">
        <ele>1025.81</ele>
        <time>2024-05-29T14:20:08.388Z</time>
      </trkpt>
      <trkpt lat="42.93636" lon="-0.83614">
        <ele>1023.23</ele>
        <time>2024-05-29T14:20:10.743Z</time>
      </trkpt>
      <trkpt lat="42.9363" lon="-0.83551">
        <ele>1021.04</ele>
        <time>2024-05-29T14:20:13.105Z</time>
      </trkpt>
      <trkpt lat="42.93622" lon="-0.8352">
        <ele>1018.58</ele>
        <time>2024-05-29T14:20:15.471Z</time>
      </trkpt>
      <trkpt lat="42.93603" lon="-0.83466">
        <ele>1015.74</ele>
        <time>2024-05-29T14:20:17.844Z</time>
      </trkpt>
      <trkpt lat="42.93563" lon="-0.83323">
        <ele>1013.23</ele>
        <time>2024-05-29T14:20:20.235Z</time>
      </trkpt>
      <trkpt lat="42.93554" lon="-0.83301">
        <ele>1011.04</ele>
        <time>2024-05-29T14:20:22.629Z</time>
      </trkpt>
      <trkpt lat="42.93546" lon="-0.83291">
        <ele>1008.74</ele>
        <time>2024-05-29T14:20:25.025Z</time>
      </trkpt>
      <trkpt lat="42.93531" lon="-0.8328">
        <ele>1006.41</ele>
        <time>2024-05-29T14:20:27.424Z</time>
      </trkpt>
      <trkpt lat="42.93505" lon="-0.83276">
        <ele>1004</ele>
        <time>2024-05-29T14:20:29.827Z</time>
      </trkpt>
      <trkpt lat="42.93469" lon="-0.83278">
        <ele>1002.13</ele>
        <time>2024-05-29T14:20:32.236Z</time>
      </trkpt>
      <trkpt lat="42.93447" lon="-0.83282">
        <ele>1000.4</ele>
        <time>2024-05-29T14:20:34.648Z</time>
      </trkpt>
      <trkpt lat="42.93418" lon="-0.83303">
        <ele>998.67</ele>
        <time>2024-05-29T14:20:37.065Z</time>
      </trkpt>
      <trkpt lat="42.93341" lon="-0.83395">
        <ele>996.97</ele>
        <time>2024-05-29T14:20:39.499Z</time>
      </trkpt>
      <trkpt lat="42.93302" lon="-0.83451">
        <ele>995.36</ele>
        <time>2024-05-29T14:20:41.942Z</time>
      </trkpt>
      <trkpt lat="42.93296" lon="-0.83458">
        <ele>993.5</ele>
        <time>2024-05-29T14:20:44.386Z</time>
      </trkpt>
      <trkpt lat="42.93276" lon="-0.83494">
        <ele>991.75</ele>
        <time>2024-05-29T14:20:46.836Z</time>
      </trkpt>
      <trkpt lat="42.93263" lon="-0.83528">
        <ele>989.66</ele>
        <time>2024-05-29T14:20:49.290Z</time>
      </trkpt>
      <trkpt lat="42.93251" lon="-0.83568">
        <ele>987.28</ele>
        <time>2024-05-29T14:20:51.749Z</time>
      </trkpt>
      <trkpt lat="42.93179" lon="-0.83989">
        <ele>983.61</ele>
        <time>2024-05-29T14:20:54.259Z</time>
      </trkpt>
      <trkpt lat="42.93108" lon="-0.84382">
        <ele>980.81</ele>
        <time>2024-05-29T14:20:56.816Z</time>
      </trkpt>
      <trkpt lat="42.93102" lon="-0.84437">
        <ele>978.29</ele>
        <time>2024-05-29T14:20:59.380Z</time>
      </trkpt>
      <trkpt lat="42.93099" lon="-0.84501">
        <ele>975.6</ele>
        <time>2024-05-29T14:21:01.952Z</time>
      </trkpt>
      <trkpt lat="42.93098" lon="-0.84641">
        <ele>972.6</ele>
        <time>2024-05-29T14:21:04.540Z</time>
      </trkpt>
      <trkpt lat="42.93096" lon="-0.84684">
        <ele>970.03</ele>
        <time>2024-05-29T14:21:07.133Z</time>
      </trkpt>
      <trkpt lat="42.93083" lon="-0.848">
        <ele>967.26</ele>
        <time>2024-05-29T14:21:09.740Z</time>
      </trkpt>
      <trkpt lat="42.93083" lon="-0.848">
        <ele>964.75</ele>
        <time>2024-05-29T14:21:12.347Z</time>
      </trkpt>
      <trkpt lat="42.93067" lon="-0.84942">
        <ele>961.83</ele>
        <time>2024-05-29T14:21:14.971Z</time>
      </trkpt>
      <trkpt lat="42.93061" lon="-0.8498">
        <ele>959.51</ele>
        <time>2024-05-29T14:21:17.599Z</time>
      </trkpt>
      <trkpt lat="42.93055" lon="-0.85011">
        <ele>957.18</ele>
        <time>2024-05-29T14:21:20.231Z</time>
      </trkpt>
      <trkpt lat="42.93041" lon="-0.85058">
        <ele>954.81</ele>
        <time>2024-05-29T14:21:22.869Z</time>
      </trkpt>
      <trkpt lat="42.92997" lon="-0.85169">
        <ele>952.25</ele>
        <time>2024-05-29T14:21:25.522Z</time>
      </trkpt>
      <trkpt lat="42.92931" lon="-0.85368">
        <ele>949.56</ele>
        <time>2024-05-29T14:21:28.201Z</time>
      </trkpt>
      <trkpt lat="42.92916" lon="-0.85421">
        <ele>947.38</ele>
        <time>2024-05-29T14:21:30.886Z</time>
      </trkpt>
      <trkpt lat="42.92882" lon="-0.85565">
        <ele>945.39</ele>
        <time>2024-05-29T14:21:33.589Z</time>
      </trkpt>
      <trkpt lat="42.9287" lon="-0.85639">
        <ele>943.75</ele>
        <time>2024-05-29T14:21:36.301Z</time>
      </trkpt>
      <trkpt lat="42.9287" lon="-0.85639">
        <ele>942.2</ele>
        <time>2024-05-29T14:21:39.013Z</time>
      </trkpt>
      <trkpt lat="42.92868" lon="-0.85653">
        <ele>940.75</ele>
        <time>2024-05-29T14:21:41.726Z</time>
      </trkpt>
      <trkpt lat="42.92858" lon="-0.85757">
        <ele>939.26</ele>
        <time>2024-05-29T14:21:44.452Z</time>
      </trkpt>
      <trkpt lat="42.92849" lon="-0.85843">
        <ele>938</ele>
        <time>2024-05-29T14:21:47.188Z</time>
      </trkpt>
      <trkpt lat="42.92839" lon="-0.85874">
        <ele>936.87</ele>
        <time>2024-05-29T14:21:49.928Z</time>
      </trkpt>
      <trkpt lat="42.92832" lon="-0.85888">
        <ele>935.94</ele>
        <time>2024-05-29T14:21:52.670Z</time>
      </trkpt>
      <trkpt lat="42.9278" lon="-0.85948">
        <ele>935.07</ele>
        <time>2024-05-29T14:21:55.423Z</time>
      </trkpt>
      <trkpt lat="42.92764" lon="-0.85971">
        <ele>934.23</ele>
        <time>2024-05-29T14:21:58.180Z</time>
      </trkpt>
      <trkpt lat="42.92753" lon="-0.85988">
        <ele>933.43</ele>
        <time>2024-05-29T14:22:00.939Z</time>
      </trkpt>
      <trkpt lat="42.92745" lon="-0.86008">
        <ele>932.64</ele>
        <time>2024-05-29T14:22:03.701Z</time>
      </trkpt>
      <trkpt lat="42.92738" lon="-0.86027">
        <ele>931.82</ele>
        <time>2024-05-29T14:22:06.465Z</time>
      </trkpt>
      <trkpt lat="42.92601" lon="-0.86488">
        <ele>930.63</ele>
        <time>2024-05-29T14:22:09.288Z</time>
      </trkpt>
      <trkpt lat="42.9259" lon="-0.86522">
        <ele>929.97</ele>
        <time>2024-05-29T14:22:12.115Z</time>
      </trkpt>
      <trkpt lat="42.92577" lon="-0.86555">
        <ele>929.31</ele>
        <time>2024-05-29T14:22:14.947Z</time>
      </trkpt>
      <trkpt lat="42.92563" lon="-0.86584">
        <ele>928.6</ele>
        <time>2024-05-29T14:22:17.783Z</time>
      </trkpt>
      <trkpt lat="42.92548" lon="-0.86611">
        <ele>927.93</ele>
        <time>2024-05-29T14:22:20.623Z</time>
      </trkpt>
      <trkpt lat="42.92535" lon="-0.86631">
        <ele>927.27</ele>
        <time>2024-05-29T14:22:23.466Z</time>
      </trkpt>
      <trkpt lat="42.92518" lon="-0.86654">
        <ele>926.63</ele>
        <time>2024-05-29T14:22:26.313Z</time>
      </trkpt>
      <trkpt lat="42.92209" lon="-0.86994">
        <ele>925.57</ele>
        <time>2024-05-29T14:22:29.223Z</time>
      </trkpt>
      <trkpt lat="42.92177" lon="-0.87027">
        <ele>925.1</ele>
        <time>2024-05-29T14:22:32.140Z</time>
      </trkpt>
      <trkpt lat="42.92146" lon="-0.87053">
        <ele>924.69</ele>
        <time>2024-05-29T14:22:35.063Z</time>
      </trkpt>
      <trkpt lat="42.92132" lon="-0.87061">
        <ele>924.12</ele>
        <time>2024-05-29T14:22:37.988Z</time>
      </trkpt>
      <trkpt lat="42.92132" lon="-0.87061">
        <ele>923.53</ele>
        <time>2024-05-29T14:22:40.913Z</time>
      </trkpt>
      <trkpt lat="42.92101" lon="-0.87076">
        <ele>922.87</ele>
        <time>2024-05-29T14:22:43.843Z</time>
      </trkpt>
      <trkpt lat="42.92048" lon="-0.87097">
        <ele>922.22</ele>
        <time>2024-05-29T14:22:46.782Z</time>
      </trkpt>
      <trkpt lat="42.92012" lon="-0.87115">
        <ele>921.43</ele>
        <time>2024-05-29T14:22:49.727Z</time>
      </trkpt>
      <trkpt lat="42.9198" lon="-0.87138">
        <ele>920.82</ele>
        <time>2024-05-29T14:22:52.678Z</time>
      </trkpt>
      <trkpt lat="42.91841" lon="-0.87259">
        <ele>920.54</ele>
        <time>2024-05-29T14:22:55.655Z</time>
      </trkpt>
      <trkpt lat="42.91806" lon="-0.87279">
        <ele>920.15</ele>
        <time>2024-05-29T14:22:58.639Z</time>
      </trkpt>
      <trkpt lat="42.91759" lon="-0.87291">
        <ele>919.42</ele>
        <time>2024-05-29T14:23:01.630Z</time>
      </trkpt>
      <trkpt lat="42.91759" lon="-0.87291">
        <ele>919.11</ele>
        <time>2024-05-29T14:23:04.621Z</time>
      </trkpt>
      <trkpt lat="42.91749" lon="-0.87295">
        <ele>918.82</ele>
        <time>2024-05-29T14:23:07.614Z</time>
      </trkpt>
      <trkpt lat="42.91739" lon="-0.87302">
        <ele>918.62</ele>
        <time>2024-05-29T14:23:10.609Z</time>
      </trkpt>
      <trkpt lat="42.91678" lon="-0.87376">
        <ele>918.49</ele>
        <time>2024-05-29T14:23:13.617Z</time>
      </trkpt>
      <trkpt lat="42.91583" lon="-0.8746">
        <ele>918.41</ele>
        <time>2024-05-29T14:23:16.643Z</time>
      </trkpt>
      <trkpt lat="42.91583" lon="-0.8746">
        <ele>918.42</ele>
        <time>2024-05-29T14:23:19.669Z</time>
      </trkpt>
      <trkpt lat="42.91565" lon="-0.87478">
        <ele>918.49</ele>
        <time>2024-05-29T14:23:22.698Z</time>
      </trkpt>
      <trkpt lat="42.91555" lon="-0.87489">
        <ele>918.61</ele>
        <time>2024-05-29T14:23:25.729Z</time>
      </trkpt>
      <trkpt lat="42.91548" lon="-0.875">
        <ele>918.73</ele>
        <time>2024-05-29T14:23:28.762Z</time>
      </trkpt>
      <trkpt lat="42.91517" lon="-0.87566">
        <ele>918.96</ele>
        <time>2024-05-29T14:23:31.804Z</time>
      </trkpt>
      <trkpt lat="42.91495" lon="-0.87593">
        <ele>919.12</ele>
        <time>2024-05-29T14:23:34.851Z</time>
      </trkpt>
      <trkpt lat="42.91484" lon="-0.87602">
        <ele>918.96</ele>
        <time>2024-05-29T14:23:37.900Z</time>
      </trkpt>
      <trkpt lat="42.91471" lon="-0.87605">
        <ele>918.56</ele>
        <time>2024-05-29T14:23:40.951Z</time>
      </trkpt>
      <trkpt lat="42.91454" lon="-0.87607">
        <ele>918.04</ele>
        <time>2024-05-29T14:23:44.005Z</time>
      </trkpt>
      <trkpt lat="42.91427" lon="-0.87605">
        <ele>917.42</ele>
        <time>2024-05-29T14:23:47.063Z</time>
      </trkpt>
      <trkpt lat="42.91378" lon="-0.87598">
        <ele>916.88</ele>
        <time>2024-05-29T14:23:50.129Z</time>
      </trkpt>
      <trkpt lat="42.91378" lon="-0.87598">
        <ele>916.62</ele>
        <time>2024-05-29T14:23:53.195Z</time>
      </trkpt>
      <trkpt lat="42.91334" lon="-0.8759">
        <ele>916.23</ele>
        <time>2024-05-29T14:23:56.268Z</time>
      </trkpt>
      <trkpt lat="42.91316" lon="-0.87589">
        <ele>916.19</ele>
        <time>2024-05-29T14:23:59.344Z</time>
      </trkpt>
      <trkpt lat="42.91295" lon="-0.87595">
        <ele>914.08</ele>
        <time>2024-05-29T14:24:02.424Z</time>
      </trkpt>
      <trkpt lat="42.91295" lon="-0.87595">
        <ele>914.08</ele>
        <time>2024-05-29T14:24:05.504Z</time>
      </trkpt>
      <trkpt lat="42.91291" lon="-0.87596">
        <ele>913.51</ele>
        <time>2024-05-29T14:24:08.584Z</time>
      </trkpt>
      <trkpt lat="42.91272" lon="-0.87609">
        <ele>912.76</ele>
        <time>2024-05-29T14:24:11.668Z</time>
      </trkpt>
      <trkpt lat="42.91206" lon="-0.87678">
        <ele>911.23</ele>
        <time>2024-05-29T14:24:14.765Z</time>
      </trkpt>
      <trkpt lat="42.91181" lon="-0.87707">
        <ele>910.08</ele>
        <time>2024-05-29T14:24:17.867Z</time>
      </trkpt>
      <trkpt lat="42.91022" lon="-0.87917">
        <ele>908.47</ele>
        <time>2024-05-29T14:24:21.005Z</time>
      </trkpt>
      <trkpt lat="42.91022" lon="-0.87917">
        <ele>907.42</ele>
        <time>2024-05-29T14:24:24.143Z</time>
      </trkpt>
      <trkpt lat="42.90943" lon="-0.88025">
        <ele>906.45</ele>
        <time>2024-05-29T14:24:27.299Z</time>
      </trkpt>
      <trkpt lat="42.90862" lon="-0.88145">
        <ele>905.55</ele>
        <time>2024-05-29T14:24:30.474Z</time>
      </trkpt>
      <trkpt lat="42.90848" lon="-0.88162">
        <ele>904.8</ele>
        <time>2024-05-29T14:24:33.652Z</time>
      </trkpt>
      <trkpt lat="42.90833" lon="-0.88176">
        <ele>904.29</ele>
        <time>2024-05-29T14:24:36.833Z</time>
      </trkpt>
      <trkpt lat="42.90811" lon="-0.88192">
        <ele>904.16</ele>
        <time>2024-05-29T14:24:40.018Z</time>
      </trkpt>
      <trkpt lat="42.90736" lon="-0.88233">
        <ele>903.94</ele>
        <time>2024-05-29T14:24:43.216Z</time>
      </trkpt>
      <trkpt lat="42.90707" lon="-0.88254">
        <ele>904.19</ele>
        <time>2024-05-29T14:24:46.419Z</time>
      </trkpt>
      <trkpt lat="42.90707" lon="-0.88254">
        <ele>904.11</ele>
        <time>2024-05-29T14:24:49.622Z</time>
      </trkpt>
      <trkpt lat="42.90695" lon="-0.88263">
        <ele>903.96</ele>
        <time>2024-05-29T14:24:52.827Z</time>
      </trkpt>
      <trkpt lat="42.9065" lon="-0.88308">
        <ele>903.43</ele>
        <time>2024-05-29T14:24:56.041Z</time>
      </trkpt>
      <trkpt lat="42.9063" lon="-0.88322">
        <ele>902.78</ele>
        <time>2024-05-29T14:24:59.259Z</time>
      </trkpt>
      <trkpt lat="42.90617" lon="-0.88329">
        <ele>902.15</ele>
        <time>2024-05-29T14:25:02.479Z</time>
      </trkpt>
      <trkpt lat="42.90602" lon="-0.88335">
        <ele>901.49</ele>
        <time>2024-05-29T14:25:05.701Z</time>
      </trkpt>
      <trkpt lat="42.90589" lon="-0.88337">
        <ele>900.79</ele>
        <time>2024-05-29T14:25:08.925Z</time>
      </trkpt>
      <trkpt lat="42.90542" lon="-0.88338">
        <ele>899.76</ele>
        <time>2024-05-29T14:25:12.157Z</time>
      </trkpt>
      <trkpt lat="42.9053" lon="-0.88342">
        <ele>898.97</ele>
        <time>2024-05-29T14:25:15.391Z</time>
      </trkpt>
      <trkpt lat="42.9052" lon="-0.88349">
        <ele>898.2</ele>
        <time>2024-05-29T14:25:18.627Z</time>
      </trkpt>
      <trkpt lat="42.90507" lon="-0.88358">
        <ele>897.49</ele>
        <time>2024-05-29T14:25:21.865Z</time>
      </trkpt>
      <trkpt lat="42.90482" lon="-0.88385">
        <ele>896.81</ele>
        <time>2024-05-29T14:25:25.108Z</time>
      </trkpt>
      <trkpt lat="42.90414" lon="-0.88487">
        <ele>896.56</ele>
        <time>2024-05-29T14:25:28.367Z</time>
      </trkpt>
      <trkpt lat="42.90391" lon="-0.88507">
        <ele>896.08</ele>
        <time>2024-05-29T14:25:31.631Z</time>
      </trkpt>
      <trkpt lat="42.90369" lon="-0.88519">
        <ele>895.62</ele>
        <time>2024-05-29T14:25:34.898Z</time>
      </trkpt>
      <trkpt lat="42.90351" lon="-0.88532">
        <ele>895.39</ele>
        <time>2024-05-29T14:25:38.169Z</time>
      </trkpt>
      <trkpt lat="42.90333" lon="-0.88548">
        <ele>895.23</ele>
        <time>2024-05-29T14:25:41.443Z</time>
      </trkpt>
      <trkpt lat="42.90324" lon="-0.88558">
        <ele>895.13</ele>
        <time>2024-05-29T14:25:44.719Z</time>
      </trkpt>
      <trkpt lat="42.9031" lon="-0.88587">
        <ele>895.03</ele>
        <time>2024-05-29T14:25:47.999Z</time>
      </trkpt>
      <trkpt lat="42.90303" lon="-0.88618">
        <ele>894.97</ele>
        <time>2024-05-29T14:25:51.283Z</time>
      </trkpt>
      <trkpt lat="42.90301" lon="-0.88636">
        <ele>894.95</ele>
        <time>2024-05-29T14:25:54.569Z</time>
      </trkpt>
      <trkpt lat="42.90299" lon="-0.88717">
        <ele>895.08</ele>
        <time>2024-05-29T14:25:57.865Z</time>
      </trkpt>
      <trkpt lat="42.90297" lon="-0.88734">
        <ele>895.15</ele>
        <time>2024-05-29T14:26:01.163Z</time>
      </trkpt>
      <trkpt lat="42.90294" lon="-0.8875">
        <ele>895.19</ele>
        <time>2024-05-29T14:26:04.463Z</time>
      </trkpt>
      <trkpt lat="42.9029" lon="-0.88762">
        <ele>895.18</ele>
        <time>2024-05-29T14:26:07.764Z</time>
      </trkpt>
      <trkpt lat="42.9029" lon="-0.88762">
        <ele>895.2</ele>
        <time>2024-05-29T14:26:11.065Z</time>
      </trkpt>
      <trkpt lat="42.90271" lon="-0.88794">
        <ele>895.34</ele>
        <time>2024-05-29T14:26:14.371Z</time>
      </trkpt>
      <trkpt lat="42.90223" lon="-0.88855">
        <ele>895.44</ele>
        <time>2024-05-29T14:26:17.687Z</time>
      </trkpt>
      <trkpt lat="42.90202" lon="-0.8889">
        <ele>895.47</ele>
        <time>2024-05-29T14:26:21.009Z</time>
      </trkpt>
      <trkpt lat="42.90178" lon="-0.88936">
        <ele>895.14</ele>
        <time>2024-05-29T14:26:24.337Z</time>
      </trkpt>
      <trkpt lat="42.90169" lon="-0.88952">
        <ele>894.96</ele>
        <time>2024-05-29T14:26:27.668Z</time>
      </trkpt>
      <trkpt lat="42.90159" lon="-0.88962">
        <ele>894.65</ele>
        <time>2024-05-29T14:26:31.001Z</time>
      </trkpt>
      <trkpt lat="42.90149" lon="-0.88969">
        <ele>894.21</ele>
        <time>2024-05-29T14:26:34.336Z</time>
      </trkpt>
      <trkpt lat="42.90134" lon="-0.88975">
        <ele>893.68</ele>
        <time>2024-05-29T14:26:37.673Z</time>
      </trkpt>
      <trkpt lat="42.90117" lon="-0.88979">
        <ele>893.07</ele>
        <time>2024-05-29T14:26:41.013Z</time>
      </trkpt>
      <trkpt lat="42.9008" lon="-0.88981">
        <ele>892.28</ele>
        <time>2024-05-29T14:26:44.359Z</time>
      </trkpt>
      <trkpt lat="42.90055" lon="-0.88987">
        <ele>891.43</ele>
        <time>2024-05-29T14:26:47.709Z</time>
      </trkpt>
      <trkpt lat="42.90042" lon="-0.88995">
        <ele>890.65</ele>
        <time>2024-05-29T14:26:51.061Z</time>
      </trkpt>
      <trkpt lat="42.9003" lon="-0.89006">
        <ele>889.9</ele>
        <time>2024-05-29T14:26:54.415Z</time>
      </trkpt>
      <trkpt lat="42.89982" lon="-0.89061">
        <ele>888.93</ele>
        <time>2024-05-29T14:26:57.779Z</time>
      </trkpt>
      <trkpt lat="42.89975" lon="-0.89068">
        <ele>888.27</ele>
        <time>2024-05-29T14:27:01.145Z</time>
      </trkpt>
      <trkpt lat="42.89975" lon="-0.89068">
        <ele>887.66</ele>
        <time>2024-05-29T14:27:04.511Z</time>
      </trkpt>
      <trkpt lat="42.89963" lon="-0.89076">
        <ele>887.15</ele>
        <time>2024-05-29T14:27:07.879Z</time>
      </trkpt>
      <trkpt lat="42.89944" lon="-0.89083">
        <ele>886.55</ele>
        <time>2024-05-29T14:27:11.250Z</time>
      </trkpt>
      <trkpt lat="42.89935" lon="-0.89085">
        <ele>886.03</ele>
        <time>2024-05-29T14:27:14.623Z</time>
      </trkpt>
      <trkpt lat="42.89917" lon="-0.89084">
        <ele>885.53</ele>
        <time>2024-05-29T14:27:17.999Z</time>
      </trkpt>
      <trkpt lat="42.89917" lon="-0.89084">
        <ele>885.21</ele>
        <time>2024-05-29T14:27:21.375Z</time>
      </trkpt>
      <trkpt lat="42.89896" lon="-0.89081">
        <ele>884.99</ele>
        <time>2024-05-29T14:27:24.754Z</time>
      </trkpt>
      <trkpt lat="42.89896" lon="-0.89081">
        <ele>884.78</ele>
        <time>2024-05-29T14:27:28.133Z</time>
      </trkpt>
      <trkpt lat="42.89851" lon="-0.89063">
        <ele>884.95</ele>
        <time>2024-05-29T14:27:31.519Z</time>
      </trkpt>
      <trkpt lat="42.89821" lon="-0.89048">
        <ele>884.69</ele>
        <time>2024-05-29T14:27:34.910Z</time>
      </trkpt>
      <trkpt lat="42.89806" lon="-0.89038">
        <ele>884.4</ele>
        <time>2024-05-29T14:27:38.304Z</time>
      </trkpt>
      <trkpt lat="42.89735" lon="-0.88973">
        <ele>884.49</ele>
        <time>2024-05-29T14:27:41.712Z</time>
      </trkpt>
      <trkpt lat="42.89715" lon="-0.88964">
        <ele>884.41</ele>
        <time>2024-05-29T14:27:45.123Z</time>
      </trkpt>
      <trkpt lat="42.89694" lon="-0.8896">
        <ele>884.14</ele>
        <time>2024-05-29T14:27:48.538Z</time>
      </trkpt>
      <trkpt lat="42.8967" lon="-0.88969">
        <ele>883.67</ele>
        <time>2024-05-29T14:27:51.957Z</time>
      </trkpt>
      <trkpt lat="42.89654" lon="-0.88979">
        <ele>883.08</ele>
        <time>2024-05-29T14:27:55.378Z</time>
      </trkpt>
      <trkpt lat="42.89555" lon="-0.89052">
        <ele>881.96</ele>
        <time>2024-05-29T14:27:58.817Z</time>
      </trkpt>
      <trkpt lat="42.89534" lon="-0.89073">
        <ele>881.46</ele>
        <time>2024-05-29T14:28:02.261Z</time>
      </trkpt>
      <trkpt lat="42.89452" lon="-0.89168">
        <ele>881.39</ele>
        <time>2024-05-29T14:28:05.722Z</time>
      </trkpt>
      <trkpt lat="42.89443" lon="-0.89177">
        <ele>880.92</ele>
        <time>2024-05-29T14:28:09.185Z</time>
      </trkpt>
      <trkpt lat="42.89431" lon="-0.89185">
        <ele>880.46</ele>
        <time>2024-05-29T14:28:12.650Z</time>
      </trkpt>
      <trkpt lat="42.89418" lon="-0.89189">
        <ele>879.93</ele>
        <time>2024-05-29T14:28:16.117Z</time>
      </trkpt>
      <trkpt lat="42.89403" lon="-0.89189">
        <ele>879.38</ele>
        <time>2024-05-29T14:28:19.586Z</time>
      </trkpt>
      <trkpt lat="42.89357" lon="-0.89183">
        <ele>878.74</ele>
        <time>2024-05-29T14:28:23.063Z</time>
      </trkpt>
      <trkpt lat="42.89337" lon="-0.89185">
        <ele>877.96</ele>
        <time>2024-05-29T14:28:26.543Z</time>
      </trkpt>
      <trkpt lat="42.89319" lon="-0.8919">
        <ele>876.95</ele>
        <time>2024-05-29T14:28:30.026Z</time>
      </trkpt>
      <trkpt lat="42.89313" lon="-0.89194">
        <ele>876.16</ele>
        <time>2024-05-29T14:28:33.510Z</time>
      </trkpt>
      <trkpt lat="42.89313" lon="-0.89194">
        <ele>875.52</ele>
        <time>2024-05-29T14:28:36.994Z</time>
      </trkpt>
      <trkpt lat="42.89309" lon="-0.89196">
        <ele>874.85</ele>
        <time>2024-05-29T14:28:40.479Z</time>
      </trkpt>
      <trkpt lat="42.89309" lon="-0.89196">
        <ele>874.25</ele>
        <time>2024-05-29T14:28:43.964Z</time>
      </trkpt>
      <trkpt lat="42.89301" lon="-0.89203">
        <ele>873.56</ele>
        <time>2024-05-29T14:28:47.450Z</time>
      </trkpt>
      <trkpt lat="42.8928" lon="-0.89225">
        <ele>872.92</ele>
        <time>2024-05-29T14:28:50.940Z</time>
      </trkpt>
      <trkpt lat="42.8928" lon="-0.89225">
        <ele>872.46</ele>
        <time>2024-05-29T14:28:54.430Z</time>
      </trkpt>
      <trkpt lat="42.89177" lon="-0.89347">
        <ele>872.23</ele>
        <time>2024-05-29T14:28:57.942Z</time>
      </trkpt>
      <trkpt lat="42.89163" lon="-0.89359">
        <ele>871.92</ele>
        <time>2024-05-29T14:29:01.457Z</time>
      </trkpt>
      <trkpt lat="42.89152" lon="-0.89367">
        <ele>871.57</ele>
        <time>2024-05-29T14:29:04.974Z</time>
      </trkpt>
      <trkpt lat="42.89136" lon="-0.89373">
        <ele>871.28</ele>
        <time>2024-05-29T14:29:08.494Z</time>
      </trkpt>
      <trkpt lat="42.8912" lon="-0.89374">
        <ele>870.93</ele>
        <time>2024-05-29T14:29:12.016Z</time>
      </trkpt>
      <trkpt lat="42.89104" lon="-0.89373">
        <ele>870.63</ele>
        <time>2024-05-29T14:29:15.541Z</time>
      </trkpt>
      <trkpt lat="42.89008" lon="-0.89352">
        <ele>870.2</ele>
        <time>2024-05-29T14:29:19.081Z</time>
      </trkpt>
      <trkpt lat="42.88982" lon="-0.89352">
        <ele>869.83</ele>
        <time>2024-05-29T14:29:22.625Z</time>
      </trkpt>
      <trkpt lat="42.88962" lon="-0.89358">
        <ele>869.57</ele>
        <time>2024-05-29T14:29:26.173Z</time>
      </trkpt>
      <trkpt lat="42.88943" lon="-0.89372">
        <ele>869.41</ele>
        <time>2024-05-29T14:29:29.724Z</time>
      </trkpt>
      <trkpt lat="42.88936" lon="-0.89383">
        <ele>869.37</ele>
        <time>2024-05-29T14:29:33.277Z</time>
      </trkpt>
      <trkpt lat="42.88928" lon="-0.89396">
        <ele>869.39</ele>
        <time>2024-05-29T14:29:36.832Z</time>
      </trkpt>
      <trkpt lat="42.8891" lon="-0.89441">
        <ele>869.4</ele>
        <time>2024-05-29T14:29:40.393Z</time>
      </trkpt>
      <trkpt lat="42.88904" lon="-0.89451">
        <ele>869.44</ele>
        <time>2024-05-29T14:29:43.955Z</time>
      </trkpt>
      <trkpt lat="42.88889" lon="-0.89468">
        <ele>869.66</ele>
        <time>2024-05-29T14:29:47.520Z</time>
      </trkpt>
      <trkpt lat="42.88842" lon="-0.89501">
        <ele>870.11</ele>
        <time>2024-05-29T14:29:51.094Z</time>
      </trkpt>
      <trkpt lat="42.88825" lon="-0.89511">
        <ele>869.95</ele>
        <time>2024-05-29T14:29:54.671Z</time>
      </trkpt>
      <trkpt lat="42.88793" lon="-0.89527">
        <ele>869.86</ele>
        <time>2024-05-29T14:29:58.253Z</time>
      </trkpt>
      <trkpt lat="42.8878" lon="-0.89534">
        <ele>869.65</ele>
        <time>2024-05-29T14:30:01.837Z</time>
      </trkpt>
      <trkpt lat="42.88746" lon="-0.89559">
        <ele>869.33</ele>
        <time>2024-05-29T14:30:05.428Z</time>
      </trkpt>
      <trkpt lat="42.88692" lon="-0.89586">
        <ele>868.65</ele>
        <time>2024-05-29T14:30:09.028Z</time>
      </trkpt>
      <trkpt lat="42.8868" lon="-0.89595">
        <ele>868</ele>
        <time>2024-05-29T14:30:12.630Z</time>
      </trkpt>
      <trkpt lat="42.88665" lon="-0.89609">
        <ele>867.32</ele>
        <time>2024-05-29T14:30:16.235Z</time>
      </trkpt>
      <trkpt lat="42.88655" lon="-0.89624">
        <ele>866.62</ele>
        <time>2024-05-29T14:30:19.842Z</time>
      </trkpt>
      <trkpt lat="42.88644" lon="-0.89653">
        <ele>865.79</ele>
        <time>2024-05-29T14:30:23.453Z</time>
      </trkpt>
      <trkpt lat="42.88627" lon="-0.89711">
        <ele>864.73</ele>
        <time>2024-05-29T14:30:27.072Z</time>
      </trkpt>
      <trkpt lat="42.88614" lon="-0.89739">
        <ele>863.83</ele>
        <time>2024-05-29T14:30:30.694Z</time>
      </trkpt>
      <trkpt lat="42.88592" lon="-0.89782">
        <ele>863</ele>
        <time>2024-05-29T14:30:34.323Z</time>
      </trkpt>
      <trkpt lat="42.8857" lon="-0.89818">
        <ele>862.17</ele>
        <time>2024-05-29T14:30:37.957Z</time>
      </trkpt>
      <trkpt lat="42.88559" lon="-0.89832">
        <ele>861.23</ele>
        <time>2024-05-29T14:30:41.593Z</time>
      </trkpt>
      <trkpt lat="42.88549" lon="-0.89844">
        <ele>860.25</ele>
        <time>2024-05-29T14:30:45.232Z</time>
      </trkpt>
      <trkpt lat="42.88539" lon="-0.89852">
        <ele>859.22</ele>
        <time>2024-05-29T14:30:48.872Z</time>
      </trkpt>
      <trkpt lat="42.88527" lon="-0.89857">
        <ele>858.2</ele>
        <time>2024-05-29T14:30:52.514Z</time>
      </trkpt>
      <trkpt lat="42.885" lon="-0.89858">
        <ele>857.08</ele>
        <time>2024-05-29T14:30:56.161Z</time>
      </trkpt>
      <trkpt lat="42.88475" lon="-0.89854">
        <ele>855.97</ele>
        <time>2024-05-29T14:30:59.812Z</time>
      </trkpt>
      <trkpt lat="42.88465" lon="-0.8985">
        <ele>854.87</ele>
        <time>2024-05-29T14:31:03.465Z</time>
      </trkpt>
      <trkpt lat="42.88454" lon="-0.89843">
        <ele>853.72</ele>
        <time>2024-05-29T14:31:07.119Z</time>
      </trkpt>
      <trkpt lat="42.88446" lon="-0.89835">
        <ele>852.54</ele>
        <time>2024-05-29T14:31:10.775Z</time>
      </trkpt>
      <trkpt lat="42.88402" lon="-0.89777">
        <ele>851.09</ele>
        <time>2024-05-29T14:31:14.441Z</time>
      </trkpt>
      <trkpt lat="42.88391" lon="-0.89768">
        <ele>849.92</ele>
        <time>2024-05-29T14:31:18.109Z</time>
      </trkpt>
      <trkpt lat="42.8838" lon="-0.89762">
        <ele>848.75</ele>
        <time>2024-05-29T14:31:21.779Z</time>
      </trkpt>
      <trkpt lat="42.88361" lon="-0.89753">
        <ele>847.57</ele>
        <time>2024-05-29T14:31:25.452Z</time>
      </trkpt>
      <trkpt lat="42.88346" lon="-0.89749">
        <ele>846.48</ele>
        <time>2024-05-29T14:31:29.127Z</time>
      </trkpt>
      <trkpt lat="42.88328" lon="-0.89748">
        <ele>845.39</ele>
        <time>2024-05-29T14:31:32.805Z</time>
      </trkpt>
      <trkpt lat="42.88301" lon="-0.8975">
        <ele>844.39</ele>
        <time>2024-05-29T14:31:36.488Z</time>
      </trkpt>
      <trkpt lat="42.88288" lon="-0.89755">
        <ele>843.51</ele>
        <time>2024-05-29T14:31:40.173Z</time>
      </trkpt>
      <trkpt lat="42.88277" lon="-0.89761">
        <ele>842.63</ele>
        <time>2024-05-29T14:31:43.860Z</time>
      </trkpt>
      <trkpt lat="42.88264" lon="-0.8977">
        <ele>841.84</ele>
        <time>2024-05-29T14:31:47.549Z</time>
      </trkpt>
      <trkpt lat="42.88213" lon="-0.89817">
        <ele>841.14</ele>
        <time>2024-05-29T14:31:51.248Z</time>
      </trkpt>
      <trkpt lat="42.88182" lon="-0.89848">
        <ele>840.77</ele>
        <time>2024-05-29T14:31:54.953Z</time>
      </trkpt>
      <trkpt lat="42.88154" lon="-0.8988">
        <ele>840.52</ele>
        <time>2024-05-29T14:31:58.664Z</time>
      </trkpt>
      <trkpt lat="42.88154" lon="-0.8988">
        <ele>840.43</ele>
        <time>2024-05-29T14:32:02.375Z</time>
      </trkpt>
      <trkpt lat="42.88103" lon="-0.89942">
        <ele>840.35</ele>
        <time>2024-05-29T14:32:06.097Z</time>
      </trkpt>
      <trkpt lat="42.88026" lon="-0.90057">
        <ele>840.5</ele>
        <time>2024-05-29T14:32:09.837Z</time>
      </trkpt>
      <trkpt lat="42.87993" lon="-0.90094">
        <ele>840.82</ele>
        <time>2024-05-29T14:32:13.584Z</time>
      </trkpt>
      <trkpt lat="42.8797" lon="-0.90116">
        <ele>841.65</ele>
        <time>2024-05-29T14:32:17.335Z</time>
      </trkpt>
      <trkpt lat="42.87912" lon="-0.90161">
        <ele>842.51</ele>
        <time>2024-05-29T14:32:21.097Z</time>
      </trkpt>
      <trkpt lat="42.87889" lon="-0.90177">
        <ele>841.71</ele>
        <time>2024-05-29T14:32:24.863Z</time>
      </trkpt>
      <trkpt lat="42.87856" lon="-0.90196">
        <ele>840.68</ele>
        <time>2024-05-29T14:32:28.635Z</time>
      </trkpt>
      <trkpt lat="42.87807" lon="-0.90226">
        <ele>840.1</ele>
        <time>2024-05-29T14:32:32.416Z</time>
      </trkpt>
      <trkpt lat="42.8779" lon="-0.9024">
        <ele>839.38</ele>
        <time>2024-05-29T14:32:36.200Z</time>
      </trkpt>
      <trkpt lat="42.87758" lon="-0.90276">
        <ele>838.53</ele>
        <time>2024-05-29T14:32:39.990Z</time>
      </trkpt>
      <trkpt lat="42.87725" lon="-0.90318">
        <ele>837.86</ele>
        <time>2024-05-29T14:32:43.788Z</time>
      </trkpt>
      <trkpt lat="42.87698" lon="-0.9034">
        <ele>837.14</ele>
        <time>2024-05-29T14:32:47.591Z</time>
      </trkpt>
      <trkpt lat="42.87671" lon="-0.90356">
        <ele>836.51</ele>
        <time>2024-05-29T14:32:51.398Z</time>
      </trkpt>
      <trkpt lat="42.87643" lon="-0.90368">
        <ele>835.99</ele>
        <time>2024-05-29T14:32:55.210Z</time>
      </trkpt>
      <trkpt lat="42.87602" lon="-0.90412">
        <ele>834.84</ele>
        <time>2024-05-29T14:32:59.030Z</time>
      </trkpt>
      <trkpt lat="42.87588" lon="-0.9043">
        <ele>833.57</ele>
        <time>2024-05-29T14:33:02.854Z</time>
      </trkpt>
      <trkpt lat="42.87588" lon="-0.90431">
        <ele>833.57</ele>
        <time>2024-05-29T14:33:06.678Z</time>
      </trkpt>
      <trkpt lat="42.87588" lon="-0.90431">
        <ele>830.48</ele>
        <time>2024-05-29T14:33:10.502Z</time>
      </trkpt>
      <trkpt lat="42.87517" lon="-0.90524">
        <ele>830.25</ele>
        <time>2024-05-29T14:33:14.341Z</time>
      </trkpt>
      <trkpt lat="42.87449" lon="-0.90574">
        <ele>830.7</ele>
        <time>2024-05-29T14:33:18.193Z</time>
      </trkpt>
      <trkpt lat="42.87438" lon="-0.90586">
        <ele>831.21</ele>
        <time>2024-05-29T14:33:22.047Z</time>
      </trkpt>
      <trkpt lat="42.87419" lon="-0.90624">
        <ele>831.5</ele>
        <time>2024-05-29T14:33:25.906Z</time>
      </trkpt>
      <trkpt lat="42.87395" lon="-0.90708">
        <ele>831.13</ele>
        <time>2024-05-29T14:33:29.776Z</time>
      </trkpt>
      <trkpt lat="42.87385" lon="-0.90731">
        <ele>831.32</ele>
        <time>2024-05-29T14:33:33.649Z</time>
      </trkpt>
      <trkpt lat="42.87371" lon="-0.90743">
        <ele>831.8</ele>
        <time>2024-05-29T14:33:37.525Z</time>
      </trkpt>
      <trkpt lat="42.87347" lon="-0.90755">
        <ele>832.29</ele>
        <time>2024-05-29T14:33:41.405Z</time>
      </trkpt>
      <trkpt lat="42.873" lon="-0.9076">
        <ele>833.67</ele>
        <time>2024-05-29T14:33:45.292Z</time>
      </trkpt>
      <trkpt lat="42.87286" lon="-0.90766">
        <ele>835.21</ele>
        <time>2024-05-29T14:33:49.182Z</time>
      </trkpt>
      <trkpt lat="42.87257" lon="-0.90787">
        <ele>837.3</ele>
        <time>2024-05-29T14:33:53.077Z</time>
      </trkpt>
      <trkpt lat="42.87224" lon="-0.90827">
        <ele>839.08</ele>
        <time>2024-05-29T14:33:56.979Z</time>
      </trkpt>
      <trkpt lat="42.87176" lon="-0.90856">
        <ele>841.39</ele>
        <time>2024-05-29T14:34:00.889Z</time>
      </trkpt>
      <trkpt lat="42.87166" lon="-0.90866">
        <ele>842.44</ele>
        <time>2024-05-29T14:34:04.802Z</time>
      </trkpt>
      <trkpt lat="42.87155" lon="-0.90867">
        <ele>842.77</ele>
        <time>2024-05-29T14:34:08.716Z</time>
      </trkpt>
      <trkpt lat="42.87137" lon="-0.90846">
        <ele>843.51</ele>
        <time>2024-05-29T14:34:12.634Z</time>
      </trkpt>
      <trkpt lat="42.87132" lon="-0.90843">
        <ele>843.69</ele>
        <time>2024-05-29T14:34:16.553Z</time>
      </trkpt>
      <trkpt lat="42.87132" lon="-0.90843">
        <ele>843.45</ele>
        <time>2024-05-29T14:34:20.472Z</time>
      </trkpt>
      <trkpt lat="42.87118" lon="-0.90842">
        <ele>843</ele>
        <time>2024-05-29T14:34:24.393Z</time>
      </trkpt>
      <trkpt lat="42.87103" lon="-0.90844">
        <ele>842.48</ele>
        <time>2024-05-29T14:34:28.316Z</time>
      </trkpt>
      <trkpt lat="42.87079" lon="-0.90854">
        <ele>841.46</ele>
        <time>2024-05-29T14:34:32.244Z</time>
      </trkpt>
      <trkpt lat="42.8705" lon="-0.90873">
        <ele>839.7</ele>
        <time>2024-05-29T14:34:36.177Z</time>
      </trkpt>
      <trkpt lat="42.87027" lon="-0.90892">
        <ele>837.32</ele>
        <time>2024-05-29T14:34:40.114Z</time>
      </trkpt>
      <trkpt lat="42.87011" lon="-0.90908">
        <ele>834.7</ele>
        <time>2024-05-29T14:34:44.054Z</time>
      </trkpt>
      <trkpt lat="42.87011" lon="-0.90908">
        <ele>832.36</ele>
        <time>2024-05-29T14:34:47.994Z</time>
      </trkpt>
      <trkpt lat="42.87009" lon="-0.9091">
        <ele>829.97</ele>
        <time>2024-05-29T14:34:51.935Z</time>
      </trkpt>
      <trkpt lat="42.87009" lon="-0.9091">
        <ele>827.61</ele>
        <time>2024-05-29T14:34:55.876Z</time>
      </trkpt>
      <trkpt lat="42.86987" lon="-0.90951">
        <ele>824.62</ele>
        <time>2024-05-29T14:34:59.823Z</time>
      </trkpt>
      <trkpt lat="42.86987" lon="-0.90951">
        <ele>822.21</ele>
        <time>2024-05-29T14:35:03.770Z</time>
      </trkpt>
      <trkpt lat="42.8697" lon="-0.90984">
        <ele>819.71</ele>
        <time>2024-05-29T14:35:07.721Z</time>
      </trkpt>
      <trkpt lat="42.86961" lon="-0.91007">
        <ele>817.44</ele>
        <time>2024-05-29T14:35:11.675Z</time>
      </trkpt>
      <trkpt lat="42.86922" lon="-0.91123">
        <ele>815.23</ele>
        <time>2024-05-29T14:35:15.644Z</time>
      </trkpt>
      <trkpt lat="42.86917" lon="-0.91163">
        <ele>813.29</ele>
        <time>2024-05-29T14:35:19.618Z</time>
      </trkpt>
      <trkpt lat="42.86897" lon="-0.91446">
        <ele>810.58</ele>
        <time>2024-05-29T14:35:23.626Z</time>
      </trkpt>
      <trkpt lat="42.86895" lon="-0.91464">
        <ele>808.93</ele>
        <time>2024-05-29T14:35:27.636Z</time>
      </trkpt>
      <trkpt lat="42.86892" lon="-0.91477">
        <ele>807.59</ele>
        <time>2024-05-29T14:35:31.647Z</time>
      </trkpt>
      <trkpt lat="42.86887" lon="-0.91485">
        <ele>806.54</ele>
        <time>2024-05-29T14:35:35.660Z</time>
      </trkpt>
      <trkpt lat="42.86882" lon="-0.91488">
        <ele>805.75</ele>
        <time>2024-05-29T14:35:39.673Z</time>
      </trkpt>
      <trkpt lat="42.8686" lon="-0.91491">
        <ele>805.37</ele>
        <time>2024-05-29T14:35:43.690Z</time>
      </trkpt>
      <trkpt lat="42.86855" lon="-0.91493">
        <ele>805.19</ele>
        <time>2024-05-29T14:35:47.708Z</time>
      </trkpt>
      <trkpt lat="42.86848" lon="-0.915">
        <ele>805.18</ele>
        <time>2024-05-29T14:35:51.727Z</time>
      </trkpt>
      <trkpt lat="42.86811" lon="-0.91579">
        <ele>805.18</ele>
        <time>2024-05-29T14:35:55.757Z</time>
      </trkpt>
      <trkpt lat="42.86793" lon="-0.91604">
        <ele>805.42</ele>
        <time>2024-05-29T14:35:59.791Z</time>
      </trkpt>
      <trkpt lat="42.86784" lon="-0.91615">
        <ele>805.79</ele>
        <time>2024-05-29T14:36:03.827Z</time>
      </trkpt>
      <trkpt lat="42.86757" lon="-0.91637">
        <ele>806.28</ele>
        <time>2024-05-29T14:36:07.868Z</time>
      </trkpt>
      <trkpt lat="42.86622" lon="-0.91723">
        <ele>807.64</ele>
        <time>2024-05-29T14:36:11.933Z</time>
      </trkpt>
      <trkpt lat="42.86597" lon="-0.91743">
        <ele>808.32</ele>
        <time>2024-05-29T14:36:16.003Z</time>
      </trkpt>
      <trkpt lat="42.86586" lon="-0.91754">
        <ele>808.83</ele>
        <time>2024-05-29T14:36:20.075Z</time>
      </trkpt>
      <trkpt lat="42.86565" lon="-0.91783">
        <ele>808.93</ele>
        <time>2024-05-29T14:36:24.152Z</time>
      </trkpt>
      <trkpt lat="42.86529" lon="-0.91821">
        <ele>809.05</ele>
        <time>2024-05-29T14:36:28.236Z</time>
      </trkpt>
      <trkpt lat="42.86513" lon="-0.9184">
        <ele>809.49</ele>
        <time>2024-05-29T14:36:32.323Z</time>
      </trkpt>
      <trkpt lat="42.86477" lon="-0.91895">
        <ele>809.68</ele>
        <time>2024-05-29T14:36:36.419Z</time>
      </trkpt>
      <trkpt lat="42.86466" lon="-0.91909">
        <ele>809.76</ele>
        <time>2024-05-29T14:36:40.517Z</time>
      </trkpt>
      <trkpt lat="42.86382" lon="-0.92">
        <ele>809.91</ele>
        <time>2024-05-29T14:36:44.633Z</time>
      </trkpt>
      <trkpt lat="42.86376" lon="-0.92009">
        <ele>809.87</ele>
        <time>2024-05-29T14:36:48.750Z</time>
      </trkpt>
      <trkpt lat="42.86366" lon="-0.9203">
        <ele>809.66</ele>
        <time>2024-05-29T14:36:52.870Z</time>
      </trkpt>
      <trkpt lat="42.86349" lon="-0.9211">
        <ele>808.84</ele>
        <time>2024-05-29T14:36:57.000Z</time>
      </trkpt>
      <trkpt lat="42.86342" lon="-0.92127">
        <ele>808.32</ele>
        <time>2024-05-29T14:37:01.132Z</time>
      </trkpt>
      <trkpt lat="42.86331" lon="-0.9214">
        <ele>807.75</ele>
        <time>2024-05-29T14:37:05.266Z</time>
      </trkpt>
      <trkpt lat="42.86285" lon="-0.92161">
        <ele>807.28</ele>
        <time>2024-05-29T14:37:09.408Z</time>
      </trkpt>
      <trkpt lat="42.86275" lon="-0.92174">
        <ele>806.5</ele>
        <time>2024-05-29T14:37:13.552Z</time>
      </trkpt>
      <trkpt lat="42.86328" lon="-0.92159">
        <ele>805.33</ele>
        <time>2024-05-29T14:37:17.705Z</time>
      </trkpt>
      <trkpt lat="42.86345" lon="-0.9215">
        <ele>804.28</ele>
        <time>2024-05-29T14:37:21.861Z</time>
      </trkpt>
      <trkpt lat="42.86352" lon="-0.92145">
        <ele>803.21</ele>
        <time>2024-05-29T14:37:26.018Z</time>
      </trkpt>
      <trkpt lat="42.86359" lon="-0.92132">
        <ele>802.17</ele>
        <time>2024-05-29T14:37:30.177Z</time>
      </trkpt>
      <trkpt lat="42.86366" lon="-0.92081">
        <ele>801.27</ele>
        <time>2024-05-29T14:37:34.342Z</time>
      </trkpt>
      <trkpt lat="42.8637" lon="-0.92071">
        <ele>800.09</ele>
        <time>2024-05-29T14:37:38.509Z</time>
      </trkpt>
      <trkpt lat="42.86373" lon="-0.92066">
        <ele>798.85</ele>
        <time>2024-05-29T14:37:42.676Z</time>
      </trkpt>
      <trkpt lat="42.86377" lon="-0.92064">
        <ele>797.52</ele>
        <time>2024-05-29T14:37:46.844Z</time>
      </trkpt>
      <trkpt lat="42.86377" lon="-0.92064">
        <ele>796.25</ele>
        <time>2024-05-29T14:37:51.012Z</time>
      </trkpt>
      <trkpt lat="42.86381" lon="-0.92065">
        <ele>794.84</ele>
        <time>2024-05-29T14:37:55.181Z</time>
      </trkpt>
      <trkpt lat="42.86385" lon="-0.9207">
        <ele>793.44</ele>
        <time>2024-05-29T14:37:59.350Z</time>
      </trkpt>
      <trkpt lat="42.86387" lon="-0.92075">
        <ele>792.1</ele>
        <time>2024-05-29T14:38:03.520Z</time>
      </trkpt>
      <trkpt lat="42.86387" lon="-0.92082">
        <ele>790.84</ele>
        <time>2024-05-29T14:38:07.691Z</time>
      </trkpt>
      <trkpt lat="42.86369" lon="-0.92177">
        <ele>789.42</ele>
        <time>2024-05-29T14:38:11.874Z</time>
      </trkpt>
      <trkpt lat="42.86366" lon="-0.922">
        <ele>788.11</ele>
        <time>2024-05-29T14:38:16.059Z</time>
      </trkpt>
      <trkpt lat="42.86375" lon="-0.92218">
        <ele>786.83</ele>
        <time>2024-05-29T14:38:20.247Z</time>
      </trkpt>
      <trkpt lat="42.86393" lon="-0.92243">
        <ele>785.71</ele>
        <time>2024-05-29T14:38:24.439Z</time>
      </trkpt>
      <trkpt lat="42.86401" lon="-0.92254">
        <ele>784.88</ele>
        <time>2024-05-29T14:38:28.633Z</time>
      </trkpt>
      <trkpt lat="42.8641" lon="-0.92267">
        <ele>784.28</ele>
        <time>2024-05-29T14:38:32.829Z</time>
      </trkpt>
      <trkpt lat="42.86411" lon="-0.9227">
        <ele>783.83</ele>
        <time>2024-05-29T14:38:37.025Z</time>
      </trkpt>
      <trkpt lat="42.86433" lon="-0.92308">
        <ele>783.58</ele>
        <time>2024-05-29T14:38:41.227Z</time>
      </trkpt>
      <trkpt lat="42.86449" lon="-0.92322">
        <ele>783.5</ele>
        <time>2024-05-29T14:38:45.432Z</time>
      </trkpt>
      <trkpt lat="42.86478" lon="-0.92339">
        <ele>783.67</ele>
        <time>2024-05-29T14:38:49.642Z</time>
      </trkpt>
      <trkpt lat="42.8649" lon="-0.9235">
        <ele>783.94</ele>
        <time>2024-05-29T14:38:53.854Z</time>
      </trkpt>
      <trkpt lat="42.86498" lon="-0.92361">
        <ele>784.36</ele>
        <time>2024-05-29T14:38:58.068Z</time>
      </trkpt>
      <trkpt lat="42.86509" lon="-0.92383">
        <ele>784.97</ele>
        <time>2024-05-29T14:39:02.285Z</time>
      </trkpt>
      <trkpt lat="42.86584" lon="-0.92562">
        <ele>785.57</ele>
        <time>2024-05-29T14:39:06.527Z</time>
      </trkpt>
      <trkpt lat="42.86608" lon="-0.92614">
        <ele>786.26</ele>
        <time>2024-05-29T14:39:10.776Z</time>
      </trkpt>
      <trkpt lat="42.8662" lon="-0.92629">
        <ele>787.2</ele>
        <time>2024-05-29T14:39:15.027Z</time>
      </trkpt>
      <trkpt lat="42.86626" lon="-0.92634">
        <ele>788.3</ele>
        <time>2024-05-29T14:39:19.279Z</time>
      </trkpt>
      <trkpt lat="42.8664" lon="-0.92638">
        <ele>789.58</ele>
        <time>2024-05-29T14:39:23.534Z</time>
      </trkpt>
      <trkpt lat="42.8671" lon="-0.92652">
        <ele>791.25</ele>
        <time>2024-05-29T14:39:27.800Z</time>
      </trkpt>
      <trkpt lat="42.86722" lon="-0.92652">
        <ele>792.62</ele>
        <time>2024-05-29T14:39:32.068Z</time>
      </trkpt>
      <trkpt lat="42.86792" lon="-0.92645">
        <ele>794.14</ele>
        <time>2024-05-29T14:39:36.347Z</time>
      </trkpt>
      <trkpt lat="42.86828" lon="-0.92637">
        <ele>795.44</ele>
        <time>2024-05-29T14:39:40.632Z</time>
      </trkpt>
      <trkpt lat="42.86828" lon="-0.92637">
        <ele>796.75</ele>
        <time>2024-05-29T14:39:44.917Z</time>
      </trkpt>
      <trkpt lat="42.86863" lon="-0.92627">
        <ele>798.16</ele>
        <time>2024-05-29T14:39:49.208Z</time>
      </trkpt>
      <trkpt lat="42.86879" lon="-0.92621">
        <ele>799.42</ele>
        <time>2024-05-29T14:39:53.501Z</time>
      </trkpt>
      <trkpt lat="42.86916" lon="-0.92586">
        <ele>801.01</ele>
        <time>2024-05-29T14:39:57.802Z</time>
      </trkpt>
      <trkpt lat="42.86948" lon="-0.92559">
        <ele>802.15</ele>
        <time>2024-05-29T14:40:02.109Z</time>
      </trkpt>
      <trkpt lat="42.86958" lon="-0.92552">
        <ele>803.15</ele>
        <time>2024-05-29T14:40:06.417Z</time>
      </trkpt>
      <trkpt lat="42.86967" lon="-0.92548">
        <ele>804.15</ele>
        <time>2024-05-29T14:40:10.727Z</time>
      </trkpt>
      <trkpt lat="42.86996" lon="-0.92543">
        <ele>805.16</ele>
        <time>2024-05-29T14:40:15.042Z</time>
      </trkpt>
      <trkpt lat="42.87011" lon="-0.92544">
        <ele>806.03</ele>
        <time>2024-05-29T14:40:19.359Z</time>
      </trkpt>
      <trkpt lat="42.87021" lon="-0.92547">
        <ele>806.71</ele>
        <time>2024-05-29T14:40:23.678Z</time>
      </trkpt>
      <trkpt lat="42.87035" lon="-0.92557">
        <ele>807.18</ele>
        <time>2024-05-29T14:40:27.999Z</time>
      </trkpt>
      <trkpt lat="42.87046" lon="-0.9257">
        <ele>807.57</ele>
        <time>2024-05-29T14:40:32.322Z</time>
      </trkpt>
      <trkpt lat="42.87116" lon="-0.92673">
        <ele>807.45</ele>
        <time>2024-05-29T14:40:36.662Z</time>
      </trkpt>
      <trkpt lat="42.87137" lon="-0.92695">
        <ele>807.83</ele>
        <time>2024-05-29T14:40:41.006Z</time>
      </trkpt>
      <trkpt lat="42.87161" lon="-0.92717">
        <ele>808.42</ele>
        <time>2024-05-29T14:40:45.355Z</time>
      </trkpt>
      <trkpt lat="42.87201" lon="-0.92742">
        <ele>808.86</ele>
        <time>2024-05-29T14:40:49.711Z</time>
      </trkpt>
      <trkpt lat="42.87231" lon="-0.92753">
        <ele>809.66</ele>
        <time>2024-05-29T14:40:54.072Z</time>
      </trkpt>
      <trkpt lat="42.87253" lon="-0.92758">
        <ele>810.41</ele>
        <time>2024-05-29T14:40:58.436Z</time>
      </trkpt>
      <trkpt lat="42.87339" lon="-0.9277">
        <ele>811.49</ele>
        <time>2024-05-29T14:41:02.814Z</time>
      </trkpt>
      <trkpt lat="42.87383" lon="-0.92772">
        <ele>812.12</ele>
        <time>2024-05-29T14:41:07.199Z</time>
      </trkpt>
      <trkpt lat="42.87459" lon="-0.92764">
        <ele>813.01</ele>
        <time>2024-05-29T14:41:11.597Z</time>
      </trkpt>
      <trkpt lat="42.87479" lon="-0.92771">
        <ele>813.61</ele>
        <time>2024-05-29T14:41:15.998Z</time>
      </trkpt>
      <trkpt lat="42.87488" lon="-0.92776">
        <ele>814.1</ele>
        <time>2024-05-29T14:41:20.400Z</time>
      </trkpt>
      <trkpt lat="42.87508" lon="-0.92792">
        <ele>814.31</ele>
        <time>2024-05-29T14:41:24.806Z</time>
      </trkpt>
      <trkpt lat="42.87542" lon="-0.92826">
        <ele>814.88</ele>
        <time>2024-05-29T14:41:29.219Z</time>
      </trkpt>
      <trkpt lat="42.87565" lon="-0.92843">
        <ele>815.14</ele>
        <time>2024-05-29T14:41:33.636Z</time>
      </trkpt>
      <trkpt lat="42.87639" lon="-0.92872">
        <ele>816.29</ele>
        <time>2024-05-29T14:41:38.065Z</time>
      </trkpt>
      <trkpt lat="42.87685" lon="-0.929">
        <ele>817.02</ele>
        <time>2024-05-29T14:41:42.502Z</time>
      </trkpt>
      <trkpt lat="42.87778" lon="-0.92978">
        <ele>817.32</ele>
        <time>2024-05-29T14:41:46.957Z</time>
      </trkpt>
      <trkpt lat="42.87807" lon="-0.93001">
        <ele>817.7</ele>
        <time>2024-05-29T14:41:51.417Z</time>
      </trkpt>
      <trkpt lat="42.87843" lon="-0.93008">
        <ele>818.42</ele>
        <time>2024-05-29T14:41:55.883Z</time>
      </trkpt>
      <trkpt lat="42.87868" lon="-0.93018">
        <ele>819.22</ele>
        <time>2024-05-29T14:42:00.353Z</time>
      </trkpt>
      <trkpt lat="42.87901" lon="-0.93037">
        <ele>820.13</ele>
        <time>2024-05-29T14:42:04.829Z</time>
      </trkpt>
      <trkpt lat="42.87901" lon="-0.93037">
        <ele>820.74</ele>
        <time>2024-05-29T14:42:09.305Z</time>
      </trkpt>
      <trkpt lat="42.87923" lon="-0.93058">
        <ele>821.39</ele>
        <time>2024-05-29T14:42:13.785Z</time>
      </trkpt>
      <trkpt lat="42.87937" lon="-0.93078">
        <ele>821.94</ele>
        <time>2024-05-29T14:42:18.269Z</time>
      </trkpt>
      <trkpt lat="42.87945" lon="-0.93094">
        <ele>822.32</ele>
        <time>2024-05-29T14:42:22.755Z</time>
      </trkpt>
      <trkpt lat="42.87984" lon="-0.93196">
        <ele>822.58</ele>
        <time>2024-05-29T14:42:27.254Z</time>
      </trkpt>
      <trkpt lat="42.87995" lon="-0.93223">
        <ele>823.56</ele>
        <time>2024-05-29T14:42:31.757Z</time>
      </trkpt>
      <trkpt lat="42.87995" lon="-0.93223">
        <ele>824.47</ele>
        <time>2024-05-29T14:42:36.260Z</time>
      </trkpt>
      <trkpt lat="42.8802" lon="-0.93289">
        <ele>825.6</ele>
        <time>2024-05-29T14:42:40.772Z</time>
      </trkpt>
      <trkpt lat="42.88034" lon="-0.9331">
        <ele>826.8</ele>
        <time>2024-05-29T14:42:45.287Z</time>
      </trkpt>
      <trkpt lat="42.88052" lon="-0.93324">
        <ele>828.06</ele>
        <time>2024-05-29T14:42:49.805Z</time>
      </trkpt>
      <trkpt lat="42.88086" lon="-0.93342">
        <ele>829.54</ele>
        <time>2024-05-29T14:42:54.329Z</time>
      </trkpt>
      <trkpt lat="42.88137" lon="-0.93386">
        <ele>830.97</ele>
        <time>2024-05-29T14:42:58.863Z</time>
      </trkpt>
      <trkpt lat="42.8816" lon="-0.93413">
        <ele>832.2</ele>
        <time>2024-05-29T14:43:03.402Z</time>
      </trkpt>
      <trkpt lat="42.88195" lon="-0.93461">
        <ele>833.51</ele>
        <time>2024-05-29T14:43:07.949Z</time>
      </trkpt>
      <trkpt lat="42.8821" lon="-0.93476">
        <ele>834.68</ele>
        <time>2024-05-29T14:43:12.499Z</time>
      </trkpt>
      <trkpt lat="42.88225" lon="-0.93487">
        <ele>835.73</ele>
        <time>2024-05-29T14:43:17.051Z</time>
      </trkpt>
      <trkpt lat="42.88292" lon="-0.93522">
        <ele>836.77</ele>
        <time>2024-05-29T14:43:21.615Z</time>
      </trkpt>
      <trkpt lat="42.88332" lon="-0.93548">
        <ele>837.64</ele>
        <time>2024-05-29T14:43:26.186Z</time>
      </trkpt>
      <trkpt lat="42.88372" lon="-0.93568">
        <ele>838.27</ele>
        <time>2024-05-29T14:43:30.764Z</time>
      </trkpt>
      <trkpt lat="42.88379" lon="-0.93575">
        <ele>838.96</ele>
        <time>2024-05-29T14:43:35.343Z</time>
      </trkpt>
      <trkpt lat="42.88393" lon="-0.93594">
        <ele>839.16</ele>
        <time>2024-05-29T14:43:39.925Z</time>
      </trkpt>
      <trkpt lat="42.88408" lon="-0.93621">
        <ele>839.56</ele>
        <time>2024-05-29T14:43:44.511Z</time>
      </trkpt>
      <trkpt lat="42.88466" lon="-0.93767">
        <ele>839.95</ele>
        <time>2024-05-29T14:43:49.117Z</time>
      </trkpt>
      <trkpt lat="42.88484" lon="-0.93801">
        <ele>840.2</ele>
        <time>2024-05-29T14:43:53.728Z</time>
      </trkpt>
      <trkpt lat="42.88496" lon="-0.93822">
        <ele>840.76</ele>
        <time>2024-05-29T14:43:58.342Z</time>
      </trkpt>
      <trkpt lat="42.88504" lon="-0.9383">
        <ele>841.17</ele>
        <time>2024-05-29T14:44:02.957Z</time>
      </trkpt>
      <trkpt lat="42.88514" lon="-0.93841">
        <ele>841.59</ele>
        <time>2024-05-29T14:44:07.575Z</time>
      </trkpt>
      <trkpt lat="42.88546" lon="-0.93866">
        <ele>841.73</ele>
        <time>2024-05-29T14:44:12.199Z</time>
      </trkpt>
      <trkpt lat="42.88586" lon="-0.93903">
        <ele>841.92</ele>
        <time>2024-05-29T14:44:16.830Z</time>
      </trkpt>
      <trkpt lat="42.88595" lon="-0.93923">
        <ele>842.13</ele>
        <time>2024-05-29T14:44:21.464Z</time>
      </trkpt>
      <trkpt lat="42.88602" lon="-0.93978">
        <ele>842.22</ele>
        <time>2024-05-29T14:44:26.105Z</time>
      </trkpt>
      <trkpt lat="42.88609" lon="-0.94005">
        <ele>842.57</ele>
        <time>2024-05-29T14:44:30.749Z</time>
      </trkpt>
      <trkpt lat="42.88614" lon="-0.94022">
        <ele>843.07</ele>
        <time>2024-05-29T14:44:35.395Z</time>
      </trkpt>
      <trkpt lat="42.88625" lon="-0.94042">
        <ele>843.52</ele>
        <time>2024-05-29T14:44:40.044Z</time>
      </trkpt>
      <trkpt lat="42.88639" lon="-0.94058">
        <ele>844.21</ele>
        <time>2024-05-29T14:44:44.696Z</time>
      </trkpt>
      <trkpt lat="42.88649" lon="-0.94066">
        <ele>844.78</ele>
        <time>2024-05-29T14:44:49.350Z</time>
      </trkpt>
      <trkpt lat="42.88674" lon="-0.94079">
        <ele>845.28</ele>
        <time>2024-05-29T14:44:54.008Z</time>
      </trkpt>
      <trkpt lat="42.88691" lon="-0.94081">
        <ele>846.03</ele>
        <time>2024-05-29T14:44:58.669Z</time>
      </trkpt>
      <trkpt lat="42.88733" lon="-0.9408">
        <ele>846.8</ele>
        <time>2024-05-29T14:45:03.337Z</time>
      </trkpt>
      <trkpt lat="42.8876" lon="-0.94072">
        <ele>847.47</ele>
        <time>2024-05-29T14:45:08.009Z</time>
      </trkpt>
      <trkpt lat="42.88769" lon="-0.94067">
        <ele>848.16</ele>
        <time>2024-05-29T14:45:12.682Z</time>
      </trkpt>
      <trkpt lat="42.88778" lon="-0.94051">
        <ele>848.88</ele>
        <time>2024-05-29T14:45:17.358Z</time>
      </trkpt>
      <trkpt lat="42.88778" lon="-0.94051">
        <ele>849.57</ele>
        <time>2024-05-29T14:45:22.034Z</time>
      </trkpt>
      <trkpt lat="42.88791" lon="-0.94003">
        <ele>850.69</ele>
        <time>2024-05-29T14:45:26.716Z</time>
      </trkpt>
      <trkpt lat="42.888" lon="-0.93985">
        <ele>851.36</ele>
        <time>2024-05-29T14:45:31.400Z</time>
      </trkpt>
      <trkpt lat="42.88869" lon="-0.93873">
        <ele>852.08</ele>
        <time>2024-05-29T14:45:36.102Z</time>
      </trkpt>
      <trkpt lat="42.88889" lon="-0.93848">
        <ele>852.68</ele>
        <time>2024-05-29T14:45:40.808Z</time>
      </trkpt>
      <trkpt lat="42.88905" lon="-0.93837">
        <ele>853.06</ele>
        <time>2024-05-29T14:45:45.517Z</time>
      </trkpt>
      <trkpt lat="42.88922" lon="-0.93832">
        <ele>853.11</ele>
        <time>2024-05-29T14:45:50.229Z</time>
      </trkpt>
      <trkpt lat="42.8894" lon="-0.93834">
        <ele>852.87</ele>
        <time>2024-05-29T14:45:54.944Z</time>
      </trkpt>
      <trkpt lat="42.88949" lon="-0.93839">
        <ele>852.49</ele>
        <time>2024-05-29T14:45:59.660Z</time>
      </trkpt>
      <trkpt lat="42.88962" lon="-0.93849">
        <ele>851.96</ele>
        <time>2024-05-29T14:46:04.378Z</time>
      </trkpt>
      <trkpt lat="42.88975" lon="-0.93867">
        <ele>851.41</ele>
        <time>2024-05-29T14:46:09.099Z</time>
      </trkpt>
      <trkpt lat="42.88984" lon="-0.93889">
        <ele>850.9</ele>
        <time>2024-05-29T14:46:13.823Z</time>
      </trkpt>
      <trkpt lat="42.88995" lon="-0.93922">
        <ele>850.69</ele>
        <time>2024-05-29T14:46:18.552Z</time>
      </trkpt>
      <trkpt lat="42.89002" lon="-0.93939">
        <ele>850.52</ele>
        <time>2024-05-29T14:46:23.283Z</time>
      </trkpt>
      <trkpt lat="42.89012" lon="-0.93952">
        <ele>850.33</ele>
        <time>2024-05-29T14:46:28.016Z</time>
      </trkpt>
      <trkpt lat="42.89024" lon="-0.93964">
        <ele>850.39</ele>
        <time>2024-05-29T14:46:32.751Z</time>
      </trkpt>
      <trkpt lat="42.89035" lon="-0.93969">
        <ele>850.36</ele>
        <time>2024-05-29T14:46:37.488Z</time>
      </trkpt>
      <trkpt lat="42.89066" lon="-0.93969">
        <ele>850.42</ele>
        <time>2024-05-29T14:46:42.230Z</time>
      </trkpt>
      <trkpt lat="42.89078" lon="-0.93966">
        <ele>850.57</ele>
        <time>2024-05-29T14:46:46.974Z</time>
      </trkpt>
      <trkpt lat="42.89094" lon="-0.9396">
        <ele>850.8</ele>
        <time>2024-05-29T14:46:51.721Z</time>
      </trkpt>
      <trkpt lat="42.89129" lon="-0.9394">
        <ele>851.51</ele>
        <time>2024-05-29T14:46:56.474Z</time>
      </trkpt>
      <trkpt lat="42.8914" lon="-0.93937">
        <ele>851.79</ele>
        <time>2024-05-29T14:47:01.229Z</time>
      </trkpt>
      <trkpt lat="42.89155" lon="-0.93939">
        <ele>852.04</ele>
        <time>2024-05-29T14:47:05.986Z</time>
      </trkpt>
      <trkpt lat="42.89228" lon="-0.93956">
        <ele>852.12</ele>
        <time>2024-05-29T14:47:10.755Z</time>
      </trkpt>
      <trkpt lat="42.89263" lon="-0.93977">
        <ele>852.38</ele>
        <time>2024-05-29T14:47:15.530Z</time>
      </trkpt>
      <trkpt lat="42.89344" lon="-0.94037">
        <ele>852.69</ele>
        <time>2024-05-29T14:47:20.320Z</time>
      </trkpt>
      <trkpt lat="42.89354" lon="-0.94046">
        <ele>853.22</ele>
        <time>2024-05-29T14:47:25.112Z</time>
      </trkpt>
      <trkpt lat="42.89362" lon="-0.94059">
        <ele>853.64</ele>
        <time>2024-05-29T14:47:29.906Z</time>
      </trkpt>
      <trkpt lat="42.89368" lon="-0.94081">
        <ele>854.01</ele>
        <time>2024-05-29T14:47:34.703Z</time>
      </trkpt>
      <trkpt lat="42.89368" lon="-0.94091">
        <ele>854.49</ele>
        <time>2024-05-29T14:47:39.501Z</time>
      </trkpt>
      <trkpt lat="42.89365" lon="-0.94111">
        <ele>855.11</ele>
        <time>2024-05-29T14:47:44.301Z</time>
      </trkpt>
      <trkpt lat="42.89355" lon="-0.94141">
        <ele>855.73</ele>
        <time>2024-05-29T14:47:49.105Z</time>
      </trkpt>
      <trkpt lat="42.89321" lon="-0.94261">
        <ele>856.85</ele>
        <time>2024-05-29T14:47:53.924Z</time>
      </trkpt>
      <trkpt lat="42.89317" lon="-0.94278">
        <ele>857.55</ele>
        <time>2024-05-29T14:47:58.745Z</time>
      </trkpt>
      <trkpt lat="42.89316" lon="-0.94289">
        <ele>858.28</ele>
        <time>2024-05-29T14:48:03.568Z</time>
      </trkpt>
      <trkpt lat="42.89318" lon="-0.94316">
        <ele>858.96</ele>
        <time>2024-05-29T14:48:08.394Z</time>
      </trkpt>
      <trkpt lat="42.89322" lon="-0.94332">
        <ele>859.96</ele>
        <time>2024-05-29T14:48:13.222Z</time>
      </trkpt>
      <trkpt lat="42.8937" lon="-0.9446">
        <ele>860.79</ele>
        <time>2024-05-29T14:48:18.067Z</time>
      </trkpt>
      <trkpt lat="42.89376" lon="-0.94481">
        <ele>861.85</ele>
        <time>2024-05-29T14:48:22.914Z</time>
      </trkpt>
      <trkpt lat="42.89377" lon="-0.94509">
        <ele>862.9</ele>
        <time>2024-05-29T14:48:27.765Z</time>
      </trkpt>
      <trkpt lat="42.89375" lon="-0.94627">
        <ele>864.05</ele>
        <time>2024-05-29T14:48:32.630Z</time>
      </trkpt>
      <trkpt lat="42.89376" lon="-0.9465">
        <ele>865.34</ele>
        <time>2024-05-29T14:48:37.497Z</time>
      </trkpt>
      <trkpt lat="42.89379" lon="-0.94667">
        <ele>866.7</ele>
        <time>2024-05-29T14:48:42.366Z</time>
      </trkpt>
      <trkpt lat="42.89463" lon="-0.94832">
        <ele>868.2</ele>
        <time>2024-05-29T14:48:47.259Z</time>
      </trkpt>
      <trkpt lat="42.89507" lon="-0.94962">
        <ele>869.8</ele>
        <time>2024-05-29T14:48:52.169Z</time>
      </trkpt>
      <trkpt lat="42.89538" lon="-0.95051">
        <ele>871.37</ele>
        <time>2024-05-29T14:48:57.090Z</time>
      </trkpt>
      <trkpt lat="42.89546" lon="-0.9507">
        <ele>872.5</ele>
        <time>2024-05-29T14:49:02.014Z</time>
      </trkpt>
      <trkpt lat="42.89581" lon="-0.95137">
        <ele>873.52</ele>
        <time>2024-05-29T14:49:06.948Z</time>
      </trkpt>
      <trkpt lat="42.89596" lon="-0.95159">
        <ele>874.09</ele>
        <time>2024-05-29T14:49:11.885Z</time>
      </trkpt>
      <trkpt lat="42.89604" lon="-0.95169">
        <ele>875.05</ele>
        <time>2024-05-29T14:49:16.824Z</time>
      </trkpt>
      <trkpt lat="42.89659" lon="-0.95223">
        <ele>875.58</ele>
        <time>2024-05-29T14:49:21.774Z</time>
      </trkpt>
      <trkpt lat="42.89692" lon="-0.95254">
        <ele>876.96</ele>
        <time>2024-05-29T14:49:26.730Z</time>
      </trkpt>
      <trkpt lat="42.897" lon="-0.95264">
        <ele>878.07</ele>
        <time>2024-05-29T14:49:31.688Z</time>
      </trkpt>
      <trkpt lat="42.89709" lon="-0.95281">
        <ele>879.56</ele>
        <time>2024-05-29T14:49:36.648Z</time>
      </trkpt>
      <trkpt lat="42.8972" lon="-0.95316">
        <ele>881.16</ele>
        <time>2024-05-29T14:49:41.613Z</time>
      </trkpt>
      <trkpt lat="42.89722" lon="-0.95334">
        <ele>882.7</ele>
        <time>2024-05-29T14:49:46.580Z</time>
      </trkpt>
      <trkpt lat="42.89725" lon="-0.95349">
        <ele>883.87</ele>
        <time>2024-05-29T14:49:51.549Z</time>
      </trkpt>
      <trkpt lat="42.89733" lon="-0.95372">
        <ele>884.65</ele>
        <time>2024-05-29T14:49:56.521Z</time>
      </trkpt>
      <trkpt lat="42.89746" lon="-0.9539">
        <ele>885.2</ele>
        <time>2024-05-29T14:50:01.496Z</time>
      </trkpt>
      <trkpt lat="42.89769" lon="-0.95412">
        <ele>885.27</ele>
        <time>2024-05-29T14:50:06.475Z</time>
      </trkpt>
      <trkpt lat="42.89865" lon="-0.95472">
        <ele>885.23</ele>
        <time>2024-05-29T14:50:11.471Z</time>
      </trkpt>
      <trkpt lat="42.89884" lon="-0.95495">
        <ele>884.95</ele>
        <time>2024-05-29T14:50:16.471Z</time>
      </trkpt>
      <trkpt lat="42.89904" lon="-0.95529">
        <ele>884.02</ele>
        <time>2024-05-29T14:50:21.476Z</time>
      </trkpt>
      <trkpt lat="42.89913" lon="-0.95549">
        <ele>883.62</ele>
        <time>2024-05-29T14:50:26.484Z</time>
      </trkpt>
      <trkpt lat="42.89918" lon="-0.95564">
        <ele>883.46</ele>
        <time>2024-05-29T14:50:31.494Z</time>
      </trkpt>
      <trkpt lat="42.89924" lon="-0.95598">
        <ele>881.98</ele>
        <time>2024-05-29T14:50:36.508Z</time>
      </trkpt>
      <trkpt lat="42.89924" lon="-0.95598">
        <ele>881.98</ele>
        <time>2024-05-29T14:50:41.522Z</time>
      </trkpt>
      <trkpt lat="42.89955" lon="-0.95751">
        <ele>883.56</ele>
        <time>2024-05-29T14:50:46.555Z</time>
      </trkpt>
      <trkpt lat="42.89964" lon="-0.95788">
        <ele>885.62</ele>
        <time>2024-05-29T14:50:51.592Z</time>
      </trkpt>
      <trkpt lat="42.89968" lon="-0.95802">
        <ele>887.34</ele>
        <time>2024-05-29T14:50:56.631Z</time>
      </trkpt>
      <trkpt lat="42.89979" lon="-0.95823">
        <ele>888.7</ele>
        <time>2024-05-29T14:51:01.673Z</time>
      </trkpt>
      <trkpt lat="42.89986" lon="-0.95831">
        <ele>889.65</ele>
        <time>2024-05-29T14:51:06.717Z</time>
      </trkpt>
      <trkpt lat="42.9005" lon="-0.95885">
        <ele>890.24</ele>
        <time>2024-05-29T14:51:11.773Z</time>
      </trkpt>
      <trkpt lat="42.90061" lon="-0.95894">
        <ele>891.04</ele>
        <time>2024-05-29T14:51:16.831Z</time>
      </trkpt>
      <trkpt lat="42.90075" lon="-0.95903">
        <ele>891.77</ele>
        <time>2024-05-29T14:51:21.891Z</time>
      </trkpt>
      <trkpt lat="42.90089" lon="-0.9591">
        <ele>892.58</ele>
        <time>2024-05-29T14:51:26.954Z</time>
      </trkpt>
      <trkpt lat="42.90089" lon="-0.9591">
        <ele>893.43</ele>
        <time>2024-05-29T14:51:32.017Z</time>
      </trkpt>
      <trkpt lat="42.90169" lon="-0.95948">
        <ele>894.25</ele>
        <time>2024-05-29T14:51:37.093Z</time>
      </trkpt>
      <trkpt lat="42.90197" lon="-0.95966">
        <ele>895.57</ele>
        <time>2024-05-29T14:51:42.174Z</time>
      </trkpt>
      <trkpt lat="42.90228" lon="-0.95996">
        <ele>897.32</ele>
        <time>2024-05-29T14:51:47.261Z</time>
      </trkpt>
      <trkpt lat="42.90301" lon="-0.96074">
        <ele>898.87</ele>
        <time>2024-05-29T14:51:52.363Z</time>
      </trkpt>
      <trkpt lat="42.90335" lon="-0.961">
        <ele>900.82</ele>
        <time>2024-05-29T14:51:57.471Z</time>
      </trkpt>
      <trkpt lat="42.90354" lon="-0.96118">
        <ele>902.6</ele>
        <time>2024-05-29T14:52:02.583Z</time>
      </trkpt>
      <trkpt lat="42.90364" lon="-0.96129">
        <ele>904.08</ele>
        <time>2024-05-29T14:52:07.697Z</time>
      </trkpt>
      <trkpt lat="42.90383" lon="-0.96158">
        <ele>905.53</ele>
        <time>2024-05-29T14:52:12.816Z</time>
      </trkpt>
      <trkpt lat="42.90405" lon="-0.96204">
        <ele>907.19</ele>
        <time>2024-05-29T14:52:17.941Z</time>
      </trkpt>
      <trkpt lat="42.90411" lon="-0.96215">
        <ele>908.4</ele>
        <time>2024-05-29T14:52:23.068Z</time>
      </trkpt>
      <trkpt lat="42.90418" lon="-0.96223">
        <ele>909.38</ele>
        <time>2024-05-29T14:52:28.196Z</time>
      </trkpt>
      <trkpt lat="42.90457" lon="-0.96256">
        <ele>909.9</ele>
        <time>2024-05-29T14:52:33.332Z</time>
      </trkpt>
      <trkpt lat="42.90473" lon="-0.96275">
        <ele>910.74</ele>
        <time>2024-05-29T14:52:38.471Z</time>
      </trkpt>
      <trkpt lat="42.90507" lon="-0.96343">
        <ele>911.88</ele>
        <time>2024-05-29T14:52:43.620Z</time>
      </trkpt>
      <trkpt lat="42.90513" lon="-0.96354">
        <ele>912.57</ele>
        <time>2024-05-29T14:52:48.770Z</time>
      </trkpt>
      <trkpt lat="42.9053" lon="-0.96377">
        <ele>913.19</ele>
        <time>2024-05-29T14:52:53.924Z</time>
      </trkpt>
      <trkpt lat="42.90536" lon="-0.96391">
        <ele>913.65</ele>
        <time>2024-05-29T14:52:59.080Z</time>
      </trkpt>
      <trkpt lat="42.90538" lon="-0.96406">
        <ele>914.01</ele>
        <time>2024-05-29T14:53:04.238Z</time>
      </trkpt>
      <trkpt lat="42.90539" lon="-0.96458">
        <ele>914.24</ele>
        <time>2024-05-29T14:53:09.402Z</time>
      </trkpt>
      <trkpt lat="42.90541" lon="-0.96476">
        <ele>914.53</ele>
        <time>2024-05-29T14:53:14.568Z</time>
      </trkpt>
      <trkpt lat="42.90544" lon="-0.96491">
        <ele>914.71</ele>
        <time>2024-05-29T14:53:19.736Z</time>
      </trkpt>
      <trkpt lat="42.90559" lon="-0.96546">
        <ele>914.75</ele>
        <time>2024-05-29T14:53:24.911Z</time>
      </trkpt>
      <trkpt lat="42.90569" lon="-0.9661">
        <ele>914.84</ele>
        <time>2024-05-29T14:53:30.093Z</time>
      </trkpt>
      <trkpt lat="42.9058" lon="-0.96669">
        <ele>914.67</ele>
        <time>2024-05-29T14:53:35.283Z</time>
      </trkpt>
      <trkpt lat="42.90583" lon="-0.96686">
        <ele>914.46</ele>
        <time>2024-05-29T14:53:40.475Z</time>
      </trkpt>
      <trkpt lat="42.90589" lon="-0.96701">
        <ele>914.21</ele>
        <time>2024-05-29T14:53:45.669Z</time>
      </trkpt>
      <trkpt lat="42.906" lon="-0.96716">
        <ele>914.13</ele>
        <time>2024-05-29T14:53:50.865Z</time>
      </trkpt>
      <trkpt lat="42.9061" lon="-0.96727">
        <ele>914.27</ele>
        <time>2024-05-29T14:53:56.063Z</time>
      </trkpt>
      <trkpt lat="42.90619" lon="-0.96736">
        <ele>914.36</ele>
        <time>2024-05-29T14:54:01.263Z</time>
      </trkpt>
      <trkpt lat="42.90638" lon="-0.96745">
        <ele>914.81</ele>
        <time>2024-05-29T14:54:06.466Z</time>
      </trkpt>
      <trkpt lat="42.90658" lon="-0.96747">
        <ele>915.22</ele>
        <time>2024-05-29T14:54:11.672Z</time>
      </trkpt>
      <trkpt lat="42.90672" lon="-0.96745">
        <ele>915.73</ele>
        <time>2024-05-29T14:54:16.881Z</time>
      </trkpt>
      <trkpt lat="42.90706" lon="-0.9673">
        <ele>916.27</ele>
        <time>2024-05-29T14:54:22.095Z</time>
      </trkpt>
      <trkpt lat="42.90724" lon="-0.96716">
        <ele>916.72</ele>
        <time>2024-05-29T14:54:27.313Z</time>
      </trkpt>
      <trkpt lat="42.90749" lon="-0.96692">
        <ele>917.79</ele>
        <time>2024-05-29T14:54:32.536Z</time>
      </trkpt>
      <trkpt lat="42.90766" lon="-0.96678">
        <ele>918.65</ele>
        <time>2024-05-29T14:54:37.762Z</time>
      </trkpt>
      <trkpt lat="42.90782" lon="-0.96669">
        <ele>919.02</ele>
        <time>2024-05-29T14:54:42.991Z</time>
      </trkpt>
      <trkpt lat="42.90794" lon="-0.96665">
        <ele>919.22</ele>
        <time>2024-05-29T14:54:48.222Z</time>
      </trkpt>
      <trkpt lat="42.90807" lon="-0.96664">
        <ele>919.2</ele>
        <time>2024-05-29T14:54:53.455Z</time>
      </trkpt>
      <trkpt lat="42.90818" lon="-0.96667">
        <ele>919.04</ele>
        <time>2024-05-29T14:54:58.689Z</time>
      </trkpt>
      <trkpt lat="42.90818" lon="-0.96667">
        <ele>918.98</ele>
        <time>2024-05-29T14:55:03.923Z</time>
      </trkpt>
      <trkpt lat="42.90849" lon="-0.96683">
        <ele>918.07</ele>
        <time>2024-05-29T14:55:09.163Z</time>
      </trkpt>
      <trkpt lat="42.90871" lon="-0.96695">
        <ele>917.57</ele>
        <time>2024-05-29T14:55:14.407Z</time>
      </trkpt>
      <trkpt lat="42.90881" lon="-0.96697">
        <ele>917.31</ele>
        <time>2024-05-29T14:55:19.652Z</time>
      </trkpt>
      <trkpt lat="42.90896" lon="-0.96695">
        <ele>917.07</ele>
        <time>2024-05-29T14:55:24.900Z</time>
      </trkpt>
      <trkpt lat="42.90937" lon="-0.96683">
        <ele>916.98</ele>
        <time>2024-05-29T14:55:30.154Z</time>
      </trkpt>
      <trkpt lat="42.90957" lon="-0.96681">
        <ele>916.98</ele>
        <time>2024-05-29T14:55:35.411Z</time>
      </trkpt>
      <trkpt lat="42.91" lon="-0.96688">
        <ele>917.55</ele>
        <time>2024-05-29T14:55:40.675Z</time>
      </trkpt>
      <trkpt lat="42.91011" lon="-0.96692">
        <ele>917.94</ele>
        <time>2024-05-29T14:55:45.941Z</time>
      </trkpt>
      <trkpt lat="42.91027" lon="-0.96702">
        <ele>918.45</ele>
        <time>2024-05-29T14:55:51.210Z</time>
      </trkpt>
      <trkpt lat="42.91063" lon="-0.96745">
        <ele>919.25</ele>
        <time>2024-05-29T14:55:56.487Z</time>
      </trkpt>
      <trkpt lat="42.91072" lon="-0.96752">
        <ele>920.04</ele>
        <time>2024-05-29T14:56:01.765Z</time>
      </trkpt>
      <trkpt lat="42.91092" lon="-0.96761">
        <ele>920.88</ele>
        <time>2024-05-29T14:56:07.047Z</time>
      </trkpt>
      <trkpt lat="42.91117" lon="-0.96769">
        <ele>922.02</ele>
        <time>2024-05-29T14:56:12.333Z</time>
      </trkpt>
      <trkpt lat="42.91127" lon="-0.96773">
        <ele>923.1</ele>
        <time>2024-05-29T14:56:17.620Z</time>
      </trkpt>
      <trkpt lat="42.91134" lon="-0.96776">
        <ele>924.35</ele>
        <time>2024-05-29T14:56:22.909Z</time>
      </trkpt>
      <trkpt lat="42.91149" lon="-0.96789">
        <ele>925.51</ele>
        <time>2024-05-29T14:56:28.201Z</time>
      </trkpt>
      <trkpt lat="42.91163" lon="-0.96819">
        <ele>926.54</ele>
        <time>2024-05-29T14:56:33.497Z</time>
      </trkpt>
      <trkpt lat="42.91186" lon="-0.96875">
        <ele>928.03</ele>
        <time>2024-05-29T14:56:38.800Z</time>
      </trkpt>
      <trkpt lat="42.91197" lon="-0.96896">
        <ele>929.71</ele>
        <time>2024-05-29T14:56:44.106Z</time>
      </trkpt>
      <trkpt lat="42.91254" lon="-0.96998">
        <ele>932.37</ele>
        <time>2024-05-29T14:56:49.427Z</time>
      </trkpt>
      <trkpt lat="42.91366" lon="-0.97158">
        <ele>933.94</ele>
        <time>2024-05-29T14:56:54.774Z</time>
      </trkpt>
      <trkpt lat="42.9139" lon="-0.97189">
        <ele>935.6</ele>
        <time>2024-05-29T14:57:00.127Z</time>
      </trkpt>
      <trkpt lat="42.91397" lon="-0.97197">
        <ele>937.29</ele>
        <time>2024-05-29T14:57:05.481Z</time>
      </trkpt>
      <trkpt lat="42.91414" lon="-0.97204">
        <ele>939.11</ele>
        <time>2024-05-29T14:57:10.838Z</time>
      </trkpt>
      <trkpt lat="42.91423" lon="-0.97205">
        <ele>940.85</ele>
        <time>2024-05-29T14:57:16.196Z</time>
      </trkpt>
      <trkpt lat="42.9149" lon="-0.97201">
        <ele>943.18</ele>
        <time>2024-05-29T14:57:21.565Z</time>
      </trkpt>
      <trkpt lat="42.91529" lon="-0.97207">
        <ele>944.63</ele>
        <time>2024-05-29T14:57:26.940Z</time>
      </trkpt>
      <trkpt lat="42.91614" lon="-0.9722">
        <ele>946.15</ele>
        <time>2024-05-29T14:57:32.329Z</time>
      </trkpt>
      <trkpt lat="42.91647" lon="-0.9723">
        <ele>947.86</ele>
        <time>2024-05-29T14:57:37.723Z</time>
      </trkpt>
      <trkpt lat="42.9166" lon="-0.97237">
        <ele>949.36</ele>
        <time>2024-05-29T14:57:43.120Z</time>
      </trkpt>
      <trkpt lat="42.91681" lon="-0.97249">
        <ele>950.89</ele>
        <time>2024-05-29T14:57:48.520Z</time>
      </trkpt>
      <trkpt lat="42.91689" lon="-0.97256">
        <ele>952.25</ele>
        <time>2024-05-29T14:57:53.922Z</time>
      </trkpt>
      <trkpt lat="42.91714" lon="-0.97284">
        <ele>953.23</ele>
        <time>2024-05-29T14:57:59.329Z</time>
      </trkpt>
      <trkpt lat="42.91734" lon="-0.97311">
        <ele>954.26</ele>
        <time>2024-05-29T14:58:04.741Z</time>
      </trkpt>
      <trkpt lat="42.91745" lon="-0.97332">
        <ele>955.55</ele>
        <time>2024-05-29T14:58:10.156Z</time>
      </trkpt>
      <trkpt lat="42.91761" lon="-0.97373">
        <ele>956.76</ele>
        <time>2024-05-29T14:58:15.576Z</time>
      </trkpt>
      <trkpt lat="42.91771" lon="-0.97393">
        <ele>958</ele>
        <time>2024-05-29T14:58:20.999Z</time>
      </trkpt>
      <trkpt lat="42.91783" lon="-0.97411">
        <ele>959.02</ele>
        <time>2024-05-29T14:58:26.425Z</time>
      </trkpt>
      <trkpt lat="42.91813" lon="-0.97443">
        <ele>960.14</ele>
        <time>2024-05-29T14:58:31.857Z</time>
      </trkpt>
      <trkpt lat="42.91824" lon="-0.9746">
        <ele>961.14</ele>
        <time>2024-05-29T14:58:37.292Z</time>
      </trkpt>
      <trkpt lat="42.91826" lon="-0.97483">
        <ele>962.2</ele>
        <time>2024-05-29T14:58:42.729Z</time>
      </trkpt>
      <trkpt lat="42.91824" lon="-0.9754">
        <ele>963.3</ele>
        <time>2024-05-29T14:58:48.173Z</time>
      </trkpt>
      <trkpt lat="42.91833" lon="-0.97609">
        <ele>964.23</ele>
        <time>2024-05-29T14:58:53.625Z</time>
      </trkpt>
      <trkpt lat="42.91838" lon="-0.9763">
        <ele>965.12</ele>
        <time>2024-05-29T14:58:59.080Z</time>
      </trkpt>
      <trkpt lat="42.91851" lon="-0.97646">
        <ele>965.88</ele>
        <time>2024-05-29T14:59:04.538Z</time>
      </trkpt>
      <trkpt lat="42.91862" lon="-0.97654">
        <ele>966.81</ele>
        <time>2024-05-29T14:59:09.998Z</time>
      </trkpt>
      <trkpt lat="42.91941" lon="-0.97694">
        <ele>968.32</ele>
        <time>2024-05-29T14:59:15.471Z</time>
      </trkpt>
      <trkpt lat="42.91964" lon="-0.97699">
        <ele>969.57</ele>
        <time>2024-05-29T14:59:20.948Z</time>
      </trkpt>
      <trkpt lat="42.92046" lon="-0.97695">
        <ele>971.23</ele>
        <time>2024-05-29T14:59:26.438Z</time>
      </trkpt>
      <trkpt lat="42.92144" lon="-0.9771">
        <ele>972.07</ele>
        <time>2024-05-29T14:59:31.944Z</time>
      </trkpt>
      <trkpt lat="42.92199" lon="-0.97702">
        <ele>973.75</ele>
        <time>2024-05-29T14:59:37.459Z</time>
      </trkpt>
      <trkpt lat="42.92206" lon="-0.97702">
        <ele>974.86</ele>
        <time>2024-05-29T14:59:42.975Z</time>
      </trkpt>
      <trkpt lat="42.92213" lon="-0.97708">
        <ele>975.82</ele>
        <time>2024-05-29T14:59:48.492Z</time>
      </trkpt>
      <trkpt lat="42.92215" lon="-0.9772">
        <ele>976.8</ele>
        <time>2024-05-29T14:59:54.010Z</time>
      </trkpt>
      <trkpt lat="42.92211" lon="-0.9773">
        <ele>977.71</ele>
        <time>2024-05-29T14:59:59.530Z</time>
      </trkpt>
      <trkpt lat="42.92207" lon="-0.97735">
        <ele>978.59</ele>
        <time>2024-05-29T15:00:05.051Z</time>
      </trkpt>
      <trkpt lat="42.9214" lon="-0.97762">
        <ele>979.14</ele>
        <time>2024-05-29T15:00:10.583Z</time>
      </trkpt>
      <trkpt lat="42.92119" lon="-0.97767">
        <ele>980.07</ele>
        <time>2024-05-29T15:00:16.118Z</time>
      </trkpt>
      <trkpt lat="42.92051" lon="-0.97772">
        <ele>980.85</ele>
        <time>2024-05-29T15:00:21.664Z</time>
      </trkpt>
      <trkpt lat="42.9204" lon="-0.97777">
        <ele>981.84</ele>
        <time>2024-05-29T15:00:27.212Z</time>
      </trkpt>
      <trkpt lat="42.92033" lon="-0.97783">
        <ele>982.88</ele>
        <time>2024-05-29T15:00:32.761Z</time>
      </trkpt>
      <trkpt lat="42.92029" lon="-0.97793">
        <ele>984.02</ele>
        <time>2024-05-29T15:00:38.312Z</time>
      </trkpt>
      <trkpt lat="42.92029" lon="-0.97807">
        <ele>985.21</ele>
        <time>2024-05-29T15:00:43.864Z</time>
      </trkpt>
      <trkpt lat="42.92033" lon="-0.9782">
        <ele>986.52</ele>
        <time>2024-05-29T15:00:49.418Z</time>
      </trkpt>
      <trkpt lat="42.92058" lon="-0.97872">
        <ele>988.35</ele>
        <time>2024-05-29T15:00:54.979Z</time>
      </trkpt>
      <trkpt lat="42.92081" lon="-0.97935">
        <ele>990.1</ele>
        <time>2024-05-29T15:01:00.548Z</time>
      </trkpt>
      <trkpt lat="42.92084" lon="-0.97958">
        <ele>991.5</ele>
        <time>2024-05-29T15:01:06.120Z</time>
      </trkpt>
      <trkpt lat="42.92083" lon="-0.9797">
        <ele>992.89</ele>
        <time>2024-05-29T15:01:11.694Z</time>
      </trkpt>
      <trkpt lat="42.92077" lon="-0.98003">
        <ele>994.21</ele>
        <time>2024-05-29T15:01:17.272Z</time>
      </trkpt>
      <trkpt lat="42.92076" lon="-0.98018">
        <ele>995.67</ele>
        <time>2024-05-29T15:01:22.851Z</time>
      </trkpt>
      <trkpt lat="42.92078" lon="-0.98034">
        <ele>997.24</ele>
        <time>2024-05-29T15:01:28.432Z</time>
      </trkpt>
      <trkpt lat="42.92097" lon="-0.98079">
        <ele>999.11</ele>
        <time>2024-05-29T15:01:34.019Z</time>
      </trkpt>
      <trkpt lat="42.921" lon="-0.9809">
        <ele>1000.63</ele>
        <time>2024-05-29T15:01:39.608Z</time>
      </trkpt>
      <trkpt lat="42.92102" lon="-0.98116">
        <ele>1002.08</ele>
        <time>2024-05-29T15:01:45.200Z</time>
      </trkpt>
      <trkpt lat="42.92102" lon="-0.9815">
        <ele>1003.49</ele>
        <time>2024-05-29T15:01:50.796Z</time>
      </trkpt>
      <trkpt lat="42.92103" lon="-0.98159">
        <ele>1005</ele>
        <time>2024-05-29T15:01:56.393Z</time>
      </trkpt>
      <trkpt lat="42.9211" lon="-0.98179">
        <ele>1006.58</ele>
        <time>2024-05-29T15:02:01.992Z</time>
      </trkpt>
      <trkpt lat="42.92121" lon="-0.9819">
        <ele>1008.18</ele>
        <time>2024-05-29T15:02:07.594Z</time>
      </trkpt>
      <trkpt lat="42.92135" lon="-0.98198">
        <ele>1009.91</ele>
        <time>2024-05-29T15:02:13.198Z</time>
      </trkpt>
      <trkpt lat="42.9214" lon="-0.98203">
        <ele>1011.38</ele>
        <time>2024-05-29T15:02:18.803Z</time>
      </trkpt>
      <trkpt lat="42.92144" lon="-0.98212">
        <ele>1012.86</ele>
        <time>2024-05-29T15:02:24.409Z</time>
      </trkpt>
      <trkpt lat="42.92145" lon="-0.9822">
        <ele>1014.27</ele>
        <time>2024-05-29T15:02:30.016Z</time>
      </trkpt>
      <trkpt lat="42.92131" lon="-0.98265">
        <ele>1015.48</ele>
        <time>2024-05-29T15:02:35.629Z</time>
      </trkpt>
      <trkpt lat="42.92131" lon="-0.98275">
        <ele>1016.9</ele>
        <time>2024-05-29T15:02:41.243Z</time>
      </trkpt>
      <trkpt lat="42.92132" lon="-0.98288">
        <ele>1018.37</ele>
        <time>2024-05-29T15:02:46.859Z</time>
      </trkpt>
      <trkpt lat="42.92147" lon="-0.98351">
        <ele>1019.99</ele>
        <time>2024-05-29T15:02:52.483Z</time>
      </trkpt>
      <trkpt lat="42.92154" lon="-0.98387">
        <ele>1021.48</ele>
        <time>2024-05-29T15:02:58.111Z</time>
      </trkpt>
      <trkpt lat="42.92158" lon="-0.98397">
        <ele>1022.96</ele>
        <time>2024-05-29T15:03:03.740Z</time>
      </trkpt>
      <trkpt lat="42.92162" lon="-0.98404">
        <ele>1024.46</ele>
        <time>2024-05-29T15:03:09.370Z</time>
      </trkpt>
      <trkpt lat="42.9217" lon="-0.9841">
        <ele>1026.03</ele>
        <time>2024-05-29T15:03:15.002Z</time>
      </trkpt>
      <trkpt lat="42.92177" lon="-0.98415">
        <ele>1027.58</ele>
        <time>2024-05-29T15:03:20.635Z</time>
      </trkpt>
      <trkpt lat="42.92199" lon="-0.98416">
        <ele>1029.49</ele>
        <time>2024-05-29T15:03:26.271Z</time>
      </trkpt>
      <trkpt lat="42.92238" lon="-0.98408">
        <ele>1031.78</ele>
        <time>2024-05-29T15:03:31.914Z</time>
      </trkpt>
      <trkpt lat="42.92248" lon="-0.9841">
        <ele>1033.35</ele>
        <time>2024-05-29T15:03:37.558Z</time>
      </trkpt>
      <trkpt lat="42.92254" lon="-0.98416">
        <ele>1034.84</ele>
        <time>2024-05-29T15:03:43.204Z</time>
      </trkpt>
      <trkpt lat="42.92259" lon="-0.98422">
        <ele>1036.27</ele>
        <time>2024-05-29T15:03:48.851Z</time>
      </trkpt>
      <trkpt lat="42.92261" lon="-0.98433">
        <ele>1037.63</ele>
        <time>2024-05-29T15:03:54.499Z</time>
      </trkpt>
      <trkpt lat="42.9226" lon="-0.98446">
        <ele>1038.95</ele>
        <time>2024-05-29T15:04:00.149Z</time>
      </trkpt>
      <trkpt lat="42.92252" lon="-0.98479">
        <ele>1040.04</ele>
        <time>2024-05-29T15:04:05.803Z</time>
      </trkpt>
      <trkpt lat="42.92252" lon="-0.98492">
        <ele>1041.47</ele>
        <time>2024-05-29T15:04:11.458Z</time>
      </trkpt>
      <trkpt lat="42.92254" lon="-0.98504">
        <ele>1042.94</ele>
        <time>2024-05-29T15:04:17.115Z</time>
      </trkpt>
      <trkpt lat="42.92267" lon="-0.98527">
        <ele>1044.59</ele>
        <time>2024-05-29T15:04:22.775Z</time>
      </trkpt>
      <trkpt lat="42.92311" lon="-0.9857">
        <ele>1046.84</ele>
        <time>2024-05-29T15:04:28.444Z</time>
      </trkpt>
      <trkpt lat="42.92319" lon="-0.9858">
        <ele>1048.51</ele>
        <time>2024-05-29T15:04:34.114Z</time>
      </trkpt>
      <trkpt lat="42.92334" lon="-0.98616">
        <ele>1050.05</ele>
        <time>2024-05-29T15:04:39.789Z</time>
      </trkpt>
      <trkpt lat="42.92339" lon="-0.98625">
        <ele>1051.69</ele>
        <time>2024-05-29T15:04:45.466Z</time>
      </trkpt>
      <trkpt lat="42.92346" lon="-0.98631">
        <ele>1053.55</ele>
        <time>2024-05-29T15:04:51.144Z</time>
      </trkpt>
      <trkpt lat="42.92369" lon="-0.98646">
        <ele>1055.86</ele>
        <time>2024-05-29T15:04:56.826Z</time>
      </trkpt>
      <trkpt lat="42.92378" lon="-0.98655">
        <ele>1057.88</ele>
        <time>2024-05-29T15:05:02.510Z</time>
      </trkpt>
      <trkpt lat="42.92407" lon="-0.98717">
        <ele>1060.15</ele>
        <time>2024-05-29T15:05:08.202Z</time>
      </trkpt>
      <trkpt lat="42.92413" lon="-0.98727">
        <ele>1062.13</ele>
        <time>2024-05-29T15:05:13.896Z</time>
      </trkpt>
      <trkpt lat="42.92422" lon="-0.98735">
        <ele>1064.09</ele>
        <time>2024-05-29T15:05:19.592Z</time>
      </trkpt>
      <trkpt lat="42.92456" lon="-0.98762">
        <ele>1066.24</ele>
        <time>2024-05-29T15:05:25.294Z</time>
      </trkpt>
      <trkpt lat="42.92511" lon="-0.98788">
        <ele>1068.75</ele>
        <time>2024-05-29T15:05:31.005Z</time>
      </trkpt>
      <trkpt lat="42.92516" lon="-0.98794">
        <ele>1070.8</ele>
        <time>2024-05-29T15:05:36.717Z</time>
      </trkpt>
      <trkpt lat="42.92518" lon="-0.98802">
        <ele>1072.86</ele>
        <time>2024-05-29T15:05:42.430Z</time>
      </trkpt>
      <trkpt lat="42.92519" lon="-0.98815">
        <ele>1074.9</ele>
        <time>2024-05-29T15:05:48.145Z</time>
      </trkpt>
      <trkpt lat="42.92517" lon="-0.98823">
        <ele>1076.93</ele>
        <time>2024-05-29T15:05:53.861Z</time>
      </trkpt>
      <trkpt lat="42.92513" lon="-0.98829">
        <ele>1078.95</ele>
        <time>2024-05-29T15:05:59.578Z</time>
      </trkpt>
      <trkpt lat="42.92507" lon="-0.98833">
        <ele>1080.95</ele>
        <time>2024-05-29T15:06:05.296Z</time>
      </trkpt>
      <trkpt lat="42.92443" lon="-0.98838">
        <ele>1083.05</ele>
        <time>2024-05-29T15:06:11.024Z</time>
      </trkpt>
      <trkpt lat="42.92371" lon="-0.98829">
        <ele>1085.5</ele>
        <time>2024-05-29T15:06:16.764Z</time>
      </trkpt>
      <trkpt lat="42.92362" lon="-0.98826">
        <ele>1087.39</ele>
        <time>2024-05-29T15:06:22.505Z</time>
      </trkpt>
      <trkpt lat="42.92327" lon="-0.98804">
        <ele>1088.95</ele>
        <time>2024-05-29T15:06:28.252Z</time>
      </trkpt>
      <trkpt lat="42.92319" lon="-0.98802">
        <ele>1090.75</ele>
        <time>2024-05-29T15:06:34.001Z</time>
      </trkpt>
      <trkpt lat="42.92311" lon="-0.98802">
        <ele>1092.46</ele>
        <time>2024-05-29T15:06:39.751Z</time>
      </trkpt>
      <trkpt lat="42.92298" lon="-0.98807">
        <ele>1094.2</ele>
        <time>2024-05-29T15:06:45.503Z</time>
      </trkpt>
      <trkpt lat="42.92279" lon="-0.98828">
        <ele>1096.28</ele>
        <time>2024-05-29T15:06:51.259Z</time>
      </trkpt>
      <trkpt lat="42.92272" lon="-0.98833">
        <ele>1098.04</ele>
        <time>2024-05-29T15:06:57.016Z</time>
      </trkpt>
      <trkpt lat="42.92263" lon="-0.98835">
        <ele>1099.68</ele>
        <time>2024-05-29T15:07:02.775Z</time>
      </trkpt>
      <trkpt lat="42.92254" lon="-0.98834">
        <ele>1101.17</ele>
        <time>2024-05-29T15:07:08.535Z</time>
      </trkpt>
      <trkpt lat="42.92163" lon="-0.98797">
        <ele>1102.45</ele>
        <time>2024-05-29T15:07:14.310Z</time>
      </trkpt>
      <trkpt lat="42.92149" lon="-0.98791">
        <ele>1103.64</ele>
        <time>2024-05-29T15:07:20.088Z</time>
      </trkpt>
      <trkpt lat="42.92139" lon="-0.98792">
        <ele>1104.88</ele>
        <time>2024-05-29T15:07:25.867Z</time>
      </trkpt>
      <trkpt lat="42.92123" lon="-0.98801">
        <ele>1106.16</ele>
        <time>2024-05-29T15:07:31.649Z</time>
      </trkpt>
      <trkpt lat="42.92104" lon="-0.98817">
        <ele>1107.44</ele>
        <time>2024-05-29T15:07:37.435Z</time>
      </trkpt>
      <trkpt lat="42.92091" lon="-0.98831">
        <ele>1108.62</ele>
        <time>2024-05-29T15:07:43.223Z</time>
      </trkpt>
      <trkpt lat="42.92082" lon="-0.98844">
        <ele>1109.69</ele>
        <time>2024-05-29T15:07:49.013Z</time>
      </trkpt>
      <trkpt lat="42.9206" lon="-0.9888">
        <ele>1110.8</ele>
        <time>2024-05-29T15:07:54.809Z</time>
      </trkpt>
      <trkpt lat="42.92047" lon="-0.98908">
        <ele>1111.66</ele>
        <time>2024-05-29T15:08:00.609Z</time>
      </trkpt>
      <trkpt lat="42.92043" lon="-0.98923">
        <ele>1112.38</ele>
        <time>2024-05-29T15:08:06.411Z</time>
      </trkpt>
      <trkpt lat="42.9204" lon="-0.98952">
        <ele>1113.12</ele>
        <time>2024-05-29T15:08:12.216Z</time>
      </trkpt>
      <trkpt lat="42.9204" lon="-0.98952">
        <ele>1113.61</ele>
        <time>2024-05-29T15:08:18.021Z</time>
      </trkpt>
      <trkpt lat="42.92045" lon="-0.98972">
        <ele>1114.13</ele>
        <time>2024-05-29T15:08:23.829Z</time>
      </trkpt>
      <trkpt lat="42.92049" lon="-0.9898">
        <ele>1114.39</ele>
        <time>2024-05-29T15:08:29.638Z</time>
      </trkpt>
      <trkpt lat="42.92057" lon="-0.9899">
        <ele>1114.5</ele>
        <time>2024-05-29T15:08:35.448Z</time>
      </trkpt>
      <trkpt lat="42.92064" lon="-0.98993">
        <ele>1114.39</ele>
        <time>2024-05-29T15:08:41.260Z</time>
      </trkpt>
      <trkpt lat="42.92131" lon="-0.99">
        <ele>1114.43</ele>
        <time>2024-05-29T15:08:47.082Z</time>
      </trkpt>
      <trkpt lat="42.92146" lon="-0.99004">
        <ele>1113.84</ele>
        <time>2024-05-29T15:08:52.907Z</time>
      </trkpt>
      <trkpt lat="42.92174" lon="-0.99013">
        <ele>1113.05</ele>
        <time>2024-05-29T15:08:58.736Z</time>
      </trkpt>
      <trkpt lat="42.92249" lon="-0.9905">
        <ele>1111.2</ele>
        <time>2024-05-29T15:09:04.578Z</time>
      </trkpt>
      <trkpt lat="42.92267" lon="-0.99052">
        <ele>1109.95</ele>
        <time>2024-05-29T15:09:10.423Z</time>
      </trkpt>
      <trkpt lat="42.92277" lon="-0.9905">
        <ele>1108.6</ele>
        <time>2024-05-29T15:09:16.270Z</time>
      </trkpt>
      <trkpt lat="42.92304" lon="-0.99031">
        <ele>1107.26</ele>
        <time>2024-05-29T15:09:22.121Z</time>
      </trkpt>
      <trkpt lat="42.92313" lon="-0.99028">
        <ele>1105.43</ele>
        <time>2024-05-29T15:09:27.974Z</time>
      </trkpt>
      <trkpt lat="42.92383" lon="-0.99028">
        <ele>1103.03</ele>
        <time>2024-05-29T15:09:33.838Z</time>
      </trkpt>
      <trkpt lat="42.9241" lon="-0.99038">
        <ele>1100.85</ele>
        <time>2024-05-29T15:09:39.707Z</time>
      </trkpt>
      <trkpt lat="42.92451" lon="-0.99062">
        <ele>1098.11</ele>
        <time>2024-05-29T15:09:45.583Z</time>
      </trkpt>
      <trkpt lat="42.92467" lon="-0.99068">
        <ele>1095.72</ele>
        <time>2024-05-29T15:09:51.461Z</time>
      </trkpt>
      <trkpt lat="42.92474" lon="-0.99072">
        <ele>1093.19</ele>
        <time>2024-05-29T15:09:57.341Z</time>
      </trkpt>
      <trkpt lat="42.92486" lon="-0.99088">
        <ele>1090.41</ele>
        <time>2024-05-29T15:10:03.223Z</time>
      </trkpt>
      <trkpt lat="42.92489" lon="-0.99099">
        <ele>1087.58</ele>
        <time>2024-05-29T15:10:09.107Z</time>
      </trkpt>
      <trkpt lat="42.92491" lon="-0.99122">
        <ele>1084.46</ele>
        <time>2024-05-29T15:10:14.993Z</time>
      </trkpt>
      <trkpt lat="42.92497" lon="-0.9919">
        <ele>1081.15</ele>
        <time>2024-05-29T15:10:20.888Z</time>
      </trkpt>
      <trkpt lat="42.92499" lon="-0.99203">
        <ele>1078.39</ele>
        <time>2024-05-29T15:10:26.784Z</time>
      </trkpt>
      <trkpt lat="42.92505" lon="-0.9922">
        <ele>1075.78</ele>
        <time>2024-05-29T15:10:32.682Z</time>
      </trkpt>
      <trkpt lat="42.92509" lon="-0.99234">
        <ele>1073.16</ele>
        <time>2024-05-29T15:10:38.582Z</time>
      </trkpt>
      <trkpt lat="42.92511" lon="-0.99255">
        <ele>1070.57</ele>
        <time>2024-05-29T15:10:44.484Z</time>
      </trkpt>
      <trkpt lat="42.92511" lon="-0.99303">
        <ele>1068.01</ele>
        <time>2024-05-29T15:10:50.392Z</time>
      </trkpt>
      <trkpt lat="42.92509" lon="-0.99334">
        <ele>1065.67</ele>
        <time>2024-05-29T15:10:56.304Z</time>
      </trkpt>
      <trkpt lat="42.92483" lon="-0.9942">
        <ele>1063.18</ele>
        <time>2024-05-29T15:11:02.227Z</time>
      </trkpt>
      <trkpt lat="42.92479" lon="-0.99442">
        <ele>1061.3</ele>
        <time>2024-05-29T15:11:08.152Z</time>
      </trkpt>
      <trkpt lat="42.92475" lon="-0.99465">
        <ele>1059.57</ele>
        <time>2024-05-29T15:11:14.080Z</time>
      </trkpt>
      <trkpt lat="42.92473" lon="-0.99498">
        <ele>1057.9</ele>
        <time>2024-05-29T15:11:20.012Z</time>
      </trkpt>
      <trkpt lat="42.92472" lon="-0.99555">
        <ele>1056.19</ele>
        <time>2024-05-29T15:11:25.951Z</time>
      </trkpt>
      <trkpt lat="42.92475" lon="-0.99599">
        <ele>1054.73</ele>
        <time>2024-05-29T15:11:31.895Z</time>
      </trkpt>
      <trkpt lat="42.92483" lon="-0.99629">
        <ele>1053.49</ele>
        <time>2024-05-29T15:11:37.843Z</time>
      </trkpt>
      <trkpt lat="42.92493" lon="-0.99708">
        <ele>1052.01</ele>
        <time>2024-05-29T15:11:43.800Z</time>
      </trkpt>
      <trkpt lat="42.92495" lon="-0.99721">
        <ele>1050.93</ele>
        <time>2024-05-29T15:11:49.759Z</time>
      </trkpt>
      <trkpt lat="42.92499" lon="-0.99735">
        <ele>1050.01</ele>
        <time>2024-05-29T15:11:55.719Z</time>
      </trkpt>
      <trkpt lat="42.92505" lon="-0.99743">
        <ele>1049.28</ele>
        <time>2024-05-29T15:12:01.681Z</time>
      </trkpt>
      <trkpt lat="42.92513" lon="-0.99748">
        <ele>1048.62</ele>
        <time>2024-05-29T15:12:07.644Z</time>
      </trkpt>
      <trkpt lat="42.92522" lon="-0.99751">
        <ele>1047.96</ele>
        <time>2024-05-29T15:12:13.609Z</time>
      </trkpt>
      <trkpt lat="42.9253" lon="-0.99752">
        <ele>1047.37</ele>
        <time>2024-05-29T15:12:19.575Z</time>
      </trkpt>
      <trkpt lat="42.92543" lon="-0.99751">
        <ele>1046.79</ele>
        <time>2024-05-29T15:12:25.543Z</time>
      </trkpt>
      <trkpt lat="42.92604" lon="-0.99735">
        <ele>1046.18</ele>
        <time>2024-05-29T15:12:31.521Z</time>
      </trkpt>
      <trkpt lat="42.92625" lon="-0.99724">
        <ele>1045.45</ele>
        <time>2024-05-29T15:12:37.503Z</time>
      </trkpt>
      <trkpt lat="42.92631" lon="-0.99716">
        <ele>1044.67</ele>
        <time>2024-05-29T15:12:43.486Z</time>
      </trkpt>
      <trkpt lat="42.92645" lon="-0.99688">
        <ele>1043.86</ele>
        <time>2024-05-29T15:12:49.473Z</time>
      </trkpt>
      <trkpt lat="42.9265" lon="-0.9967">
        <ele>1042.93</ele>
        <time>2024-05-29T15:12:55.462Z</time>
      </trkpt>
      <trkpt lat="42.9267" lon="-0.99571">
        <ele>1041.77</ele>
        <time>2024-05-29T15:13:01.463Z</time>
      </trkpt>
      <trkpt lat="42.92693" lon="-0.99462">
        <ele>1040.22</ele>
        <time>2024-05-29T15:13:07.478Z</time>
      </trkpt>
      <trkpt lat="42.92701" lon="-0.99443">
        <ele>1038.68</ele>
        <time>2024-05-29T15:13:13.495Z</time>
      </trkpt>
      <trkpt lat="42.92705" lon="-0.99436">
        <ele>1036.97</ele>
        <time>2024-05-29T15:13:19.513Z</time>
      </trkpt>
      <trkpt lat="42.92709" lon="-0.99434">
        <ele>1035.08</ele>
        <time>2024-05-29T15:13:25.532Z</time>
      </trkpt>
      <trkpt lat="42.92715" lon="-0.99434">
        <ele>1033</ele>
        <time>2024-05-29T15:13:31.552Z</time>
      </trkpt>
      <trkpt lat="42.92721" lon="-0.99437">
        <ele>1030.69</ele>
        <time>2024-05-29T15:13:37.573Z</time>
      </trkpt>
      <trkpt lat="42.92724" lon="-0.99452">
        <ele>1028.12</ele>
        <time>2024-05-29T15:13:43.596Z</time>
      </trkpt>
      <trkpt lat="42.92729" lon="-0.99498">
        <ele>1025.24</ele>
        <time>2024-05-29T15:13:49.624Z</time>
      </trkpt>
      <trkpt lat="42.92732" lon="-0.99514">
        <ele>1022.39</ele>
        <time>2024-05-29T15:13:55.654Z</time>
      </trkpt>
      <trkpt lat="42.92765" lon="-0.99615">
        <ele>1019.02</ele>
        <time>2024-05-29T15:14:01.697Z</time>
      </trkpt>
      <trkpt lat="42.92774" lon="-0.99646">
        <ele>1015.77</ele>
        <time>2024-05-29T15:14:07.744Z</time>
      </trkpt>
      <trkpt lat="42.92777" lon="-0.99666">
        <ele>1012.49</ele>
        <time>2024-05-29T15:14:13.793Z</time>
      </trkpt>
      <trkpt lat="42.92787" lon="-0.9983">
        <ele>1008.18</ele>
        <time>2024-05-29T15:14:19.862Z</time>
      </trkpt>
      <trkpt lat="42.92785" lon="-0.9985">
        <ele>1004.74</ele>
        <time>2024-05-29T15:14:25.933Z</time>
      </trkpt>
      <trkpt lat="42.9278" lon="-0.99874">
        <ele>1001.27</ele>
        <time>2024-05-29T15:14:32.007Z</time>
      </trkpt>
      <trkpt lat="42.92753" lon="-0.99937">
        <ele>997.52</ele>
        <time>2024-05-29T15:14:38.090Z</time>
      </trkpt>
      <trkpt lat="42.92749" lon="-0.99954">
        <ele>994.13</ele>
        <time>2024-05-29T15:14:44.175Z</time>
      </trkpt>
      <trkpt lat="42.92744" lon="-0.99998">
        <ele>990.92</ele>
        <time>2024-05-29T15:14:50.265Z</time>
      </trkpt>
      <trkpt lat="42.92737" lon="-1.00017">
        <ele>987.7</ele>
        <time>2024-05-29T15:14:56.358Z</time>
      </trkpt>
      <trkpt lat="42.92729" lon="-1.00034">
        <ele>984.43</ele>
        <time>2024-05-29T15:15:02.453Z</time>
      </trkpt>
      <trkpt lat="42.9272" lon="-1.00049">
        <ele>981.26</ele>
        <time>2024-05-29T15:15:08.550Z</time>
      </trkpt>
      <trkpt lat="42.92709" lon="-1.00061">
        <ele>978.12</ele>
        <time>2024-05-29T15:15:14.649Z</time>
      </trkpt>
      <trkpt lat="42.92646" lon="-1.00113">
        <ele>974.57</ele>
        <time>2024-05-29T15:15:20.760Z</time>
      </trkpt>
      <trkpt lat="42.92633" lon="-1.00126">
        <ele>971.44</ele>
        <time>2024-05-29T15:15:26.874Z</time>
      </trkpt>
      <trkpt lat="42.92625" lon="-1.00139">
        <ele>968.41</ele>
        <time>2024-05-29T15:15:32.990Z</time>
      </trkpt>
      <trkpt lat="42.9262" lon="-1.00154">
        <ele>965.54</ele>
        <time>2024-05-29T15:15:39.108Z</time>
      </trkpt>
      <trkpt lat="42.92618" lon="-1.00171">
        <ele>962.8</ele>
        <time>2024-05-29T15:15:45.228Z</time>
      </trkpt>
      <trkpt lat="42.92623" lon="-1.00282">
        <ele>960.04</ele>
        <time>2024-05-29T15:15:51.361Z</time>
      </trkpt>
      <trkpt lat="42.92623" lon="-1.00304">
        <ele>957.42</ele>
        <time>2024-05-29T15:15:57.496Z</time>
      </trkpt>
      <trkpt lat="42.92617" lon="-1.00336">
        <ele>954.73</ele>
        <time>2024-05-29T15:16:03.635Z</time>
      </trkpt>
      <trkpt lat="42.92603" lon="-1.00384">
        <ele>952.07</ele>
        <time>2024-05-29T15:16:09.780Z</time>
      </trkpt>
      <trkpt lat="42.92603" lon="-1.00384">
        <ele>949.78</ele>
        <time>2024-05-29T15:16:15.925Z</time>
      </trkpt>
      <trkpt lat="42.92591" lon="-1.00425">
        <ele>947.34</ele>
        <time>2024-05-29T15:16:22.076Z</time>
      </trkpt>
      <trkpt lat="42.92585" lon="-1.00439">
        <ele>945.12</ele>
        <time>2024-05-29T15:16:28.228Z</time>
      </trkpt>
      <trkpt lat="42.92576" lon="-1.00453">
        <ele>942.9</ele>
        <time>2024-05-29T15:16:34.383Z</time>
      </trkpt>
      <trkpt lat="42.92567" lon="-1.00464">
        <ele>940.76</ele>
        <time>2024-05-29T15:16:40.540Z</time>
      </trkpt>
      <trkpt lat="42.92552" lon="-1.00477">
        <ele>938.78</ele>
        <time>2024-05-29T15:16:46.699Z</time>
      </trkpt>
      <trkpt lat="42.92529" lon="-1.00493">
        <ele>936.85</ele>
        <time>2024-05-29T15:16:52.863Z</time>
      </trkpt>
      <trkpt lat="42.92523" lon="-1.00497">
        <ele>934.91</ele>
        <time>2024-05-29T15:16:59.028Z</time>
      </trkpt>
      <trkpt lat="42.92508" lon="-1.005">
        <ele>933</ele>
        <time>2024-05-29T15:17:05.195Z</time>
      </trkpt>
      <trkpt lat="42.92426" lon="-1.00488">
        <ele>930.87</ele>
        <time>2024-05-29T15:17:11.375Z</time>
      </trkpt>
      <trkpt lat="42.92414" lon="-1.0049">
        <ele>928.73</ele>
        <time>2024-05-29T15:17:17.557Z</time>
      </trkpt>
      <trkpt lat="42.92407" lon="-1.00494">
        <ele>926.68</ele>
        <time>2024-05-29T15:17:23.740Z</time>
      </trkpt>
      <trkpt lat="42.924" lon="-1.00505">
        <ele>924.64</ele>
        <time>2024-05-29T15:17:29.925Z</time>
      </trkpt>
      <trkpt lat="42.92395" lon="-1.00517">
        <ele>922.6</ele>
        <time>2024-05-29T15:17:36.112Z</time>
      </trkpt>
      <trkpt lat="42.92371" lon="-1.00609">
        <ele>920.25</ele>
        <time>2024-05-29T15:17:42.310Z</time>
      </trkpt>
      <trkpt lat="42.92367" lon="-1.00624">
        <ele>918.21</ele>
        <time>2024-05-29T15:17:48.510Z</time>
      </trkpt>
      <trkpt lat="42.9235" lon="-1.00658">
        <ele>916.08</ele>
        <time>2024-05-29T15:17:54.715Z</time>
      </trkpt>
      <trkpt lat="42.92347" lon="-1.00669">
        <ele>914.13</ele>
        <time>2024-05-29T15:18:00.921Z</time>
      </trkpt>
      <trkpt lat="42.92348" lon="-1.00685">
        <ele>912.2</ele>
        <time>2024-05-29T15:18:07.129Z</time>
      </trkpt>
      <trkpt lat="42.92352" lon="-1.00693">
        <ele>910.26</ele>
        <time>2024-05-29T15:18:13.338Z</time>
      </trkpt>
      <trkpt lat="42.9236" lon="-1.00697">
        <ele>908.42</ele>
        <time>2024-05-29T15:18:19.549Z</time>
      </trkpt>
      <trkpt lat="42.92372" lon="-1.00694">
        <ele>906.69</ele>
        <time>2024-05-29T15:18:25.762Z</time>
      </trkpt>
      <trkpt lat="42.92434" lon="-1.00673">
        <ele>904.8</ele>
        <time>2024-05-29T15:18:31.985Z</time>
      </trkpt>
      <trkpt lat="42.92543" lon="-1.00629">
        <ele>902.62</ele>
        <time>2024-05-29T15:18:38.226Z</time>
      </trkpt>
      <trkpt lat="42.92606" lon="-1.006">
        <ele>900.7</ele>
        <time>2024-05-29T15:18:44.478Z</time>
      </trkpt>
      <trkpt lat="42.92696" lon="-1.00576">
        <ele>899.05</ele>
        <time>2024-05-29T15:18:50.744Z</time>
      </trkpt>
      <trkpt lat="42.92741" lon="-1.00558">
        <ele>897.57</ele>
        <time>2024-05-29T15:18:57.018Z</time>
      </trkpt>
      <trkpt lat="42.92781" lon="-1.00537">
        <ele>896.38</ele>
        <time>2024-05-29T15:19:03.299Z</time>
      </trkpt>
      <trkpt lat="42.92832" lon="-1.00496">
        <ele>895.3</ele>
        <time>2024-05-29T15:19:09.589Z</time>
      </trkpt>
      <trkpt lat="42.92849" lon="-1.00485">
        <ele>894.38</ele>
        <time>2024-05-29T15:19:15.882Z</time>
      </trkpt>
      <trkpt lat="42.92857" lon="-1.00483">
        <ele>893.65</ele>
        <time>2024-05-29T15:19:22.177Z</time>
      </trkpt>
      <trkpt lat="42.92866" lon="-1.00484">
        <ele>893.08</ele>
        <time>2024-05-29T15:19:28.473Z</time>
      </trkpt>
      <trkpt lat="42.92872" lon="-1.0049">
        <ele>892.69</ele>
        <time>2024-05-29T15:19:34.770Z</time>
      </trkpt>
      <trkpt lat="42.92883" lon="-1.00503">
        <ele>892.5</ele>
        <time>2024-05-29T15:19:41.070Z</time>
      </trkpt>
      <trkpt lat="42.92888" lon="-1.00512">
        <ele>892.57</ele>
        <time>2024-05-29T15:19:47.371Z</time>
      </trkpt>
      <trkpt lat="42.92893" lon="-1.00531">
        <ele>892.95</ele>
        <time>2024-05-29T15:19:53.674Z</time>
      </trkpt>
      <trkpt lat="42.92894" lon="-1.00541">
        <ele>893.52</ele>
        <time>2024-05-29T15:19:59.978Z</time>
      </trkpt>
      <trkpt lat="42.929" lon="-1.0054">
        <ele>894.22</ele>
        <time>2024-05-29T15:20:06.283Z</time>
      </trkpt>
      <trkpt lat="42.92909" lon="-1.00535">
        <ele>895.12</ele>
        <time>2024-05-29T15:20:12.590Z</time>
      </trkpt>
      <trkpt lat="42.92957" lon="-1.00488">
        <ele>896.55</ele>
        <time>2024-05-29T15:20:18.906Z</time>
      </trkpt>
      <trkpt lat="42.92978" lon="-1.00467">
        <ele>897.79</ele>
        <time>2024-05-29T15:20:25.227Z</time>
      </trkpt>
      <trkpt lat="42.93049" lon="-1.00377">
        <ele>899.23</ele>
        <time>2024-05-29T15:20:31.563Z</time>
      </trkpt>
      <trkpt lat="42.93057" lon="-1.00369">
        <ele>900.67</ele>
        <time>2024-05-29T15:20:37.901Z</time>
      </trkpt>
      <trkpt lat="42.93075" lon="-1.0036">
        <ele>902.32</ele>
        <time>2024-05-29T15:20:44.242Z</time>
      </trkpt>
      <trkpt lat="42.931" lon="-1.00355">
        <ele>904.2</ele>
        <time>2024-05-29T15:20:50.587Z</time>
      </trkpt>
      <trkpt lat="42.93113" lon="-1.00352">
        <ele>905.95</ele>
        <time>2024-05-29T15:20:56.934Z</time>
      </trkpt>
      <trkpt lat="42.93126" lon="-1.00346">
        <ele>907.72</ele>
        <time>2024-05-29T15:21:03.283Z</time>
      </trkpt>
      <trkpt lat="42.9314" lon="-1.00335">
        <ele>909.52</ele>
        <time>2024-05-29T15:21:09.635Z</time>
      </trkpt>
      <trkpt lat="42.93149" lon="-1.00323">
        <ele>911.35</ele>
        <time>2024-05-29T15:21:15.989Z</time>
      </trkpt>
      <trkpt lat="42.93221" lon="-1.00223">
        <ele>913.39</ele>
        <time>2024-05-29T15:21:22.359Z</time>
      </trkpt>
      <trkpt lat="42.93241" lon="-1.00202">
        <ele>915.42</ele>
        <time>2024-05-29T15:21:28.733Z</time>
      </trkpt>
      <trkpt lat="42.93276" lon="-1.00178">
        <ele>917.66</ele>
        <time>2024-05-29T15:21:35.113Z</time>
      </trkpt>
      <trkpt lat="42.93276" lon="-1.00178">
        <ele>919.73</ele>
        <time>2024-05-29T15:21:41.493Z</time>
      </trkpt>
      <trkpt lat="42.93295" lon="-1.0016">
        <ele>921.98</ele>
        <time>2024-05-29T15:21:47.877Z</time>
      </trkpt>
      <trkpt lat="42.93315" lon="-1.00135">
        <ele>924.22</ele>
        <time>2024-05-29T15:21:54.266Z</time>
      </trkpt>
      <trkpt lat="42.93332" lon="-1.00104">
        <ele>926.38</ele>
        <time>2024-05-29T15:22:00.659Z</time>
      </trkpt>
      <trkpt lat="42.93365" lon="-1.0002">
        <ele>928.73</ele>
        <time>2024-05-29T15:22:07.063Z</time>
      </trkpt>
      <trkpt lat="42.93387" lon="-0.99978">
        <ele>930.96</ele>
        <time>2024-05-29T15:22:13.473Z</time>
      </trkpt>
      <trkpt lat="42.93403" lon="-0.9996">
        <ele>933.18</ele>
        <time>2024-05-29T15:22:19.887Z</time>
      </trkpt>
      <trkpt lat="42.93413" lon="-0.99954">
        <ele>935.35</ele>
        <time>2024-05-29T15:22:26.302Z</time>
      </trkpt>
      <trkpt lat="42.93426" lon="-0.99951">
        <ele>937.54</ele>
        <time>2024-05-29T15:22:32.720Z</time>
      </trkpt>
      <trkpt lat="42.93459" lon="-0.99951">
        <ele>939.88</ele>
        <time>2024-05-29T15:22:39.143Z</time>
      </trkpt>
      <trkpt lat="42.93484" lon="-0.99946">
        <ele>942.11</ele>
        <time>2024-05-29T15:22:45.570Z</time>
      </trkpt>
      <trkpt lat="42.93494" lon="-0.99939">
        <ele>944.2</ele>
        <time>2024-05-29T15:22:51.999Z</time>
      </trkpt>
      <trkpt lat="42.93544" lon="-0.99895">
        <ele>946.46</ele>
        <time>2024-05-29T15:22:58.437Z</time>
      </trkpt>
      <trkpt lat="42.9356" lon="-0.99884">
        <ele>948.52</ele>
        <time>2024-05-29T15:23:04.878Z</time>
      </trkpt>
      <trkpt lat="42.93584" lon="-0.99882">
        <ele>950.61</ele>
        <time>2024-05-29T15:23:11.323Z</time>
      </trkpt>
      <trkpt lat="42.9363" lon="-0.99889">
        <ele>952.78</ele>
        <time>2024-05-29T15:23:17.775Z</time>
      </trkpt>
      <trkpt lat="42.93639" lon="-0.99887">
        <ele>954.5</ele>
        <time>2024-05-29T15:23:24.229Z</time>
      </trkpt>
      <trkpt lat="42.93647" lon="-0.99882">
        <ele>956.1</ele>
        <time>2024-05-29T15:23:30.684Z</time>
      </trkpt>
      <trkpt lat="42.93652" lon="-0.99875">
        <ele>957.59</ele>
        <time>2024-05-29T15:23:37.140Z</time>
      </trkpt>
      <trkpt lat="42.93656" lon="-0.99863">
        <ele>959.03</ele>
        <time>2024-05-29T15:23:43.598Z</time>
      </trkpt>
      <trkpt lat="42.93654" lon="-0.99853">
        <ele>960.35</ele>
        <time>2024-05-29T15:23:50.057Z</time>
      </trkpt>
      <trkpt lat="42.93651" lon="-0.99843">
        <ele>961.57</ele>
        <time>2024-05-29T15:23:56.517Z</time>
      </trkpt>
      <trkpt lat="42.93644" lon="-0.99831">
        <ele>962.7</ele>
        <time>2024-05-29T15:24:02.979Z</time>
      </trkpt>
      <trkpt lat="42.93634" lon="-0.9982">
        <ele>963.75</ele>
        <time>2024-05-29T15:24:09.443Z</time>
      </trkpt>
      <trkpt lat="42.93623" lon="-0.9981">
        <ele>964.71</ele>
        <time>2024-05-29T15:24:15.909Z</time>
      </trkpt>
      <trkpt lat="42.93606" lon="-0.998">
        <ele>965.64</ele>
        <time>2024-05-29T15:24:22.378Z</time>
      </trkpt>
      <trkpt lat="42.93601" lon="-0.99793">
        <ele>966.62</ele>
        <time>2024-05-29T15:24:28.848Z</time>
      </trkpt>
      <trkpt lat="42.93599" lon="-0.99786">
        <ele>967.54</ele>
        <time>2024-05-29T15:24:35.319Z</time>
      </trkpt>
      <trkpt lat="42.93599" lon="-0.99769">
        <ele>968.47</ele>
        <time>2024-05-29T15:24:41.792Z</time>
      </trkpt>
      <trkpt lat="42.93604" lon="-0.9976">
        <ele>969.36</ele>
        <time>2024-05-29T15:24:48.267Z</time>
      </trkpt>
      <trkpt lat="42.93611" lon="-0.99756">
        <ele>970.26</ele>
        <time>2024-05-29T15:24:54.743Z</time>
      </trkpt>
      <trkpt lat="42.93618" lon="-0.99755">
        <ele>971.2</ele>
        <time>2024-05-29T15:25:01.220Z</time>
      </trkpt>
      <trkpt lat="42.93636" lon="-0.99756">
        <ele>972.2</ele>
        <time>2024-05-29T15:25:07.700Z</time>
      </trkpt>
      <trkpt lat="42.93649" lon="-0.9976">
        <ele>973.25</ele>
        <time>2024-05-29T15:25:14.182Z</time>
      </trkpt>
      <trkpt lat="42.93721" lon="-0.99802">
        <ele>974.73</ele>
        <time>2024-05-29T15:25:20.677Z</time>
      </trkpt>
      <trkpt lat="42.93795" lon="-0.99829">
        <ele>976.35</ele>
        <time>2024-05-29T15:25:27.184Z</time>
      </trkpt>
      <trkpt lat="42.93833" lon="-0.99854">
        <ele>977.74</ele>
        <time>2024-05-29T15:25:33.698Z</time>
      </trkpt>
      <trkpt lat="42.93843" lon="-0.99853">
        <ele>978.7</ele>
        <time>2024-05-29T15:25:40.213Z</time>
      </trkpt>
      <trkpt lat="42.93848" lon="-0.99848">
        <ele>979.56</ele>
        <time>2024-05-29T15:25:46.729Z</time>
      </trkpt>
      <trkpt lat="42.93851" lon="-0.99842">
        <ele>980.46</ele>
        <time>2024-05-29T15:25:53.246Z</time>
      </trkpt>
      <trkpt lat="42.93852" lon="-0.99834">
        <ele>981.27</ele>
        <time>2024-05-29T15:25:59.764Z</time>
      </trkpt>
      <trkpt lat="42.93852" lon="-0.99825">
        <ele>982.03</ele>
        <time>2024-05-29T15:26:06.283Z</time>
      </trkpt>
      <trkpt lat="42.9385" lon="-0.99817">
        <ele>982.73</ele>
        <time>2024-05-29T15:26:12.803Z</time>
      </trkpt>
      <trkpt lat="42.93797" lon="-0.9972">
        <ele>983.35</ele>
        <time>2024-05-29T15:26:19.337Z</time>
      </trkpt>
      <trkpt lat="42.93789" lon="-0.99702">
        <ele>984.11</ele>
        <time>2024-05-29T15:26:25.874Z</time>
      </trkpt>
      <trkpt lat="42.93785" lon="-0.99691">
        <ele>984.91</ele>
        <time>2024-05-29T15:26:32.412Z</time>
      </trkpt>
      <trkpt lat="42.93784" lon="-0.99684">
        <ele>985.71</ele>
        <time>2024-05-29T15:26:38.951Z</time>
      </trkpt>
      <trkpt lat="42.93786" lon="-0.99647">
        <ele>986.79</ele>
        <time>2024-05-29T15:26:45.494Z</time>
      </trkpt>
      <trkpt lat="42.93784" lon="-0.99638">
        <ele>987.61</ele>
        <time>2024-05-29T15:26:52.038Z</time>
      </trkpt>
      <trkpt lat="42.93781" lon="-0.99628">
        <ele>988.43</ele>
        <time>2024-05-29T15:26:58.584Z</time>
      </trkpt>
      <trkpt lat="42.93775" lon="-0.99617">
        <ele>989.23</ele>
        <time>2024-05-29T15:27:05.131Z</time>
      </trkpt>
      <trkpt lat="42.93757" lon="-0.99596">
        <ele>990.07</ele>
        <time>2024-05-29T15:27:11.682Z</time>
      </trkpt>
      <trkpt lat="42.93752" lon="-0.99587">
        <ele>991.11</ele>
        <time>2024-05-29T15:27:18.234Z</time>
      </trkpt>
      <trkpt lat="42.93749" lon="-0.99575">
        <ele>992.36</ele>
        <time>2024-05-29T15:27:24.788Z</time>
      </trkpt>
      <trkpt lat="42.93747" lon="-0.99564">
        <ele>993.73</ele>
        <time>2024-05-29T15:27:31.343Z</time>
      </trkpt>
      <trkpt lat="42.93748" lon="-0.99552">
        <ele>995.32</ele>
        <time>2024-05-29T15:27:37.900Z</time>
      </trkpt>
      <trkpt lat="42.9375" lon="-0.99541">
        <ele>997.11</ele>
        <time>2024-05-29T15:27:44.458Z</time>
      </trkpt>
      <trkpt lat="42.93755" lon="-0.9953">
        <ele>998.99</ele>
        <time>2024-05-29T15:27:51.018Z</time>
      </trkpt>
      <trkpt lat="42.93761" lon="-0.99523">
        <ele>1001.06</ele>
        <time>2024-05-29T15:27:57.579Z</time>
      </trkpt>
      <trkpt lat="42.93767" lon="-0.99516">
        <ele>1003.29</ele>
        <time>2024-05-29T15:28:04.141Z</time>
      </trkpt>
      <trkpt lat="42.93777" lon="-0.99511">
        <ele>1005.71</ele>
        <time>2024-05-29T15:28:10.705Z</time>
      </trkpt>
      <trkpt lat="42.93843" lon="-0.99489">
        <ele>1008.81</ele>
        <time>2024-05-29T15:28:17.280Z</time>
      </trkpt>
      <trkpt lat="42.9393" lon="-0.99442">
        <ele>1011.76</ele>
        <time>2024-05-29T15:28:23.870Z</time>
      </trkpt>
      <trkpt lat="42.93951" lon="-0.99436">
        <ele>1014.62</ele>
        <time>2024-05-29T15:28:30.463Z</time>
      </trkpt>
      <trkpt lat="42.93971" lon="-0.99436">
        <ele>1017.58</ele>
        <time>2024-05-29T15:28:37.059Z</time>
      </trkpt>
      <trkpt lat="42.94032" lon="-0.99449">
        <ele>1021.22</ele>
        <time>2024-05-29T15:28:43.665Z</time>
      </trkpt>
      <trkpt lat="42.94062" lon="-0.99452">
        <ele>1024.46</ele>
        <time>2024-05-29T15:28:50.276Z</time>
      </trkpt>
      <trkpt lat="42.94122" lon="-0.99441">
        <ele>1027.59</ele>
        <time>2024-05-29T15:28:56.897Z</time>
      </trkpt>
      <trkpt lat="42.94166" lon="-0.99427">
        <ele>1030.83</ele>
        <time>2024-05-29T15:29:03.525Z</time>
      </trkpt>
      <trkpt lat="42.94183" lon="-0.99425">
        <ele>1033.92</ele>
        <time>2024-05-29T15:29:10.156Z</time>
      </trkpt>
      <trkpt lat="42.94192" lon="-0.99426">
        <ele>1036.97</ele>
        <time>2024-05-29T15:29:16.788Z</time>
      </trkpt>
      <trkpt lat="42.94213" lon="-0.99435">
        <ele>1040.1</ele>
        <time>2024-05-29T15:29:23.424Z</time>
      </trkpt>
      <trkpt lat="42.94225" lon="-0.99445">
        <ele>1043.14</ele>
        <time>2024-05-29T15:29:30.062Z</time>
      </trkpt>
      <trkpt lat="42.94233" lon="-0.99456">
        <ele>1046.17</ele>
        <time>2024-05-29T15:29:36.702Z</time>
      </trkpt>
      <trkpt lat="42.94256" lon="-0.99506">
        <ele>1049.72</ele>
        <time>2024-05-29T15:29:43.349Z</time>
      </trkpt>
      <trkpt lat="42.94265" lon="-0.99518">
        <ele>1052.58</ele>
        <time>2024-05-29T15:29:49.997Z</time>
      </trkpt>
      <trkpt lat="42.94272" lon="-0.99523">
        <ele>1055.21</ele>
        <time>2024-05-29T15:29:56.647Z</time>
      </trkpt>
      <trkpt lat="42.94282" lon="-0.99528">
        <ele>1057.76</ele>
        <time>2024-05-29T15:30:03.299Z</time>
      </trkpt>
      <trkpt lat="42.94291" lon="-0.9953">
        <ele>1060.17</ele>
        <time>2024-05-29T15:30:09.952Z</time>
      </trkpt>
      <trkpt lat="42.94301" lon="-0.99528">
        <ele>1062.38</ele>
        <time>2024-05-29T15:30:16.607Z</time>
      </trkpt>
      <trkpt lat="42.94333" lon="-0.99514">
        <ele>1064.2</ele>
        <time>2024-05-29T15:30:23.267Z</time>
      </trkpt>
      <trkpt lat="42.94341" lon="-0.99511">
        <ele>1066.29</ele>
        <time>2024-05-29T15:30:29.928Z</time>
      </trkpt>
      <trkpt lat="42.94355" lon="-0.99513">
        <ele>1068.48</ele>
        <time>2024-05-29T15:30:36.592Z</time>
      </trkpt>
      <trkpt lat="42.94414" lon="-0.99537">
        <ele>1071.12</ele>
        <time>2024-05-29T15:30:43.265Z</time>
      </trkpt>
      <trkpt lat="42.94424" lon="-0.99543">
        <ele>1073.02</ele>
        <time>2024-05-29T15:30:49.940Z</time>
      </trkpt>
      <trkpt lat="42.94438" lon="-0.99558">
        <ele>1074.93</ele>
        <time>2024-05-29T15:30:56.618Z</time>
      </trkpt>
      <trkpt lat="42.94446" lon="-0.9957">
        <ele>1076.69</ele>
        <time>2024-05-29T15:31:03.298Z</time>
      </trkpt>
      <trkpt lat="42.94474" lon="-0.99617">
        <ele>1078.4</ele>
        <time>2024-05-29T15:31:09.985Z</time>
      </trkpt>
      <trkpt lat="42.94484" lon="-0.99628">
        <ele>1079.72</ele>
        <time>2024-05-29T15:31:16.674Z</time>
      </trkpt>
      <trkpt lat="42.94503" lon="-0.99642">
        <ele>1080.91</ele>
        <time>2024-05-29T15:31:23.367Z</time>
      </trkpt>
      <trkpt lat="42.94507" lon="-0.99651">
        <ele>1082.05</ele>
        <time>2024-05-29T15:31:30.061Z</time>
      </trkpt>
      <trkpt lat="42.94507" lon="-0.99659">
        <ele>1083.19</ele>
        <time>2024-05-29T15:31:36.756Z</time>
      </trkpt>
      <trkpt lat="42.94505" lon="-0.99668">
        <ele>1084.25</ele>
        <time>2024-05-29T15:31:43.452Z</time>
      </trkpt>
      <trkpt lat="42.94499" lon="-0.99672">
        <ele>1085.11</ele>
        <time>2024-05-29T15:31:50.149Z</time>
      </trkpt>
      <trkpt lat="42.94491" lon="-0.99672">
        <ele>1085.75</ele>
        <time>2024-05-29T15:31:56.847Z</time>
      </trkpt>
      <trkpt lat="42.94485" lon="-0.99669">
        <ele>1086.2</ele>
        <time>2024-05-29T15:32:03.546Z</time>
      </trkpt>
      <trkpt lat="42.94452" lon="-0.9963">
        <ele>1086.29</ele>
        <time>2024-05-29T15:32:10.252Z</time>
      </trkpt>
      <trkpt lat="42.94441" lon="-0.99621">
        <ele>1086.55</ele>
        <time>2024-05-29T15:32:16.960Z</time>
      </trkpt>
      <trkpt lat="42.94413" lon="-0.99599">
        <ele>1086.71</ele>
        <time>2024-05-29T15:32:23.673Z</time>
      </trkpt>
      <trkpt lat="42.94402" lon="-0.99592">
        <ele>1086.86</ele>
        <time>2024-05-29T15:32:30.388Z</time>
      </trkpt>
      <trkpt lat="42.94392" lon="-0.99588">
        <ele>1087</ele>
        <time>2024-05-29T15:32:37.105Z</time>
      </trkpt>
      <trkpt lat="42.9437" lon="-0.99588">
        <ele>1087.17</ele>
        <time>2024-05-29T15:32:43.826Z</time>
      </trkpt>
      <trkpt lat="42.94324" lon="-0.99597">
        <ele>1087.56</ele>
        <time>2024-05-29T15:32:50.554Z</time>
      </trkpt>
      <trkpt lat="42.94292" lon="-0.99609">
        <ele>1088.01</ele>
        <time>2024-05-29T15:32:57.287Z</time>
      </trkpt>
      <trkpt lat="42.94268" lon="-0.99613">
        <ele>1088.22</ele>
        <time>2024-05-29T15:33:04.024Z</time>
      </trkpt>
      <trkpt lat="42.9421" lon="-0.99616">
        <ele>1088.59</ele>
        <time>2024-05-29T15:33:10.770Z</time>
      </trkpt>
      <trkpt lat="42.942" lon="-0.99614">
        <ele>1088.83</ele>
        <time>2024-05-29T15:33:17.518Z</time>
      </trkpt>
      <trkpt lat="42.94181" lon="-0.99607">
        <ele>1089.19</ele>
        <time>2024-05-29T15:33:24.269Z</time>
      </trkpt>
      <trkpt lat="42.94174" lon="-0.99604">
        <ele>1089.66</ele>
        <time>2024-05-29T15:33:31.021Z</time>
      </trkpt>
      <trkpt lat="42.94167" lon="-0.99605">
        <ele>1090.26</ele>
        <time>2024-05-29T15:33:37.774Z</time>
      </trkpt>
      <trkpt lat="42.94159" lon="-0.99616">
        <ele>1091.03</ele>
        <time>2024-05-29T15:33:44.529Z</time>
      </trkpt>
      <trkpt lat="42.94158" lon="-0.99624">
        <ele>1091.95</ele>
        <time>2024-05-29T15:33:51.285Z</time>
      </trkpt>
      <trkpt lat="42.94161" lon="-0.99638">
        <ele>1092.96</ele>
        <time>2024-05-29T15:33:58.043Z</time>
      </trkpt>
      <trkpt lat="42.94197" lon="-0.99668">
        <ele>1094.42</ele>
        <time>2024-05-29T15:34:04.808Z</time>
      </trkpt>
      <trkpt lat="42.94207" lon="-0.9968">
        <ele>1095.88</ele>
        <time>2024-05-29T15:34:11.575Z</time>
      </trkpt>
      <trkpt lat="42.9423" lon="-0.99714">
        <ele>1097.57</ele>
        <time>2024-05-29T15:34:18.347Z</time>
      </trkpt>
      <trkpt lat="42.9423" lon="-0.99714">
        <ele>1099.22</ele>
        <time>2024-05-29T15:34:25.119Z</time>
      </trkpt>
      <trkpt lat="42.94255" lon="-0.99754">
        <ele>1101.23</ele>
        <time>2024-05-29T15:34:31.897Z</time>
      </trkpt>
      <trkpt lat="42.94271" lon="-0.99781">
        <ele>1103.35</ele>
        <time>2024-05-29T15:34:38.680Z</time>
      </trkpt>
      <trkpt lat="42.94277" lon="-0.99795">
        <ele>1105.48</ele>
        <time>2024-05-29T15:34:45.464Z</time>
      </trkpt>
      <trkpt lat="42.94285" lon="-0.9982">
        <ele>1107.87</ele>
        <time>2024-05-29T15:34:52.252Z</time>
      </trkpt>
      <trkpt lat="42.94296" lon="-0.99862">
        <ele>1110.57</ele>
        <time>2024-05-29T15:34:59.045Z</time>
      </trkpt>
      <trkpt lat="42.94303" lon="-0.99901">
        <ele>1113.27</ele>
        <time>2024-05-29T15:35:05.843Z</time>
      </trkpt>
      <trkpt lat="42.94304" lon="-0.99976">
        <ele>1116.19</ele>
        <time>2024-05-29T15:35:12.649Z</time>
      </trkpt>
      <trkpt lat="42.943" lon="-1.00002">
        <ele>1119.26</ele>
        <time>2024-05-29T15:35:19.459Z</time>
      </trkpt>
      <trkpt lat="42.94286" lon="-1.00056">
        <ele>1121.96</ele>
        <time>2024-05-29T15:35:26.275Z</time>
      </trkpt>
      <trkpt lat="42.94285" lon="-1.00082">
        <ele>1124.82</ele>
        <time>2024-05-29T15:35:33.094Z</time>
      </trkpt>
      <trkpt lat="42.94291" lon="-1.00146">
        <ele>1128.25</ele>
        <time>2024-05-29T15:35:39.921Z</time>
      </trkpt>
      <trkpt lat="42.9429" lon="-1.00164">
        <ele>1131.36</ele>
        <time>2024-05-29T15:35:46.750Z</time>
      </trkpt>
      <trkpt lat="42.94286" lon="-1.00185">
        <ele>1134.48</ele>
        <time>2024-05-29T15:35:53.582Z</time>
      </trkpt>
      <trkpt lat="42.94281" lon="-1.00205">
        <ele>1137.49</ele>
        <time>2024-05-29T15:36:00.416Z</time>
      </trkpt>
      <trkpt lat="42.94268" lon="-1.0023">
        <ele>1140.4</ele>
        <time>2024-05-29T15:36:07.254Z</time>
      </trkpt>
      <trkpt lat="42.94234" lon="-1.00286">
        <ele>1143.41</ele>
        <time>2024-05-29T15:36:14.100Z</time>
      </trkpt>
      <trkpt lat="42.94224" lon="-1.00308">
        <ele>1146.36</ele>
        <time>2024-05-29T15:36:20.949Z</time>
      </trkpt>
      <trkpt lat="42.94205" lon="-1.00363">
        <ele>1149.41</ele>
        <time>2024-05-29T15:36:27.805Z</time>
      </trkpt>
      <trkpt lat="42.94198" lon="-1.00374">
        <ele>1152.17</ele>
        <time>2024-05-29T15:36:34.663Z</time>
      </trkpt>
      <trkpt lat="42.94179" lon="-1.00395">
        <ele>1154.98</ele>
        <time>2024-05-29T15:36:41.525Z</time>
      </trkpt>
      <trkpt lat="42.94144" lon="-1.00426">
        <ele>1157.63</ele>
        <time>2024-05-29T15:36:48.394Z</time>
      </trkpt>
      <trkpt lat="42.94128" lon="-1.00444">
        <ele>1160.32</ele>
        <time>2024-05-29T15:36:55.266Z</time>
      </trkpt>
      <trkpt lat="42.94118" lon="-1.00463">
        <ele>1163.07</ele>
        <time>2024-05-29T15:37:02.141Z</time>
      </trkpt>
      <trkpt lat="42.94104" lon="-1.00521">
        <ele>1166.25</ele>
        <time>2024-05-29T15:37:09.023Z</time>
      </trkpt>
      <trkpt lat="42.94097" lon="-1.00542">
        <ele>1169.04</ele>
        <time>2024-05-29T15:37:15.908Z</time>
      </trkpt>
      <trkpt lat="42.94088" lon="-1.00558">
        <ele>1171.75</ele>
        <time>2024-05-29T15:37:22.795Z</time>
      </trkpt>
      <trkpt lat="42.94046" lon="-1.00628">
        <ele>1174.62</ele>
        <time>2024-05-29T15:37:29.693Z</time>
      </trkpt>
      <trkpt lat="42.94035" lon="-1.0064">
        <ele>1176.88</ele>
        <time>2024-05-29T15:37:36.593Z</time>
      </trkpt>
      <trkpt lat="42.93995" lon="-1.00675">
        <ele>1179.18</ele>
        <time>2024-05-29T15:37:43.501Z</time>
      </trkpt>
      <trkpt lat="42.93977" lon="-1.00686">
        <ele>1181.22</ele>
        <time>2024-05-29T15:37:50.412Z</time>
      </trkpt>
      <trkpt lat="42.93928" lon="-1.00714">
        <ele>1183.29</ele>
        <time>2024-05-29T15:37:57.331Z</time>
      </trkpt>
      <trkpt lat="42.93918" lon="-1.00725">
        <ele>1185.36</ele>
        <time>2024-05-29T15:38:04.252Z</time>
      </trkpt>
      <trkpt lat="42.93916" lon="-1.00735">
        <ele>1187.21</ele>
        <time>2024-05-29T15:38:11.174Z</time>
      </trkpt>
      <trkpt lat="42.93916" lon="-1.00735">
        <ele>1188.75</ele>
        <time>2024-05-29T15:38:18.096Z</time>
      </trkpt>
      <trkpt lat="42.93917" lon="-1.00745">
        <ele>1190.34</ele>
        <time>2024-05-29T15:38:25.020Z</time>
      </trkpt>
      <trkpt lat="42.93919" lon="-1.00751">
        <ele>1191.89</ele>
        <time>2024-05-29T15:38:31.944Z</time>
      </trkpt>
      <trkpt lat="42.93925" lon="-1.00756">
        <ele>1193.42</ele>
        <time>2024-05-29T15:38:38.869Z</time>
      </trkpt>
      <trkpt lat="42.93937" lon="-1.00758">
        <ele>1195.01</ele>
        <time>2024-05-29T15:38:45.796Z</time>
      </trkpt>
      <trkpt lat="42.93969" lon="-1.00742">
        <ele>1196.58</ele>
        <time>2024-05-29T15:38:52.729Z</time>
      </trkpt>
      <trkpt lat="42.94014" lon="-1.00726">
        <ele>1198.75</ele>
        <time>2024-05-29T15:38:59.669Z</time>
      </trkpt>
      <trkpt lat="42.94053" lon="-1.00694">
        <ele>1201.03</ele>
        <time>2024-05-29T15:39:06.616Z</time>
      </trkpt>
      <trkpt lat="42.94079" lon="-1.00686">
        <ele>1203.42</ele>
        <time>2024-05-29T15:39:13.568Z</time>
      </trkpt>
      <trkpt lat="42.94121" lon="-1.00677">
        <ele>1205.99</ele>
        <time>2024-05-29T15:39:20.527Z</time>
      </trkpt>
      <trkpt lat="42.94138" lon="-1.00676">
        <ele>1208.08</ele>
        <time>2024-05-29T15:39:27.488Z</time>
      </trkpt>
      <trkpt lat="42.94201" lon="-1.00679">
        <ele>1210.3</ele>
        <time>2024-05-29T15:39:34.459Z</time>
      </trkpt>
      <trkpt lat="42.94216" lon="-1.00677">
        <ele>1212.06</ele>
        <time>2024-05-29T15:39:41.433Z</time>
      </trkpt>
      <trkpt lat="42.9426" lon="-1.00661">
        <ele>1214.03</ele>
        <time>2024-05-29T15:39:48.414Z</time>
      </trkpt>
      <trkpt lat="42.94275" lon="-1.00658">
        <ele>1215.86</ele>
        <time>2024-05-29T15:39:55.397Z</time>
      </trkpt>
      <trkpt lat="42.94286" lon="-1.00658">
        <ele>1217.81</ele>
        <time>2024-05-29T15:40:02.382Z</time>
      </trkpt>
      <trkpt lat="42.94298" lon="-1.00661">
        <ele>1219.91</ele>
        <time>2024-05-29T15:40:09.369Z</time>
      </trkpt>
      <trkpt lat="42.94312" lon="-1.00669">
        <ele>1222.19</ele>
        <time>2024-05-29T15:40:16.359Z</time>
      </trkpt>
      <trkpt lat="42.94312" lon="-1.00669">
        <ele>1224.61</ele>
        <time>2024-05-29T15:40:23.349Z</time>
      </trkpt>
      <trkpt lat="42.9437" lon="-1.00707">
        <ele>1227.46</ele>
        <time>2024-05-29T15:40:30.349Z</time>
      </trkpt>
      <trkpt lat="42.94394" lon="-1.00719">
        <ele>1230.61</ele>
        <time>2024-05-29T15:40:37.353Z</time>
      </trkpt>
      <trkpt lat="42.94573" lon="-1.00773">
        <ele>1235.14</ele>
        <time>2024-05-29T15:40:44.386Z</time>
      </trkpt>
      <trkpt lat="42.94591" lon="-1.00781">
        <ele>1237.63</ele>
        <time>2024-05-29T15:40:51.422Z</time>
      </trkpt>
      <trkpt lat="42.94601" lon="-1.00789">
        <ele>1239.75</ele>
        <time>2024-05-29T15:40:58.460Z</time>
      </trkpt>
      <trkpt lat="42.94613" lon="-1.00807">
        <ele>1241.53</ele>
        <time>2024-05-29T15:41:05.501Z</time>
      </trkpt>
      <trkpt lat="42.94618" lon="-1.00825">
        <ele>1242.77</ele>
        <time>2024-05-29T15:41:12.544Z</time>
      </trkpt>
      <trkpt lat="42.94618" lon="-1.00825">
        <ele>1242.78</ele>
        <time>2024-05-29T15:41:19.587Z</time>
      </trkpt>
      <trkpt lat="42.94618" lon="-1.00825">
        <ele>1244.26</ele>
        <time>2024-05-29T15:41:26.630Z</time>
      </trkpt>
      <trkpt lat="42.94622" lon="-1.00839">
        <ele>1244.89</ele>
        <time>2024-05-29T15:41:33.675Z</time>
      </trkpt>
      <trkpt lat="42.94629" lon="-1.00871">
        <ele>1245.8</ele>
        <time>2024-05-29T15:41:40.724Z</time>
      </trkpt>
      <trkpt lat="42.94629" lon="-1.00908">
        <ele>1246.68</ele>
        <time>2024-05-29T15:41:47.777Z</time>
      </trkpt>
      <trkpt lat="42.94633" lon="-1.00927">
        <ele>1247.91</ele>
        <time>2024-05-29T15:41:54.833Z</time>
      </trkpt>
      <trkpt lat="42.94636" lon="-1.00935">
        <ele>1249.3</ele>
        <time>2024-05-29T15:42:01.890Z</time>
      </trkpt>
      <trkpt lat="42.94646" lon="-1.00948">
        <ele>1251.02</ele>
        <time>2024-05-29T15:42:08.949Z</time>
      </trkpt>
      <trkpt lat="42.94657" lon="-1.00954">
        <ele>1252.88</ele>
        <time>2024-05-29T15:42:16.010Z</time>
      </trkpt>
      <trkpt lat="42.94675" lon="-1.00955">
        <ele>1254.91</ele>
        <time>2024-05-29T15:42:23.074Z</time>
      </trkpt>
      <trkpt lat="42.94712" lon="-1.00944">
        <ele>1257.29</ele>
        <time>2024-05-29T15:42:30.144Z</time>
      </trkpt>
      <trkpt lat="42.94745" lon="-1.00927">
        <ele>1259.86</ele>
        <time>2024-05-29T15:42:37.219Z</time>
      </trkpt>
      <trkpt lat="42.948" lon="-1.00889">
        <ele>1262.84</ele>
        <time>2024-05-29T15:42:44.304Z</time>
      </trkpt>
      <trkpt lat="42.94848" lon="-1.00869">
        <ele>1265.07</ele>
        <time>2024-05-29T15:42:51.397Z</time>
      </trkpt>
      <trkpt lat="42.94879" lon="-1.00866">
        <ele>1267.16</ele>
        <time>2024-05-29T15:42:58.495Z</time>
      </trkpt>
      <trkpt lat="42.94888" lon="-1.00868">
        <ele>1269.02</ele>
        <time>2024-05-29T15:43:05.595Z</time>
      </trkpt>
      <trkpt lat="42.94902" lon="-1.00873">
        <ele>1270.67</ele>
        <time>2024-05-29T15:43:12.697Z</time>
      </trkpt>
      <trkpt lat="42.94928" lon="-1.00885">
        <ele>1272.2</ele>
        <time>2024-05-29T15:43:19.804Z</time>
      </trkpt>
      <trkpt lat="42.94937" lon="-1.00893">
        <ele>1273.63</ele>
        <time>2024-05-29T15:43:26.912Z</time>
      </trkpt>
      <trkpt lat="42.94945" lon="-1.00903">
        <ele>1275.06</ele>
        <time>2024-05-29T15:43:34.022Z</time>
      </trkpt>
      <trkpt lat="42.94952" lon="-1.00914">
        <ele>1276.36</ele>
        <time>2024-05-29T15:43:41.134Z</time>
      </trkpt>
      <trkpt lat="42.94996" lon="-1.01012">
        <ele>1278.41</ele>
        <time>2024-05-29T15:43:48.259Z</time>
      </trkpt>
      <trkpt lat="42.95006" lon="-1.01045">
        <ele>1279.95</ele>
        <time>2024-05-29T15:43:55.388Z</time>
      </trkpt>
      <trkpt lat="42.95028" lon="-1.01121">
        <ele>1281.69</ele>
        <time>2024-05-29T15:44:02.527Z</time>
      </trkpt>
      <trkpt lat="42.95035" lon="-1.0114">
        <ele>1283.34</ele>
        <time>2024-05-29T15:44:09.668Z</time>
      </trkpt>
      <trkpt lat="42.95042" lon="-1.01152">
        <ele>1285.06</ele>
        <time>2024-05-29T15:44:16.811Z</time>
      </trkpt>
      <trkpt lat="42.95049" lon="-1.0116">
        <ele>1286.74</ele>
        <time>2024-05-29T15:44:23.956Z</time>
      </trkpt>
      <trkpt lat="42.95101" lon="-1.01208">
        <ele>1288.99</ele>
        <time>2024-05-29T15:44:31.111Z</time>
      </trkpt>
      <trkpt lat="42.95128" lon="-1.01227">
        <ele>1290.85</ele>
        <time>2024-05-29T15:44:38.271Z</time>
      </trkpt>
      <trkpt lat="42.95139" lon="-1.01232">
        <ele>1292.69</ele>
        <time>2024-05-29T15:44:45.433Z</time>
      </trkpt>
      <trkpt lat="42.95162" lon="-1.01238">
        <ele>1294.74</ele>
        <time>2024-05-29T15:44:52.598Z</time>
      </trkpt>
      <trkpt lat="42.95176" lon="-1.01241">
        <ele>1296.84</ele>
        <time>2024-05-29T15:44:59.765Z</time>
      </trkpt>
      <trkpt lat="42.95192" lon="-1.01239">
        <ele>1298.83</ele>
        <time>2024-05-29T15:45:06.935Z</time>
      </trkpt>
      <trkpt lat="42.9521" lon="-1.01236">
        <ele>1300.83</ele>
        <time>2024-05-29T15:45:14.108Z</time>
      </trkpt>
      <trkpt lat="42.95321" lon="-1.01207">
        <ele>1303.09</ele>
        <time>2024-05-29T15:45:21.299Z</time>
      </trkpt>
      <trkpt lat="42.95343" lon="-1.01206">
        <ele>1305.05</ele>
        <time>2024-05-29T15:45:28.494Z</time>
      </trkpt>
      <trkpt lat="42.95343" lon="-1.01206">
        <ele>1306.91</ele>
        <time>2024-05-29T15:45:35.689Z</time>
      </trkpt>
      <trkpt lat="42.95364" lon="-1.01212">
        <ele>1308.68</ele>
        <time>2024-05-29T15:45:42.887Z</time>
      </trkpt>
      <trkpt lat="42.95378" lon="-1.01223">
        <ele>1310.36</ele>
        <time>2024-05-29T15:45:50.088Z</time>
      </trkpt>
      <trkpt lat="42.95455" lon="-1.01299">
        <ele>1312.54</ele>
        <time>2024-05-29T15:45:57.304Z</time>
      </trkpt>
      <trkpt lat="42.95469" lon="-1.01318">
        <ele>1314.3</ele>
        <time>2024-05-29T15:46:04.523Z</time>
      </trkpt>
      <trkpt lat="42.95491" lon="-1.01363">
        <ele>1316.13</ele>
        <time>2024-05-29T15:46:11.748Z</time>
      </trkpt>
      <trkpt lat="42.95506" lon="-1.01384">
        <ele>1318.08</ele>
        <time>2024-05-29T15:46:18.977Z</time>
      </trkpt>
      <trkpt lat="42.95551" lon="-1.01425">
        <ele>1320.43</ele>
        <time>2024-05-29T15:46:26.214Z</time>
      </trkpt>
      <trkpt lat="42.95551" lon="-1.01425">
        <ele>1322.3</ele>
        <time>2024-05-29T15:46:33.451Z</time>
      </trkpt>
      <trkpt lat="42.95582" lon="-1.01453">
        <ele>1324.51</ele>
        <time>2024-05-29T15:46:40.694Z</time>
      </trkpt>
      <trkpt lat="42.9559" lon="-1.01462">
        <ele>1326.37</ele>
        <time>2024-05-29T15:46:47.939Z</time>
      </trkpt>
      <trkpt lat="42.95602" lon="-1.01479">
        <ele>1328.25</ele>
        <time>2024-05-29T15:46:55.187Z</time>
      </trkpt>
      <trkpt lat="42.95622" lon="-1.0151">
        <ele>1330.2</ele>
        <time>2024-05-29T15:47:02.440Z</time>
      </trkpt>
      <trkpt lat="42.9563" lon="-1.01512">
        <ele>1332.1</ele>
        <time>2024-05-29T15:47:09.694Z</time>
      </trkpt>
      <trkpt lat="42.95636" lon="-1.0151">
        <ele>1333.99</ele>
        <time>2024-05-29T15:47:16.949Z</time>
      </trkpt>
      <trkpt lat="42.95644" lon="-1.01497">
        <ele>1335.94</ele>
        <time>2024-05-29T15:47:24.206Z</time>
      </trkpt>
      <trkpt lat="42.95644" lon="-1.01497">
        <ele>1337.74</ele>
        <time>2024-05-29T15:47:31.463Z</time>
      </trkpt>
      <trkpt lat="42.95652" lon="-1.01466">
        <ele>1339.73</ele>
        <time>2024-05-29T15:47:38.724Z</time>
      </trkpt>
      <trkpt lat="42.95656" lon="-1.01439">
        <ele>1341.6</ele>
        <time>2024-05-29T15:47:45.988Z</time>
      </trkpt>
      <trkpt lat="42.95662" lon="-1.01381">
        <ele>1343.75</ele>
        <time>2024-05-29T15:47:53.259Z</time>
      </trkpt>
      <trkpt lat="42.95688" lon="-1.01302">
        <ele>1345.83</ele>
        <time>2024-05-29T15:48:00.540Z</time>
      </trkpt>
      <trkpt lat="42.95697" lon="-1.01282">
        <ele>1347.72</ele>
        <time>2024-05-29T15:48:07.824Z</time>
      </trkpt>
      <trkpt lat="42.95708" lon="-1.01262">
        <ele>1349.55</ele>
        <time>2024-05-29T15:48:15.111Z</time>
      </trkpt>
      <trkpt lat="42.95781" lon="-1.01177">
        <ele>1351.94</ele>
        <time>2024-05-29T15:48:22.413Z</time>
      </trkpt>
      <trkpt lat="42.9579" lon="-1.01169">
        <ele>1353.86</ele>
        <time>2024-05-29T15:48:29.717Z</time>
      </trkpt>
      <trkpt lat="42.95817" lon="-1.01149">
        <ele>1355.84</ele>
        <time>2024-05-29T15:48:37.026Z</time>
      </trkpt>
      <trkpt lat="42.95842" lon="-1.0114">
        <ele>1357.89</ele>
        <time>2024-05-29T15:48:44.339Z</time>
      </trkpt>
      <trkpt lat="42.95883" lon="-1.01134">
        <ele>1359.79</ele>
        <time>2024-05-29T15:48:51.658Z</time>
      </trkpt>
      <trkpt lat="42.95913" lon="-1.01127">
        <ele>1361.75</ele>
        <time>2024-05-29T15:48:58.982Z</time>
      </trkpt>
      <trkpt lat="42.95926" lon="-1.01121">
        <ele>1363.67</ele>
        <time>2024-05-29T15:49:06.308Z</time>
      </trkpt>
      <trkpt lat="42.95949" lon="-1.01109">
        <ele>1365.62</ele>
        <time>2024-05-29T15:49:13.639Z</time>
      </trkpt>
      <trkpt lat="42.95964" lon="-1.01098">
        <ele>1367.62</ele>
        <time>2024-05-29T15:49:20.972Z</time>
      </trkpt>
      <trkpt lat="42.95975" lon="-1.01086">
        <ele>1369.67</ele>
        <time>2024-05-29T15:49:28.307Z</time>
      </trkpt>
      <trkpt lat="42.96024" lon="-1.00995">
        <ele>1372.26</ele>
        <time>2024-05-29T15:49:35.656Z</time>
      </trkpt>
      <trkpt lat="42.96076" lon="-1.00891">
        <ele>1374.44</ele>
        <time>2024-05-29T15:49:43.020Z</time>
      </trkpt>
      <trkpt lat="42.96082" lon="-1.00864">
        <ele>1376.48</ele>
        <time>2024-05-29T15:49:50.387Z</time>
      </trkpt>
      <trkpt lat="42.96092" lon="-1.00802">
        <ele>1378.56</ele>
        <time>2024-05-29T15:49:57.761Z</time>
      </trkpt>
      <trkpt lat="42.96095" lon="-1.00785">
        <ele>1380.74</ele>
        <time>2024-05-29T15:50:05.137Z</time>
      </trkpt>
      <trkpt lat="42.96101" lon="-1.0077">
        <ele>1382.96</ele>
        <time>2024-05-29T15:50:12.515Z</time>
      </trkpt>
      <trkpt lat="42.9611" lon="-1.0075">
        <ele>1385.3</ele>
        <time>2024-05-29T15:50:19.896Z</time>
      </trkpt>
      <trkpt lat="42.96139" lon="-1.00703">
        <ele>1387.79</ele>
        <time>2024-05-29T15:50:27.284Z</time>
      </trkpt>
      <trkpt lat="42.96156" lon="-1.00682">
        <ele>1390.1</ele>
        <time>2024-05-29T15:50:34.676Z</time>
      </trkpt>
      <trkpt lat="42.96167" lon="-1.00671">
        <ele>1392.41</ele>
        <time>2024-05-29T15:50:42.070Z</time>
      </trkpt>
      <trkpt lat="42.9619" lon="-1.00655">
        <ele>1394.84</ele>
        <time>2024-05-29T15:50:49.468Z</time>
      </trkpt>
      <trkpt lat="42.96214" lon="-1.00643">
        <ele>1397.39</ele>
        <time>2024-05-29T15:50:56.870Z</time>
      </trkpt>
      <trkpt lat="42.96235" lon="-1.00637">
        <ele>1399.85</ele>
        <time>2024-05-29T15:51:04.276Z</time>
      </trkpt>
      <trkpt lat="42.96258" lon="-1.00634">
        <ele>1402.06</ele>
        <time>2024-05-29T15:51:11.686Z</time>
      </trkpt>
      <trkpt lat="42.96271" lon="-1.00635">
        <ele>1404.28</ele>
        <time>2024-05-29T15:51:19.098Z</time>
      </trkpt>
      <trkpt lat="42.96311" lon="-1.00643">
        <ele>1406.62</ele>
        <time>2024-05-29T15:51:26.516Z</time>
      </trkpt>
      <trkpt lat="42.96408" lon="-1.00652">
        <ele>1409.33</ele>
        <time>2024-05-29T15:51:33.950Z</time>
      </trkpt>
      <trkpt lat="42.96457" lon="-1.00647">
        <ele>1411.64</ele>
        <time>2024-05-29T15:51:41.391Z</time>
      </trkpt>
      <trkpt lat="42.96475" lon="-1.00647">
        <ele>1413.94</ele>
        <time>2024-05-29T15:51:48.835Z</time>
      </trkpt>
      <trkpt lat="42.96495" lon="-1.0065">
        <ele>1416.1</ele>
        <time>2024-05-29T15:51:56.283Z</time>
      </trkpt>
      <trkpt lat="42.96514" lon="-1.00661">
        <ele>1418.12</ele>
        <time>2024-05-29T15:52:03.734Z</time>
      </trkpt>
      <trkpt lat="42.96543" lon="-1.00681">
        <ele>1420.14</ele>
        <time>2024-05-29T15:52:11.190Z</time>
      </trkpt>
      <trkpt lat="42.96551" lon="-1.00685">
        <ele>1422.1</ele>
        <time>2024-05-29T15:52:18.647Z</time>
      </trkpt>
      <trkpt lat="42.96629" lon="-1.00706">
        <ele>1424.43</ele>
        <time>2024-05-29T15:52:26.117Z</time>
      </trkpt>
      <trkpt lat="42.96638" lon="-1.00711">
        <ele>1426.25</ele>
        <time>2024-05-29T15:52:33.589Z</time>
      </trkpt>
      <trkpt lat="42.96648" lon="-1.00718">
        <ele>1428.04</ele>
        <time>2024-05-29T15:52:41.062Z</time>
      </trkpt>
      <trkpt lat="42.96665" lon="-1.0074">
        <ele>1429.9</ele>
        <time>2024-05-29T15:52:48.539Z</time>
      </trkpt>
      <trkpt lat="42.9668" lon="-1.00765">
        <ele>1431.73</ele>
        <time>2024-05-29T15:52:56.020Z</time>
      </trkpt>
      <trkpt lat="42.96701" lon="-1.00828">
        <ele>1433.5</ele>
        <time>2024-05-29T15:53:03.509Z</time>
      </trkpt>
      <trkpt lat="42.96723" lon="-1.00883">
        <ele>1435.32</ele>
        <time>2024-05-29T15:53:11.006Z</time>
      </trkpt>
      <trkpt lat="42.96727" lon="-1.0089">
        <ele>1437.19</ele>
        <time>2024-05-29T15:53:18.504Z</time>
      </trkpt>
      <trkpt lat="42.96733" lon="-1.00893">
        <ele>1439.18</ele>
        <time>2024-05-29T15:53:26.002Z</time>
      </trkpt>
      <trkpt lat="42.96739" lon="-1.00894">
        <ele>1441.23</ele>
        <time>2024-05-29T15:53:33.502Z</time>
      </trkpt>
      <trkpt lat="42.96744" lon="-1.00892">
        <ele>1443.34</ele>
        <time>2024-05-29T15:53:41.002Z</time>
      </trkpt>
      <trkpt lat="42.9675" lon="-1.00885">
        <ele>1445.56</ele>
        <time>2024-05-29T15:53:48.504Z</time>
      </trkpt>
      <trkpt lat="42.9677" lon="-1.00845">
        <ele>1448.32</ele>
        <time>2024-05-29T15:53:56.011Z</time>
      </trkpt>
      <trkpt lat="42.96839" lon="-1.00775">
        <ele>1450.96</ele>
        <time>2024-05-29T15:54:03.532Z</time>
      </trkpt>
      <trkpt lat="42.96852" lon="-1.00758">
        <ele>1453.22</ele>
        <time>2024-05-29T15:54:11.056Z</time>
      </trkpt>
      <trkpt lat="42.96869" lon="-1.00729">
        <ele>1455.79</ele>
        <time>2024-05-29T15:54:18.584Z</time>
      </trkpt>
      <trkpt lat="42.96882" lon="-1.00694">
        <ele>1458.52</ele>
        <time>2024-05-29T15:54:26.117Z</time>
      </trkpt>
      <trkpt lat="42.96892" lon="-1.00683">
        <ele>1460.89</ele>
        <time>2024-05-29T15:54:33.652Z</time>
      </trkpt>
      <trkpt lat="42.96913" lon="-1.00674">
        <ele>1463.24</ele>
        <time>2024-05-29T15:54:41.190Z</time>
      </trkpt>
      <trkpt lat="42.96934" lon="-1.00669">
        <ele>1465.72</ele>
        <time>2024-05-29T15:54:48.732Z</time>
      </trkpt>
      <trkpt lat="42.9698" lon="-1.00666">
        <ele>1468.04</ele>
        <time>2024-05-29T15:54:56.281Z</time>
      </trkpt>
      <trkpt lat="42.97008" lon="-1.0066">
        <ele>1470.82</ele>
        <time>2024-05-29T15:55:03.835Z</time>
      </trkpt>
      <trkpt lat="42.97112" lon="-1.00629">
        <ele>1474.51</ele>
        <time>2024-05-29T15:55:11.406Z</time>
      </trkpt>
      <trkpt lat="42.97145" lon="-1.00615">
        <ele>1477.45</ele>
        <time>2024-05-29T15:55:18.982Z</time>
      </trkpt>
      <trkpt lat="42.97163" lon="-1.00603">
        <ele>1480.58</ele>
        <time>2024-05-29T15:55:26.562Z</time>
      </trkpt>
      <trkpt lat="42.97184" lon="-1.00585">
        <ele>1483.8</ele>
        <time>2024-05-29T15:55:34.146Z</time>
      </trkpt>
      <trkpt lat="42.97243" lon="-1.00566">
        <ele>1486.91</ele>
        <time>2024-05-29T15:55:41.739Z</time>
      </trkpt>
      <trkpt lat="42.97257" lon="-1.00559">
        <ele>1489.75</ele>
        <time>2024-05-29T15:55:49.335Z</time>
      </trkpt>
      <trkpt lat="42.97275" lon="-1.0055">
        <ele>1492.68</ele>
        <time>2024-05-29T15:55:56.934Z</time>
      </trkpt>
      <trkpt lat="42.97295" lon="-1.00534">
        <ele>1495.71</ele>
        <time>2024-05-29T15:56:04.536Z</time>
      </trkpt>
      <trkpt lat="42.97312" lon="-1.00512">
        <ele>1498.71</ele>
        <time>2024-05-29T15:56:12.142Z</time>
      </trkpt>
      <trkpt lat="42.97348" lon="-1.00455">
        <ele>1501.58</ele>
        <time>2024-05-29T15:56:19.757Z</time>
      </trkpt>
      <trkpt lat="42.97356" lon="-1.00444">
        <ele>1504.15</ele>
        <time>2024-05-29T15:56:27.374Z</time>
      </trkpt>
      <trkpt lat="42.97378" lon="-1.00424">
        <ele>1506.57</ele>
        <time>2024-05-29T15:56:34.995Z</time>
      </trkpt>
      <trkpt lat="42.97378" lon="-1.00424">
        <ele>1508.94</ele>
        <time>2024-05-29T15:56:42.616Z</time>
      </trkpt>
      <trkpt lat="42.97417" lon="-1.00388">
        <ele>1511.49</ele>
        <time>2024-05-29T15:56:50.245Z</time>
      </trkpt>
      <trkpt lat="42.97431" lon="-1.0038">
        <ele>1513.81</ele>
        <time>2024-05-29T15:56:57.876Z</time>
      </trkpt>
      <trkpt lat="42.97448" lon="-1.00378">
        <ele>1515.98</ele>
        <time>2024-05-29T15:57:05.510Z</time>
      </trkpt>
      <trkpt lat="42.97492" lon="-1.00387">
        <ele>1518.13</ele>
        <time>2024-05-29T15:57:13.151Z</time>
      </trkpt>
      <trkpt lat="42.97508" lon="-1.00402">
        <ele>1520.17</ele>
        <time>2024-05-29T15:57:20.795Z</time>
      </trkpt>
      <trkpt lat="42.97557" lon="-1.00455">
        <ele>1522.37</ele>
        <time>2024-05-29T15:57:28.449Z</time>
      </trkpt>
      <trkpt lat="42.97577" lon="-1.0047">
        <ele>1524.4</ele>
        <time>2024-05-29T15:57:36.107Z</time>
      </trkpt>
      <trkpt lat="42.97589" lon="-1.00477">
        <ele>1526.45</ele>
        <time>2024-05-29T15:57:43.767Z</time>
      </trkpt>
      <trkpt lat="42.97652" lon="-1.00503">
        <ele>1529.18</ele>
        <time>2024-05-29T15:57:51.437Z</time>
      </trkpt>
      <trkpt lat="42.97663" lon="-1.00511">
        <ele>1531.02</ele>
        <time>2024-05-29T15:57:59.109Z</time>
      </trkpt>
      <trkpt lat="42.97672" lon="-1.00526">
        <ele>1532.73</ele>
        <time>2024-05-29T15:58:06.784Z</time>
      </trkpt>
      <trkpt lat="42.97685" lon="-1.0057">
        <ele>1534.25</ele>
        <time>2024-05-29T15:58:14.464Z</time>
      </trkpt>
      <trkpt lat="42.97694" lon="-1.00581">
        <ele>1535.88</ele>
        <time>2024-05-29T15:58:22.146Z</time>
      </trkpt>
      <trkpt lat="42.97699" lon="-1.00583">
        <ele>1537.58</ele>
        <time>2024-05-29T15:58:29.829Z</time>
      </trkpt>
      <trkpt lat="42.97705" lon="-1.00583">
        <ele>1539.31</ele>
        <time>2024-05-29T15:58:37.513Z</time>
      </trkpt>
      <trkpt lat="42.97709" lon="-1.0058">
        <ele>1541.08</ele>
        <time>2024-05-29T15:58:45.198Z</time>
      </trkpt>
      <trkpt lat="42.97712" lon="-1.00574">
        <ele>1542.88</ele>
        <time>2024-05-29T15:58:52.883Z</time>
      </trkpt>
      <trkpt lat="42.97713" lon="-1.00568">
        <ele>1544.71</ele>
        <time>2024-05-29T15:59:00.569Z</time>
      </trkpt>
      <trkpt lat="42.97713" lon="-1.00561">
        <ele>1546.56</ele>
        <time>2024-05-29T15:59:08.256Z</time>
      </trkpt>
      <trkpt lat="42.97708" lon="-1.00553">
        <ele>1548.37</ele>
        <time>2024-05-29T15:59:15.944Z</time>
      </trkpt>
      <trkpt lat="42.97699" lon="-1.00545">
        <ele>1550.18</ele>
        <time>2024-05-29T15:59:23.634Z</time>
      </trkpt>
      <trkpt lat="42.97689" lon="-1.00534">
        <ele>1552.03</ele>
        <time>2024-05-29T15:59:31.326Z</time>
      </trkpt>
      <trkpt lat="42.97675" lon="-1.00495">
        <ele>1554.17</ele>
        <time>2024-05-29T15:59:39.023Z</time>
      </trkpt>
      <trkpt lat="42.97667" lon="-1.00483">
        <ele>1556.13</ele>
        <time>2024-05-29T15:59:46.722Z</time>
      </trkpt>
      <trkpt lat="42.97636" lon="-1.00448">
        <ele>1558</ele>
        <time>2024-05-29T15:59:54.427Z</time>
      </trkpt>
      <trkpt lat="42.97475" lon="-1.00276">
        <ele>1560.66</ele>
        <time>2024-05-29T16:00:02.165Z</time>
      </trkpt>
      <trkpt lat="42.97458" lon="-1.00256">
        <ele>1562.78</ele>
        <time>2024-05-29T16:00:09.907Z</time>
      </trkpt>
      <trkpt lat="42.97435" lon="-1.00225">
        <ele>1565.01</ele>
        <time>2024-05-29T16:00:17.654Z</time>
      </trkpt>
      <trkpt lat="42.97336" lon="-1.00083">
        <ele>1567.38</ele>
        <time>2024-05-29T16:00:25.424Z</time>
      </trkpt>
      <trkpt lat="42.97327" lon="-1.00064">
        <ele>1567.44</ele>
        <time>2024-05-29T16:00:33.197Z</time>
      </trkpt>
      <trkpt lat="42.97326" lon="-1.00051">
        <ele>1568.07</ele>
        <time>2024-05-29T16:00:40.971Z</time>
      </trkpt>
      <trkpt lat="42.97327" lon="-1.00039">
        <ele>1568.82</ele>
        <time>2024-05-29T16:00:48.746Z</time>
      </trkpt>
      <trkpt lat="42.9733" lon="-1.0003">
        <ele>1569.68</ele>
        <time>2024-05-29T16:00:56.523Z</time>
      </trkpt>
      <trkpt lat="42.974" lon="-0.99898">
        <ele>1570.42</ele>
        <time>2024-05-29T16:01:04.319Z</time>
      </trkpt>
      <trkpt lat="42.97417" lon="-0.99855">
        <ele>1571.48</ele>
        <time>2024-05-29T16:01:12.120Z</time>
      </trkpt>
      <trkpt lat="42.97425" lon="-0.99823">
        <ele>1572.1</ele>
        <time>2024-05-29T16:01:19.925Z</time>
      </trkpt>
      <trkpt lat="42.97426" lon="-0.99799">
        <ele>1572.42</ele>
        <time>2024-05-29T16:01:27.733Z</time>
      </trkpt>
      <trkpt lat="42.9742" lon="-0.99711">
        <ele>1572.49</ele>
        <time>2024-05-29T16:01:35.552Z</time>
      </trkpt>
      <trkpt lat="42.97422" lon="-0.99686">
        <ele>1572.95</ele>
        <time>2024-05-29T16:01:43.374Z</time>
      </trkpt>
      <trkpt lat="42.97431" lon="-0.99639">
        <ele>1573.5</ele>
        <time>2024-05-29T16:01:51.201Z</time>
      </trkpt>
      <trkpt lat="42.97432" lon="-0.99619">
        <ele>1573.58</ele>
        <time>2024-05-29T16:01:59.031Z</time>
      </trkpt>
      <trkpt lat="42.97414" lon="-0.99489">
        <ele>1573.63</ele>
        <time>2024-05-29T16:02:06.876Z</time>
      </trkpt>
      <trkpt lat="42.97409" lon="-0.99461">
        <ele>1573.33</ele>
        <time>2024-05-29T16:02:14.725Z</time>
      </trkpt>
      <trkpt lat="42.97406" lon="-0.99438">
        <ele>1572.8</ele>
        <time>2024-05-29T16:02:22.576Z</time>
      </trkpt>
      <trkpt lat="42.97413" lon="-0.99387">
        <ele>1572.21</ele>
        <time>2024-05-29T16:02:30.433Z</time>
      </trkpt>
      <trkpt lat="42.97418" lon="-0.99352">
        <ele>1571.54</ele>
        <time>2024-05-29T16:02:38.295Z</time>
      </trkpt>
      <trkpt lat="42.97418" lon="-0.99338">
        <ele>1570.64</ele>
        <time>2024-05-29T16:02:46.158Z</time>
      </trkpt>
      <trkpt lat="42.97413" lon="-0.99271">
        <ele>1569.31</ele>
        <time>2024-05-29T16:02:54.029Z</time>
      </trkpt>
      <trkpt lat="42.97413" lon="-0.99248">
        <ele>1568.14</ele>
        <time>2024-05-29T16:03:01.903Z</time>
      </trkpt>
      <trkpt lat="42.97415" lon="-0.99225">
        <ele>1566.89</ele>
        <time>2024-05-29T16:03:09.780Z</time>
      </trkpt>
      <trkpt lat="42.97424" lon="-0.99189">
        <ele>1565.49</ele>
        <time>2024-05-29T16:03:17.661Z</time>
      </trkpt>
      <trkpt lat="42.97426" lon="-0.9917">
        <ele>1563.76</ele>
        <time>2024-05-29T16:03:25.544Z</time>
      </trkpt>
      <trkpt lat="42.97427" lon="-0.99143">
        <ele>1561.63</ele>
        <time>2024-05-29T16:03:33.430Z</time>
      </trkpt>
      <trkpt lat="42.97424" lon="-0.99125">
        <ele>1559.19</ele>
        <time>2024-05-29T16:03:41.319Z</time>
      </trkpt>
      <trkpt lat="42.97404" lon="-0.99037">
        <ele>1555.68</ele>
        <time>2024-05-29T16:03:49.218Z</time>
      </trkpt>
      <trkpt lat="42.97395" lon="-0.99004">
        <ele>1553.22</ele>
        <time>2024-05-29T16:03:57.122Z</time>
      </trkpt>
      <trkpt lat="42.97396" lon="-0.98994">
        <ele>1550.33</ele>
        <time>2024-05-29T16:04:05.027Z</time>
      </trkpt>
      <trkpt lat="42.97401" lon="-0.98989">
        <ele>1547.13</ele>
        <time>2024-05-29T16:04:12.933Z</time>
      </trkpt>
      <trkpt lat="42.97407" lon="-0.98994">
        <ele>1543.93</ele>
        <time>2024-05-29T16:04:20.840Z</time>
      </trkpt>
      <trkpt lat="42.97422" lon="-0.9904">
        <ele>1540.84</ele>
        <time>2024-05-29T16:04:28.753Z</time>
      </trkpt>
      <trkpt lat="42.9744" lon="-0.99071">
        <ele>1537.33</ele>
        <time>2024-05-29T16:04:36.671Z</time>
      </trkpt>
      <trkpt lat="42.97468" lon="-0.99138">
        <ele>1533.54</ele>
        <time>2024-05-29T16:04:44.598Z</time>
      </trkpt>
      <trkpt lat="42.97495" lon="-0.99234">
        <ele>1528.41</ele>
        <time>2024-05-29T16:04:52.537Z</time>
      </trkpt>
      <trkpt lat="42.97513" lon="-0.99271">
        <ele>1524.08</ele>
        <time>2024-05-29T16:05:00.481Z</time>
      </trkpt>
      <trkpt lat="42.9755" lon="-0.99331">
        <ele>1519.7</ele>
        <time>2024-05-29T16:05:08.434Z</time>
      </trkpt>
      <trkpt lat="42.97587" lon="-0.99372">
        <ele>1515.71</ele>
        <time>2024-05-29T16:05:16.395Z</time>
      </trkpt>
      <trkpt lat="42.97596" lon="-0.99369">
        <ele>1512.25</ele>
        <time>2024-05-29T16:05:24.357Z</time>
      </trkpt>
      <trkpt lat="42.97601" lon="-0.99359">
        <ele>1509.01</ele>
        <time>2024-05-29T16:05:32.321Z</time>
      </trkpt>
      <trkpt lat="42.97595" lon="-0.99347">
        <ele>1506.07</ele>
        <time>2024-05-29T16:05:40.286Z</time>
      </trkpt>
      <trkpt lat="42.97572" lon="-0.99317">
        <ele>1503.29</ele>
        <time>2024-05-29T16:05:48.256Z</time>
      </trkpt>
      <trkpt lat="42.97564" lon="-0.99281">
        <ele>1499.43</ele>
        <time>2024-05-29T16:05:56.231Z</time>
      </trkpt>
      <trkpt lat="42.97563" lon="-0.99269">
        <ele>1495.88</ele>
        <time>2024-05-29T16:06:04.207Z</time>
      </trkpt>
      <trkpt lat="42.97565" lon="-0.99256">
        <ele>1492.31</ele>
        <time>2024-05-29T16:06:12.185Z</time>
      </trkpt>
      <trkpt lat="42.97586" lon="-0.99222">
        <ele>1488.32</ele>
        <time>2024-05-29T16:06:20.168Z</time>
      </trkpt>
      <trkpt lat="42.97589" lon="-0.99203">
        <ele>1485.16</ele>
        <time>2024-05-29T16:06:28.153Z</time>
      </trkpt>
      <trkpt lat="42.97587" lon="-0.99181">
        <ele>1481.99</ele>
        <time>2024-05-29T16:06:36.141Z</time>
      </trkpt>
      <trkpt lat="42.97579" lon="-0.99148">
        <ele>1478.49</ele>
        <time>2024-05-29T16:06:44.133Z</time>
      </trkpt>
      <trkpt lat="42.97543" lon="-0.99038">
        <ele>1475.14</ele>
        <time>2024-05-29T16:06:52.139Z</time>
      </trkpt>
      <trkpt lat="42.97542" lon="-0.99032">
        <ele>1470.48</ele>
        <time>2024-05-29T16:07:00.146Z</time>
      </trkpt>
      <trkpt lat="42.97542" lon="-0.99032">
        <ele>1470.41</ele>
        <time>2024-05-29T16:07:08.153Z</time>
      </trkpt>
      <trkpt lat="42.9754" lon="-0.99026">
        <ele>1468.29</ele>
        <time>2024-05-29T16:07:16.161Z</time>
      </trkpt>
      <trkpt lat="42.97544" lon="-0.99019">
        <ele>1465.61</ele>
        <time>2024-05-29T16:07:24.170Z</time>
      </trkpt>
      <trkpt lat="42.97548" lon="-0.99019">
        <ele>1462.66</ele>
        <time>2024-05-29T16:07:32.179Z</time>
      </trkpt>
      <trkpt lat="42.97555" lon="-0.99021">
        <ele>1459.35</ele>
        <time>2024-05-29T16:07:40.190Z</time>
      </trkpt>
      <trkpt lat="42.97581" lon="-0.99056">
        <ele>1455.72</ele>
        <time>2024-05-29T16:07:48.206Z</time>
      </trkpt>
      <trkpt lat="42.97648" lon="-0.99141">
        <ele>1451.15</ele>
        <time>2024-05-29T16:07:56.237Z</time>
      </trkpt>
      <trkpt lat="42.97678" lon="-0.99174">
        <ele>1446.97</ele>
        <time>2024-05-29T16:08:04.274Z</time>
      </trkpt>
      <trkpt lat="42.97705" lon="-0.9921">
        <ele>1442.2</ele>
        <time>2024-05-29T16:08:12.317Z</time>
      </trkpt>
      <trkpt lat="42.97721" lon="-0.99226">
        <ele>1437.91</ele>
        <time>2024-05-29T16:08:20.363Z</time>
      </trkpt>
      <trkpt lat="42.97765" lon="-0.99259">
        <ele>1433.34</ele>
        <time>2024-05-29T16:08:28.417Z</time>
      </trkpt>
      <trkpt lat="42.97781" lon="-0.99276">
        <ele>1429.2</ele>
        <time>2024-05-29T16:08:36.475Z</time>
      </trkpt>
      <trkpt lat="42.97797" lon="-0.99301">
        <ele>1425.7</ele>
        <time>2024-05-29T16:08:44.537Z</time>
      </trkpt>
      <trkpt lat="42.97805" lon="-0.99304">
        <ele>1422.39</ele>
        <time>2024-05-29T16:08:52.600Z</time>
      </trkpt>
      <trkpt lat="42.97814" lon="-0.99302">
        <ele>1419.13</ele>
        <time>2024-05-29T16:09:00.664Z</time>
      </trkpt>
      <trkpt lat="42.97828" lon="-0.99279">
        <ele>1415.23</ele>
        <time>2024-05-29T16:09:08.732Z</time>
      </trkpt>
      <trkpt lat="42.97845" lon="-0.99244">
        <ele>1410.44</ele>
        <time>2024-05-29T16:09:16.805Z</time>
      </trkpt>
      <trkpt lat="42.97856" lon="-0.99232">
        <ele>1406.58</ele>
        <time>2024-05-29T16:09:24.880Z</time>
      </trkpt>
      <trkpt lat="42.979" lon="-0.99192">
        <ele>1402.95</ele>
        <time>2024-05-29T16:09:32.963Z</time>
      </trkpt>
      <trkpt lat="42.9792" lon="-0.99167">
        <ele>1399.73</ele>
        <time>2024-05-29T16:09:41.051Z</time>
      </trkpt>
      <trkpt lat="42.97927" lon="-0.99152">
        <ele>1396.73</ele>
        <time>2024-05-29T16:09:49.141Z</time>
      </trkpt>
      <trkpt lat="42.97933" lon="-0.99133">
        <ele>1394.03</ele>
        <time>2024-05-29T16:09:57.233Z</time>
      </trkpt>
      <trkpt lat="42.97944" lon="-0.99088">
        <ele>1390.51</ele>
        <time>2024-05-29T16:10:05.331Z</time>
      </trkpt>
      <trkpt lat="42.97954" lon="-0.99064">
        <ele>1387.46</ele>
        <time>2024-05-29T16:10:13.432Z</time>
      </trkpt>
      <trkpt lat="42.97967" lon="-0.99041">
        <ele>1385.11</ele>
        <time>2024-05-29T16:10:21.537Z</time>
      </trkpt>
      <trkpt lat="42.98007" lon="-0.98995">
        <ele>1383.15</ele>
        <time>2024-05-29T16:10:29.650Z</time>
      </trkpt>
      <trkpt lat="42.9805" lon="-0.9896">
        <ele>1381.1</ele>
        <time>2024-05-29T16:10:37.771Z</time>
      </trkpt>
      <trkpt lat="42.98086" lon="-0.98934">
        <ele>1380.11</ele>
        <time>2024-05-29T16:10:45.898Z</time>
      </trkpt>
      <trkpt lat="42.98102" lon="-0.98919">
        <ele>1379.6</ele>
        <time>2024-05-29T16:10:54.029Z</time>
      </trkpt>
      <trkpt lat="42.98137" lon="-0.98876">
        <ele>1379</ele>
        <time>2024-05-29T16:11:02.167Z</time>
      </trkpt>
      <trkpt lat="42.9815" lon="-0.98867">
        <ele>1378.87</ele>
        <time>2024-05-29T16:11:10.307Z</time>
      </trkpt>
      <trkpt lat="42.98187" lon="-0.9886">
        <ele>1379.38</ele>
        <time>2024-05-29T16:11:18.453Z</time>
      </trkpt>
      <trkpt lat="42.98212" lon="-0.98859">
        <ele>1380.19</ele>
        <time>2024-05-29T16:11:26.603Z</time>
      </trkpt>
      <trkpt lat="42.98258" lon="-0.98864">
        <ele>1381.85</ele>
        <time>2024-05-29T16:11:34.761Z</time>
      </trkpt>
      <trkpt lat="42.9827" lon="-0.98863">
        <ele>1383.13</ele>
        <time>2024-05-29T16:11:42.921Z</time>
      </trkpt>
      <trkpt lat="42.98282" lon="-0.98859">
        <ele>1384.43</ele>
        <time>2024-05-29T16:11:51.083Z</time>
      </trkpt>
      <trkpt lat="42.98303" lon="-0.98846">
        <ele>1385.59</ele>
        <time>2024-05-29T16:11:59.248Z</time>
      </trkpt>
      <trkpt lat="42.98346" lon="-0.98816">
        <ele>1386.66</ele>
        <time>2024-05-29T16:12:07.421Z</time>
      </trkpt>
      <trkpt lat="42.98356" lon="-0.98814">
        <ele>1387.84</ele>
        <time>2024-05-29T16:12:15.596Z</time>
      </trkpt>
      <trkpt lat="42.98369" lon="-0.98816">
        <ele>1389.05</ele>
        <time>2024-05-29T16:12:23.773Z</time>
      </trkpt>
      <trkpt lat="42.98399" lon="-0.98829">
        <ele>1390.33</ele>
        <time>2024-05-29T16:12:31.955Z</time>
      </trkpt>
      <trkpt lat="42.98408" lon="-0.98837">
        <ele>1391.16</ele>
        <time>2024-05-29T16:12:40.139Z</time>
      </trkpt>
      <trkpt lat="42.98418" lon="-0.98856">
        <ele>1391.83</ele>
        <time>2024-05-29T16:12:48.325Z</time>
      </trkpt>
      <trkpt lat="42.98454" lon="-0.98952">
        <ele>1392.1</ele>
        <time>2024-05-29T16:12:56.524Z</time>
      </trkpt>
      <trkpt lat="42.98456" lon="-0.98966">
        <ele>1392.47</ele>
        <time>2024-05-29T16:13:04.725Z</time>
      </trkpt>
      <trkpt lat="42.98455" lon="-0.9899">
        <ele>1392.71</ele>
        <time>2024-05-29T16:13:12.928Z</time>
      </trkpt>
      <trkpt lat="42.98456" lon="-0.98998">
        <ele>1392.8</ele>
        <time>2024-05-29T16:13:21.132Z</time>
      </trkpt>
      <trkpt lat="42.98462" lon="-0.99027">
        <ele>1392.82</ele>
        <time>2024-05-29T16:13:29.340Z</time>
      </trkpt>
      <trkpt lat="42.98473" lon="-0.99058">
        <ele>1392.41</ele>
        <time>2024-05-29T16:13:37.552Z</time>
      </trkpt>
      <trkpt lat="42.9848" lon="-0.99071">
        <ele>1391.72</ele>
        <time>2024-05-29T16:13:45.766Z</time>
      </trkpt>
      <trkpt lat="42.98499" lon="-0.99089">
        <ele>1390.59</ele>
        <time>2024-05-29T16:13:53.984Z</time>
      </trkpt>
      <trkpt lat="42.98507" lon="-0.991">
        <ele>1389.58</ele>
        <time>2024-05-29T16:14:02.203Z</time>
      </trkpt>
      <trkpt lat="42.98528" lon="-0.99145">
        <ele>1388.48</ele>
        <time>2024-05-29T16:14:10.429Z</time>
      </trkpt>
      <trkpt lat="42.98538" lon="-0.99156">
        <ele>1387.21</ele>
        <time>2024-05-29T16:14:18.657Z</time>
      </trkpt>
      <trkpt lat="42.98548" lon="-0.99155">
        <ele>1385.81</ele>
        <time>2024-05-29T16:14:26.886Z</time>
      </trkpt>
      <trkpt lat="42.9857" lon="-0.99129">
        <ele>1383.97</ele>
        <time>2024-05-29T16:14:35.120Z</time>
      </trkpt>
      <trkpt lat="42.9858" lon="-0.99125">
        <ele>1382.28</ele>
        <time>2024-05-29T16:14:43.356Z</time>
      </trkpt>
      <trkpt lat="42.98599" lon="-0.99122">
        <ele>1380.47</ele>
        <time>2024-05-29T16:14:51.595Z</time>
      </trkpt>
      <trkpt lat="42.98619" lon="-0.99128">
        <ele>1378.84</ele>
        <time>2024-05-29T16:14:59.837Z</time>
      </trkpt>
      <trkpt lat="42.98633" lon="-0.99134">
        <ele>1377.48</ele>
        <time>2024-05-29T16:15:08.081Z</time>
      </trkpt>
      <trkpt lat="42.9865" lon="-0.99136">
        <ele>1376</ele>
        <time>2024-05-29T16:15:16.328Z</time>
      </trkpt>
      <trkpt lat="42.9866" lon="-0.99129">
        <ele>1374.44</ele>
        <time>2024-05-29T16:15:24.577Z</time>
      </trkpt>
      <trkpt lat="42.98659" lon="-0.99129">
        <ele>1372.94</ele>
        <time>2024-05-29T16:15:32.826Z</time>
      </trkpt>
      <trkpt lat="42.98678" lon="-0.99098">
        <ele>1371.25</ele>
        <time>2024-05-29T16:15:41.079Z</time>
      </trkpt>
      <trkpt lat="42.9869" lon="-0.99071">
        <ele>1369.43</ele>
        <time>2024-05-29T16:15:49.336Z</time>
      </trkpt>
      <trkpt lat="42.98724" lon="-0.98956">
        <ele>1367.55</ele>
        <time>2024-05-29T16:15:57.608Z</time>
      </trkpt>
      <trkpt lat="42.98731" lon="-0.98942">
        <ele>1366.13</ele>
        <time>2024-05-29T16:16:05.882Z</time>
      </trkpt>
      <trkpt lat="42.98743" lon="-0.98931">
        <ele>1364.87</ele>
        <time>2024-05-29T16:16:14.158Z</time>
      </trkpt>
      <trkpt lat="42.98769" lon="-0.98921">
        <ele>1363.96</ele>
        <time>2024-05-29T16:16:22.438Z</time>
      </trkpt>
      <trkpt lat="42.98778" lon="-0.98915">
        <ele>1362.92</ele>
        <time>2024-05-29T16:16:30.720Z</time>
      </trkpt>
      <trkpt lat="42.98786" lon="-0.98901">
        <ele>1361.9</ele>
        <time>2024-05-29T16:16:39.004Z</time>
      </trkpt>
      <trkpt lat="42.98789" lon="-0.98891">
        <ele>1360.9</ele>
        <time>2024-05-29T16:16:47.289Z</time>
      </trkpt>
      <trkpt lat="42.98795" lon="-0.98854">
        <ele>1359.83</ele>
        <time>2024-05-29T16:16:55.579Z</time>
      </trkpt>
      <trkpt lat="42.98803" lon="-0.98787">
        <ele>1358.37</ele>
        <time>2024-05-29T16:17:03.877Z</time>
      </trkpt>
      <trkpt lat="42.98803" lon="-0.98787">
        <ele>1357.57</ele>
        <time>2024-05-29T16:17:12.175Z</time>
      </trkpt>
      <trkpt lat="42.98806" lon="-0.98773">
        <ele>1356.75</ele>
        <time>2024-05-29T16:17:20.474Z</time>
      </trkpt>
      <trkpt lat="42.98811" lon="-0.98763">
        <ele>1356.09</ele>
        <time>2024-05-29T16:17:28.775Z</time>
      </trkpt>
      <trkpt lat="42.98843" lon="-0.98711">
        <ele>1355.73</ele>
        <time>2024-05-29T16:17:37.084Z</time>
      </trkpt>
      <trkpt lat="42.98852" lon="-0.98695">
        <ele>1355.34</ele>
        <time>2024-05-29T16:17:45.395Z</time>
      </trkpt>
      <trkpt lat="42.9886" lon="-0.98666">
        <ele>1354.93</ele>
        <time>2024-05-29T16:17:53.710Z</time>
      </trkpt>
      <trkpt lat="42.98867" lon="-0.98638">
        <ele>1354.51</ele>
        <time>2024-05-29T16:18:02.028Z</time>
      </trkpt>
      <trkpt lat="42.98884" lon="-0.98586">
        <ele>1354.4</ele>
        <time>2024-05-29T16:18:10.353Z</time>
      </trkpt>
      <trkpt lat="42.98916" lon="-0.98503">
        <ele>1354.42</ele>
        <time>2024-05-29T16:18:18.689Z</time>
      </trkpt>
      <trkpt lat="42.98932" lon="-0.98444">
        <ele>1354.11</ele>
        <time>2024-05-29T16:18:27.032Z</time>
      </trkpt>
      <trkpt lat="42.98938" lon="-0.98435">
        <ele>1353.94</ele>
        <time>2024-05-29T16:18:35.377Z</time>
      </trkpt>
      <trkpt lat="42.98953" lon="-0.98431">
        <ele>1353.97</ele>
        <time>2024-05-29T16:18:43.724Z</time>
      </trkpt>
      <trkpt lat="42.98976" lon="-0.9843">
        <ele>1354.01</ele>
        <time>2024-05-29T16:18:52.075Z</time>
      </trkpt>
      <trkpt lat="42.98989" lon="-0.98432">
        <ele>1354.05</ele>
        <time>2024-05-29T16:19:00.428Z</time>
      </trkpt>
      <trkpt lat="42.99001" lon="-0.98436">
        <ele>1354.05</ele>
        <time>2024-05-29T16:19:08.783Z</time>
      </trkpt>
      <trkpt lat="42.99019" lon="-0.98449">
        <ele>1354.2</ele>
        <time>2024-05-29T16:19:17.141Z</time>
      </trkpt>
      <trkpt lat="42.99051" lon="-0.98466">
        <ele>1353.96</ele>
        <time>2024-05-29T16:19:25.505Z</time>
      </trkpt>
      <trkpt lat="42.99081" lon="-0.98496">
        <ele>1353.91</ele>
        <time>2024-05-29T16:19:33.875Z</time>
      </trkpt>
      <trkpt lat="42.99098" lon="-0.98504">
        <ele>1353.36</ele>
        <time>2024-05-29T16:19:42.248Z</time>
      </trkpt>
      <trkpt lat="42.99118" lon="-0.98508">
        <ele>1352.98</ele>
        <time>2024-05-29T16:19:50.624Z</time>
      </trkpt>
      <trkpt lat="42.9913" lon="-0.98514">
        <ele>1352.67</ele>
        <time>2024-05-29T16:19:59.002Z</time>
      </trkpt>
      <trkpt lat="42.99142" lon="-0.98525">
        <ele>1352.39</ele>
        <time>2024-05-29T16:20:07.382Z</time>
      </trkpt>
      <trkpt lat="42.99155" lon="-0.98548">
        <ele>1352.07</ele>
        <time>2024-05-29T16:20:15.766Z</time>
      </trkpt>
      <trkpt lat="42.99197" lon="-0.98674">
        <ele>1351.96</ele>
        <time>2024-05-29T16:20:24.166Z</time>
      </trkpt>
      <trkpt lat="42.99203" lon="-0.98688">
        <ele>1351.56</ele>
        <time>2024-05-29T16:20:32.568Z</time>
      </trkpt>
      <trkpt lat="42.99211" lon="-0.98698">
        <ele>1351.13</ele>
        <time>2024-05-29T16:20:40.971Z</time>
      </trkpt>
      <trkpt lat="42.99287" lon="-0.98776">
        <ele>1350.37</ele>
        <time>2024-05-29T16:20:49.390Z</time>
      </trkpt>
      <trkpt lat="42.99298" lon="-0.98785">
        <ele>1350.09</ele>
        <time>2024-05-29T16:20:57.811Z</time>
      </trkpt>
      <trkpt lat="42.9931" lon="-0.98788">
        <ele>1349.89</ele>
        <time>2024-05-29T16:21:06.234Z</time>
      </trkpt>
      <trkpt lat="42.99319" lon="-0.98784">
        <ele>1349.67</ele>
        <time>2024-05-29T16:21:14.658Z</time>
      </trkpt>
      <trkpt lat="42.99326" lon="-0.98775">
        <ele>1349.49</ele>
        <time>2024-05-29T16:21:23.084Z</time>
      </trkpt>
      <trkpt lat="42.99328" lon="-0.98764">
        <ele>1349.35</ele>
        <time>2024-05-29T16:21:31.511Z</time>
      </trkpt>
      <trkpt lat="42.99328" lon="-0.98733">
        <ele>1349</ele>
        <time>2024-05-29T16:21:39.942Z</time>
      </trkpt>
      <trkpt lat="42.9933" lon="-0.98717">
        <ele>1349.01</ele>
        <time>2024-05-29T16:21:48.375Z</time>
      </trkpt>
      <trkpt lat="42.99335" lon="-0.98702">
        <ele>1349.18</ele>
        <time>2024-05-29T16:21:56.810Z</time>
      </trkpt>
      <trkpt lat="42.99347" lon="-0.98686">
        <ele>1349.54</ele>
        <time>2024-05-29T16:22:05.247Z</time>
      </trkpt>
      <trkpt lat="42.99369" lon="-0.9867">
        <ele>1350.19</ele>
        <time>2024-05-29T16:22:13.688Z</time>
      </trkpt>
      <trkpt lat="42.99384" lon="-0.98663">
        <ele>1350.93</ele>
        <time>2024-05-29T16:22:22.132Z</time>
      </trkpt>
      <trkpt lat="42.99463" lon="-0.98651">
        <ele>1352.12</ele>
        <time>2024-05-29T16:22:30.588Z</time>
      </trkpt>
      <trkpt lat="42.99478" lon="-0.98652">
        <ele>1352.84</ele>
        <time>2024-05-29T16:22:39.047Z</time>
      </trkpt>
      <trkpt lat="42.995" lon="-0.98657">
        <ele>1353.59</ele>
        <time>2024-05-29T16:22:47.509Z</time>
      </trkpt>
      <trkpt lat="42.99541" lon="-0.98679">
        <ele>1354.68</ele>
        <time>2024-05-29T16:22:55.978Z</time>
      </trkpt>
      <trkpt lat="42.99599" lon="-0.98692">
        <ele>1355.27</ele>
        <time>2024-05-29T16:23:04.457Z</time>
      </trkpt>
      <trkpt lat="42.99653" lon="-0.98715">
        <ele>1356.28</ele>
        <time>2024-05-29T16:23:12.945Z</time>
      </trkpt>
      <trkpt lat="42.99666" lon="-0.98716">
        <ele>1356.73</ele>
        <time>2024-05-29T16:23:21.435Z</time>
      </trkpt>
      <trkpt lat="42.99685" lon="-0.98714">
        <ele>1356.98</ele>
        <time>2024-05-29T16:23:29.928Z</time>
      </trkpt>
      <trkpt lat="42.99704" lon="-0.98711">
        <ele>1357.07</ele>
        <time>2024-05-29T16:23:38.424Z</time>
      </trkpt>
      <trkpt lat="42.99717" lon="-0.98703">
        <ele>1356.85</ele>
        <time>2024-05-29T16:23:46.922Z</time>
      </trkpt>
      <trkpt lat="42.99736" lon="-0.98683">
        <ele>1356.29</ele>
        <time>2024-05-29T16:23:55.424Z</time>
      </trkpt>
      <trkpt lat="42.99741" lon="-0.98667">
        <ele>1355.57</ele>
        <time>2024-05-29T16:24:03.928Z</time>
      </trkpt>
      <trkpt lat="42.99743" lon="-0.98651">
        <ele>1354.57</ele>
        <time>2024-05-29T16:24:12.434Z</time>
      </trkpt>
      <trkpt lat="42.99742" lon="-0.98613">
        <ele>1353.33</ele>
        <time>2024-05-29T16:24:20.945Z</time>
      </trkpt>
      <trkpt lat="42.99743" lon="-0.98607">
        <ele>1351.74</ele>
        <time>2024-05-29T16:24:29.456Z</time>
      </trkpt>
      <trkpt lat="42.99743" lon="-0.98607">
        <ele>1349.79</ele>
        <time>2024-05-29T16:24:37.967Z</time>
      </trkpt>
      <trkpt lat="42.99745" lon="-0.98604">
        <ele>1347.54</ele>
        <time>2024-05-29T16:24:46.479Z</time>
      </trkpt>
      <trkpt lat="42.99747" lon="-0.986">
        <ele>1344.95</ele>
        <time>2024-05-29T16:24:54.991Z</time>
      </trkpt>
      <trkpt lat="42.99755" lon="-0.98598">
        <ele>1342.1</ele>
        <time>2024-05-29T16:25:03.505Z</time>
      </trkpt>
      <trkpt lat="42.99828" lon="-0.98588">
        <ele>1338.42</ele>
        <time>2024-05-29T16:25:12.030Z</time>
      </trkpt>
      <trkpt lat="42.99889" lon="-0.98598">
        <ele>1334.3</ele>
        <time>2024-05-29T16:25:20.565Z</time>
      </trkpt>
      <trkpt lat="42.99924" lon="-0.98611">
        <ele>1330.44</ele>
        <time>2024-05-29T16:25:29.106Z</time>
      </trkpt>
      <trkpt lat="42.99991" lon="-0.98636">
        <ele>1326.09</ele>
        <time>2024-05-29T16:25:37.658Z</time>
      </trkpt>
      <trkpt lat="43.0001" lon="-0.98647">
        <ele>1322.24</ele>
        <time>2024-05-29T16:25:46.213Z</time>
      </trkpt>
      <trkpt lat="43.00103" lon="-0.98716">
        <ele>1317.31</ele>
        <time>2024-05-29T16:25:54.785Z</time>
      </trkpt>
      <trkpt lat="43.00155" lon="-0.9875">
        <ele>1312.86</ele>
        <time>2024-05-29T16:26:03.367Z</time>
      </trkpt>
      <trkpt lat="43.00172" lon="-0.98761">
        <ele>1308.7</ele>
        <time>2024-05-29T16:26:11.952Z</time>
      </trkpt>
      <trkpt lat="43.00194" lon="-0.98768">
        <ele>1304.78</ele>
        <time>2024-05-29T16:26:20.540Z</time>
      </trkpt>
      <trkpt lat="43.00218" lon="-0.9877">
        <ele>1301.19</ele>
        <time>2024-05-29T16:26:29.132Z</time>
      </trkpt>
      <trkpt lat="43.0023" lon="-0.98764">
        <ele>1297.99</ele>
        <time>2024-05-29T16:26:37.726Z</time>
      </trkpt>
      <trkpt lat="43.00268" lon="-0.98727">
        <ele>1294.98</ele>
        <time>2024-05-29T16:26:46.328Z</time>
      </trkpt>
      <trkpt lat="43.00276" lon="-0.98723">
        <ele>1291.89</ele>
        <time>2024-05-29T16:26:54.931Z</time>
      </trkpt>
      <trkpt lat="43.00286" lon="-0.98725">
        <ele>1289.02</ele>
        <time>2024-05-29T16:27:03.536Z</time>
      </trkpt>
      <trkpt lat="43.00291" lon="-0.98734">
        <ele>1286.46</ele>
        <time>2024-05-29T16:27:12.142Z</time>
      </trkpt>
      <trkpt lat="43.00291" lon="-0.98745">
        <ele>1284.15</ele>
        <time>2024-05-29T16:27:20.749Z</time>
      </trkpt>
      <trkpt lat="43.00288" lon="-0.98754">
        <ele>1282.05</ele>
        <time>2024-05-29T16:27:29.357Z</time>
      </trkpt>
      <trkpt lat="43.00272" lon="-0.98775">
        <ele>1280.16</ele>
        <time>2024-05-29T16:27:37.969Z</time>
      </trkpt>
      <trkpt lat="43.00245" lon="-0.98802">
        <ele>1278.25</ele>
        <time>2024-05-29T16:27:46.586Z</time>
      </trkpt>
      <trkpt lat="43.00233" lon="-0.98809">
        <ele>1276.49</ele>
        <time>2024-05-29T16:27:55.205Z</time>
      </trkpt>
      <trkpt lat="43.00217" lon="-0.98815">
        <ele>1274.81</ele>
        <time>2024-05-29T16:28:03.827Z</time>
      </trkpt>
      <trkpt lat="43.00186" lon="-0.98819">
        <ele>1273.3</ele>
        <time>2024-05-29T16:28:12.454Z</time>
      </trkpt>
      <trkpt lat="43.00157" lon="-0.98818">
        <ele>1271.81</ele>
        <time>2024-05-29T16:28:21.086Z</time>
      </trkpt>
      <trkpt lat="43.00124" lon="-0.98823">
        <ele>1270.3</ele>
        <time>2024-05-29T16:28:29.723Z</time>
      </trkpt>
      <trkpt lat="43.00063" lon="-0.98828">
        <ele>1268.55</ele>
        <time>2024-05-29T16:28:38.370Z</time>
      </trkpt>
      <trkpt lat="43.00033" lon="-0.98827">
        <ele>1266.99</ele>
        <time>2024-05-29T16:28:47.022Z</time>
      </trkpt>
      <trkpt lat="43.0002" lon="-0.98831">
        <ele>1265.3</ele>
        <time>2024-05-29T16:28:55.676Z</time>
      </trkpt>
      <trkpt lat="43.00015" lon="-0.98844">
        <ele>1263.38</ele>
        <time>2024-05-29T16:29:04.331Z</time>
      </trkpt>
      <trkpt lat="43.00015" lon="-0.98858">
        <ele>1261.35</ele>
        <time>2024-05-29T16:29:12.988Z</time>
      </trkpt>
      <trkpt lat="43.00021" lon="-0.98866">
        <ele>1259.32</ele>
        <time>2024-05-29T16:29:21.647Z</time>
      </trkpt>
      <trkpt lat="43.00033" lon="-0.98871">
        <ele>1257.32</ele>
        <time>2024-05-29T16:29:30.308Z</time>
      </trkpt>
      <trkpt lat="43.00053" lon="-0.98864">
        <ele>1255.29</ele>
        <time>2024-05-29T16:29:38.972Z</time>
      </trkpt>
      <trkpt lat="43.00074" lon="-0.98868">
        <ele>1252.81</ele>
        <time>2024-05-29T16:29:47.639Z</time>
      </trkpt>
      <trkpt lat="43.0011" lon="-0.98885">
        <ele>1250.1</ele>
        <time>2024-05-29T16:29:56.312Z</time>
      </trkpt>
      <trkpt lat="43.00177" lon="-0.98896">
        <ele>1247</ele>
        <time>2024-05-29T16:30:04.996Z</time>
      </trkpt>
      <trkpt lat="43.0023" lon="-0.98912">
        <ele>1244.06</ele>
        <time>2024-05-29T16:30:13.689Z</time>
      </trkpt>
      <trkpt lat="43.0027" lon="-0.98931">
        <ele>1241.33</ele>
        <time>2024-05-29T16:30:22.389Z</time>
      </trkpt>
      <trkpt lat="43.0031" lon="-0.98944">
        <ele>1238.41</ele>
        <time>2024-05-29T16:30:31.095Z</time>
      </trkpt>
      <trkpt lat="43.00321" lon="-0.9895">
        <ele>1235.44</ele>
        <time>2024-05-29T16:30:39.803Z</time>
      </trkpt>
      <trkpt lat="43.00337" lon="-0.98968">
        <ele>1232.09</ele>
        <time>2024-05-29T16:30:48.514Z</time>
      </trkpt>
      <trkpt lat="43.00355" lon="-0.98988">
        <ele>1228.58</ele>
        <time>2024-05-29T16:30:57.229Z</time>
      </trkpt>
      <trkpt lat="43.00362" lon="-0.98992">
        <ele>1225.27</ele>
        <time>2024-05-29T16:31:05.945Z</time>
      </trkpt>
      <trkpt lat="43.00371" lon="-0.98994">
        <ele>1221.81</ele>
        <time>2024-05-29T16:31:14.663Z</time>
      </trkpt>
      <trkpt lat="43.00381" lon="-0.98991">
        <ele>1218.18</ele>
        <time>2024-05-29T16:31:23.382Z</time>
      </trkpt>
      <trkpt lat="43.00413" lon="-0.98975">
        <ele>1214.41</ele>
        <time>2024-05-29T16:31:32.107Z</time>
      </trkpt>
      <trkpt lat="43.00429" lon="-0.98972">
        <ele>1210.08</ele>
        <time>2024-05-29T16:31:40.834Z</time>
      </trkpt>
      <trkpt lat="43.00464" lon="-0.98979">
        <ele>1205.11</ele>
        <time>2024-05-29T16:31:49.567Z</time>
      </trkpt>
      <trkpt lat="43.00475" lon="-0.98975">
        <ele>1200.61</ele>
        <time>2024-05-29T16:31:58.302Z</time>
      </trkpt>
      <trkpt lat="43.00496" lon="-0.98962">
        <ele>1195.9</ele>
        <time>2024-05-29T16:32:07.041Z</time>
      </trkpt>
      <trkpt lat="43.00532" lon="-0.98944">
        <ele>1190.86</ele>
        <time>2024-05-29T16:32:15.786Z</time>
      </trkpt>
      <trkpt lat="43.00558" lon="-0.98925">
        <ele>1186.04</ele>
        <time>2024-05-29T16:32:24.535Z</time>
      </trkpt>
      <trkpt lat="43.00619" lon="-0.98871">
        <ele>1180.43</ele>
        <time>2024-05-29T16:32:33.296Z</time>
      </trkpt>
      <trkpt lat="43.00631" lon="-0.98856">
        <ele>1176.18</ele>
        <time>2024-05-29T16:32:42.060Z</time>
      </trkpt>
      <trkpt lat="43.00644" lon="-0.98836">
        <ele>1172.2</ele>
        <time>2024-05-29T16:32:50.827Z</time>
      </trkpt>
      <trkpt lat="43.00648" lon="-0.98816">
        <ele>1168.52</ele>
        <time>2024-05-29T16:32:59.596Z</time>
      </trkpt>
      <trkpt lat="43.00645" lon="-0.98797">
        <ele>1164.91</ele>
        <time>2024-05-29T16:33:08.368Z</time>
      </trkpt>
      <trkpt lat="43.00614" lon="-0.9875">
        <ele>1161.76</ele>
        <time>2024-05-29T16:33:17.147Z</time>
      </trkpt>
      <trkpt lat="43.00574" lon="-0.98698">
        <ele>1158.39</ele>
        <time>2024-05-29T16:33:25.935Z</time>
      </trkpt>
      <trkpt lat="43.00561" lon="-0.98637">
        <ele>1153.77</ele>
        <time>2024-05-29T16:33:34.730Z</time>
      </trkpt>
      <trkpt lat="43.00549" lon="-0.98614">
        <ele>1150.27</ele>
        <time>2024-05-29T16:33:43.529Z</time>
      </trkpt>
      <trkpt lat="43.00503" lon="-0.98547">
        <ele>1146.71</ele>
        <time>2024-05-29T16:33:52.338Z</time>
      </trkpt>
      <trkpt lat="43.00496" lon="-0.9854">
        <ele>1143.53</ele>
        <time>2024-05-29T16:34:01.149Z</time>
      </trkpt>
      <trkpt lat="43.00479" lon="-0.98525">
        <ele>1140.42</ele>
        <time>2024-05-29T16:34:09.963Z</time>
      </trkpt>
      <trkpt lat="43.00471" lon="-0.98509">
        <ele>1136.5</ele>
        <time>2024-05-29T16:34:18.779Z</time>
      </trkpt>
      <trkpt lat="43.00467" lon="-0.98465">
        <ele>1131.61</ele>
        <time>2024-05-29T16:34:27.600Z</time>
      </trkpt>
      <trkpt lat="43.00471" lon="-0.98427">
        <ele>1126.98</ele>
        <time>2024-05-29T16:34:36.426Z</time>
      </trkpt>
      <trkpt lat="43.00496" lon="-0.98352">
        <ele>1121.59</ele>
        <time>2024-05-29T16:34:45.262Z</time>
      </trkpt>
      <trkpt lat="43.00519" lon="-0.98289">
        <ele>1116.41</ele>
        <time>2024-05-29T16:34:54.106Z</time>
      </trkpt>
      <trkpt lat="43.00548" lon="-0.98217">
        <ele>1111.08</ele>
        <time>2024-05-29T16:35:02.960Z</time>
      </trkpt>
      <trkpt lat="43.00552" lon="-0.98191">
        <ele>1107.5</ele>
        <time>2024-05-29T16:35:11.817Z</time>
      </trkpt>
      <trkpt lat="43.00567" lon="-0.98126">
        <ele>1103.24</ele>
        <time>2024-05-29T16:35:20.682Z</time>
      </trkpt>
      <trkpt lat="43.00571" lon="-0.98077">
        <ele>1099.14</ele>
        <time>2024-05-29T16:35:29.553Z</time>
      </trkpt>
      <trkpt lat="43.00583" lon="-0.98021">
        <ele>1094.58</ele>
        <time>2024-05-29T16:35:38.430Z</time>
      </trkpt>
      <trkpt lat="43.00593" lon="-0.98">
        <ele>1089.61</ele>
        <time>2024-05-29T16:35:47.310Z</time>
      </trkpt>
      <trkpt lat="43.00639" lon="-0.97943">
        <ele>1084.12</ele>
        <time>2024-05-29T16:35:56.200Z</time>
      </trkpt>
      <trkpt lat="43.00639" lon="-0.97943">
        <ele>1084.12</ele>
        <time>2024-05-29T16:36:05.090Z</time>
      </trkpt>
      <trkpt lat="43.00639" lon="-0.97943">
        <ele>1079.1</ele>
        <time>2024-05-29T16:36:13.980Z</time>
      </trkpt>
      <trkpt lat="43.00639" lon="-0.97943">
        <ele>1077.47</ele>
        <time>2024-05-29T16:36:22.870Z</time>
      </trkpt>
      <trkpt lat="43.00643" lon="-0.97925">
        <ele>1075.52</ele>
        <time>2024-05-29T16:36:31.762Z</time>
      </trkpt>
      <trkpt lat="43.00644" lon="-0.97904">
        <ele>1073.09</ele>
        <time>2024-05-29T16:36:40.657Z</time>
      </trkpt>
      <trkpt lat="43.00634" lon="-0.97855">
        <ele>1071.02</ele>
        <time>2024-05-29T16:36:49.558Z</time>
      </trkpt>
      <trkpt lat="43.00627" lon="-0.97835">
        <ele>1069.01</ele>
        <time>2024-05-29T16:36:58.461Z</time>
      </trkpt>
      <trkpt lat="43.00635" lon="-0.97791">
        <ele>1065.21</ele>
        <time>2024-05-29T16:37:07.370Z</time>
      </trkpt>
      <trkpt lat="43.00635" lon="-0.97758">
        <ele>1061.4</ele>
        <time>2024-05-29T16:37:16.283Z</time>
      </trkpt>
      <trkpt lat="43.00629" lon="-0.97643">
        <ele>1057.23</ele>
        <time>2024-05-29T16:37:25.209Z</time>
      </trkpt>
      <trkpt lat="43.00646" lon="-0.97566">
        <ele>1052.11</ele>
        <time>2024-05-29T16:37:34.145Z</time>
      </trkpt>
      <trkpt lat="43.00648" lon="-0.97452">
        <ele>1046.56</ele>
        <time>2024-05-29T16:37:43.094Z</time>
      </trkpt>
      <trkpt lat="43.00645" lon="-0.97415">
        <ele>1041.21</ele>
        <time>2024-05-29T16:37:52.047Z</time>
      </trkpt>
      <trkpt lat="43.00637" lon="-0.97343">
        <ele>1035.34</ele>
        <time>2024-05-29T16:38:01.009Z</time>
      </trkpt>
      <trkpt lat="43.0063" lon="-0.97285">
        <ele>1029.39</ele>
        <time>2024-05-29T16:38:09.978Z</time>
      </trkpt>
      <trkpt lat="43.00625" lon="-0.97266">
        <ele>1024.65</ele>
        <time>2024-05-29T16:38:18.949Z</time>
      </trkpt>
      <trkpt lat="43.00616" lon="-0.97255">
        <ele>1020.61</ele>
        <time>2024-05-29T16:38:27.922Z</time>
      </trkpt>
      <trkpt lat="43.00597" lon="-0.97241">
        <ele>1017.46</ele>
        <time>2024-05-29T16:38:36.899Z</time>
      </trkpt>
      <trkpt lat="43.0059" lon="-0.97232">
        <ele>1014.7</ele>
        <time>2024-05-29T16:38:45.877Z</time>
      </trkpt>
      <trkpt lat="43.00572" lon="-0.97173">
        <ele>1011.79</ele>
        <time>2024-05-29T16:38:54.863Z</time>
      </trkpt>
      <trkpt lat="43.00577" lon="-0.97154">
        <ele>1008.48</ele>
        <time>2024-05-29T16:39:03.851Z</time>
      </trkpt>
      <trkpt lat="43.00597" lon="-0.9711">
        <ele>1004.02</ele>
        <time>2024-05-29T16:39:12.845Z</time>
      </trkpt>
      <trkpt lat="43.00601" lon="-0.97091">
        <ele>1000.49</ele>
        <time>2024-05-29T16:39:21.841Z</time>
      </trkpt>
      <trkpt lat="43.006" lon="-0.97071">
        <ele>997.28</ele>
        <time>2024-05-29T16:39:30.840Z</time>
      </trkpt>
      <trkpt lat="43.00592" lon="-0.97057">
        <ele>994.65</ele>
        <time>2024-05-29T16:39:39.841Z</time>
      </trkpt>
      <trkpt lat="43.0058" lon="-0.97048">
        <ele>992.35</ele>
        <time>2024-05-29T16:39:48.844Z</time>
      </trkpt>
      <trkpt lat="43.00575" lon="-0.97037">
        <ele>989.96</ele>
        <time>2024-05-29T16:39:57.849Z</time>
      </trkpt>
      <trkpt lat="43.00576" lon="-0.97022">
        <ele>987.36</ele>
        <time>2024-05-29T16:40:06.855Z</time>
      </trkpt>
      <trkpt lat="43.00587" lon="-0.96998">
        <ele>984.19</ele>
        <time>2024-05-29T16:40:15.865Z</time>
      </trkpt>
      <trkpt lat="43.00564" lon="-0.96879">
        <ele>981.54</ele>
        <time>2024-05-29T16:40:24.889Z</time>
      </trkpt>
      <trkpt lat="43.00566" lon="-0.96866">
        <ele>978.82</ele>
        <time>2024-05-29T16:40:33.915Z</time>
      </trkpt>
      <trkpt lat="43.00576" lon="-0.96859">
        <ele>975.78</ele>
        <time>2024-05-29T16:40:42.943Z</time>
      </trkpt>
      <trkpt lat="43.00655" lon="-0.96818">
        <ele>971.43</ele>
        <time>2024-05-29T16:40:51.984Z</time>
      </trkpt>
      <trkpt lat="43.00668" lon="-0.96815">
        <ele>967.84</ele>
        <time>2024-05-29T16:41:01.027Z</time>
      </trkpt>
      <trkpt lat="43.00693" lon="-0.9682">
        <ele>963.76</ele>
        <time>2024-05-29T16:41:10.074Z</time>
      </trkpt>
      <trkpt lat="43.00704" lon="-0.96816">
        <ele>960.02</ele>
        <time>2024-05-29T16:41:19.123Z</time>
      </trkpt>
      <trkpt lat="43.0071" lon="-0.96808">
        <ele>956.53</ele>
        <time>2024-05-29T16:41:28.173Z</time>
      </trkpt>
      <trkpt lat="43.00714" lon="-0.96768">
        <ele>953.38</ele>
        <time>2024-05-29T16:41:37.228Z</time>
      </trkpt>
      <trkpt lat="43.00718" lon="-0.96743">
        <ele>950.3</ele>
        <time>2024-05-29T16:41:46.286Z</time>
      </trkpt>
      <trkpt lat="43.0073" lon="-0.96717">
        <ele>947.07</ele>
        <time>2024-05-29T16:41:55.348Z</time>
      </trkpt>
      <trkpt lat="43.00744" lon="-0.967">
        <ele>943.93</ele>
        <time>2024-05-29T16:42:04.413Z</time>
      </trkpt>
      <trkpt lat="43.0076" lon="-0.96693">
        <ele>940.89</ele>
        <time>2024-05-29T16:42:13.480Z</time>
      </trkpt>
      <trkpt lat="43.00776" lon="-0.96692">
        <ele>937.99</ele>
        <time>2024-05-29T16:42:22.550Z</time>
      </trkpt>
      <trkpt lat="43.00786" lon="-0.96698">
        <ele>935.29</ele>
        <time>2024-05-29T16:42:31.622Z</time>
      </trkpt>
      <trkpt lat="43.0079" lon="-0.96705">
        <ele>932.76</ele>
        <time>2024-05-29T16:42:40.695Z</time>
      </trkpt>
      <trkpt lat="43.00791" lon="-0.96714">
        <ele>930.38</ele>
        <time>2024-05-29T16:42:49.769Z</time>
      </trkpt>
      <trkpt lat="43.00784" lon="-0.96732">
        <ele>928.12</ele>
        <time>2024-05-29T16:42:58.845Z</time>
      </trkpt>
      <trkpt lat="43.00781" lon="-0.96744">
        <ele>925.97</ele>
        <time>2024-05-29T16:43:07.923Z</time>
      </trkpt>
      <trkpt lat="43.00781" lon="-0.96756">
        <ele>923.84</ele>
        <time>2024-05-29T16:43:17.002Z</time>
      </trkpt>
      <trkpt lat="43.00786" lon="-0.96763">
        <ele>921.75</ele>
        <time>2024-05-29T16:43:26.082Z</time>
      </trkpt>
      <trkpt lat="43.00792" lon="-0.96766">
        <ele>919.76</ele>
        <time>2024-05-29T16:43:35.164Z</time>
      </trkpt>
      <trkpt lat="43.00801" lon="-0.96764">
        <ele>917.86</ele>
        <time>2024-05-29T16:43:44.247Z</time>
      </trkpt>
      <trkpt lat="43.00826" lon="-0.96741">
        <ele>915.78</ele>
        <time>2024-05-29T16:43:53.335Z</time>
      </trkpt>
      <trkpt lat="43.00834" lon="-0.96736">
        <ele>913.69</ele>
        <time>2024-05-29T16:44:02.424Z</time>
      </trkpt>
      <trkpt lat="43.00842" lon="-0.96737">
        <ele>911.65</ele>
        <time>2024-05-29T16:44:11.514Z</time>
      </trkpt>
      <trkpt lat="43.00846" lon="-0.96743">
        <ele>909.69</ele>
        <time>2024-05-29T16:44:20.605Z</time>
      </trkpt>
      <trkpt lat="43.00848" lon="-0.96755">
        <ele>907.83</ele>
        <time>2024-05-29T16:44:29.698Z</time>
      </trkpt>
      <trkpt lat="43.00846" lon="-0.96771">
        <ele>906.11</ele>
        <time>2024-05-29T16:44:38.793Z</time>
      </trkpt>
      <trkpt lat="43.00831" lon="-0.96804">
        <ele>904.61</ele>
        <time>2024-05-29T16:44:47.892Z</time>
      </trkpt>
      <trkpt lat="43.00828" lon="-0.96816">
        <ele>902.94</ele>
        <time>2024-05-29T16:44:56.993Z</time>
      </trkpt>
      <trkpt lat="43.00831" lon="-0.96827">
        <ele>901.2</ele>
        <time>2024-05-29T16:45:06.095Z</time>
      </trkpt>
      <trkpt lat="43.00839" lon="-0.96834">
        <ele>899.4</ele>
        <time>2024-05-29T16:45:15.199Z</time>
      </trkpt>
      <trkpt lat="43.00849" lon="-0.96832">
        <ele>897.58</ele>
        <time>2024-05-29T16:45:24.304Z</time>
      </trkpt>
      <trkpt lat="43.00865" lon="-0.96826">
        <ele>895.62</ele>
        <time>2024-05-29T16:45:33.412Z</time>
      </trkpt>
      <trkpt lat="43.00922" lon="-0.9678">
        <ele>893.09</ele>
        <time>2024-05-29T16:45:42.531Z</time>
      </trkpt>
      <trkpt lat="43.0094" lon="-0.96772">
        <ele>891.16</ele>
        <time>2024-05-29T16:45:51.653Z</time>
      </trkpt>
      <trkpt lat="43.00959" lon="-0.96773">
        <ele>889.43</ele>
        <time>2024-05-29T16:46:00.778Z</time>
      </trkpt>
      <trkpt lat="43.00973" lon="-0.96778">
        <ele>887.97</ele>
        <time>2024-05-29T16:46:09.905Z</time>
      </trkpt>
      <trkpt lat="43.00999" lon="-0.96796">
        <ele>886.63</ele>
        <time>2024-05-29T16:46:19.037Z</time>
      </trkpt>
      <trkpt lat="43.01009" lon="-0.96799">
        <ele>885.41</ele>
        <time>2024-05-29T16:46:28.170Z</time>
      </trkpt>
      <trkpt lat="43.01018" lon="-0.96795">
        <ele>884.29</ele>
        <time>2024-05-29T16:46:37.305Z</time>
      </trkpt>
      <trkpt lat="43.01024" lon="-0.96785">
        <ele>883.27</ele>
        <time>2024-05-29T16:46:46.441Z</time>
      </trkpt>
      <trkpt lat="43.01025" lon="-0.96774">
        <ele>882.4</ele>
        <time>2024-05-29T16:46:55.579Z</time>
      </trkpt>
      <trkpt lat="43.01022" lon="-0.96761">
        <ele>881.66</ele>
        <time>2024-05-29T16:47:04.718Z</time>
      </trkpt>
      <trkpt lat="43.01012" lon="-0.96748">
        <ele>881.1</ele>
        <time>2024-05-29T16:47:13.859Z</time>
      </trkpt>
      <trkpt lat="43.0096" lon="-0.96731">
        <ele>880.83</ele>
        <time>2024-05-29T16:47:23.009Z</time>
      </trkpt>
      <trkpt lat="43.00943" lon="-0.96721">
        <ele>880.59</ele>
        <time>2024-05-29T16:47:32.162Z</time>
      </trkpt>
      <trkpt lat="43.00926" lon="-0.96704">
        <ele>880.38</ele>
        <time>2024-05-29T16:47:41.318Z</time>
      </trkpt>
      <trkpt lat="43.00918" lon="-0.96695">
        <ele>880.29</ele>
        <time>2024-05-29T16:47:50.476Z</time>
      </trkpt>
      <trkpt lat="43.00916" lon="-0.96685">
        <ele>880.15</ele>
        <time>2024-05-29T16:47:59.635Z</time>
      </trkpt>
      <trkpt lat="43.00917" lon="-0.96673">
        <ele>880.05</ele>
        <time>2024-05-29T16:48:08.796Z</time>
      </trkpt>
      <trkpt lat="43.00922" lon="-0.96667">
        <ele>879.87</ele>
        <time>2024-05-29T16:48:17.958Z</time>
      </trkpt>
      <trkpt lat="43.00932" lon="-0.96661">
        <ele>879.56</ele>
        <time>2024-05-29T16:48:27.121Z</time>
      </trkpt>
      <trkpt lat="43.00961" lon="-0.96656">
        <ele>878.94</ele>
        <time>2024-05-29T16:48:36.289Z</time>
      </trkpt>
      <trkpt lat="43.00977" lon="-0.96646">
        <ele>878.36</ele>
        <time>2024-05-29T16:48:45.460Z</time>
      </trkpt>
      <trkpt lat="43.01024" lon="-0.96615">
        <ele>877.43</ele>
        <time>2024-05-29T16:48:54.639Z</time>
      </trkpt>
      <trkpt lat="43.01029" lon="-0.96607">
        <ele>876.57</ele>
        <time>2024-05-29T16:49:03.820Z</time>
      </trkpt>
      <trkpt lat="43.01038" lon="-0.96582">
        <ele>875.55</ele>
        <time>2024-05-29T16:49:13.004Z</time>
      </trkpt>
      <trkpt lat="43.01052" lon="-0.9652">
        <ele>874.33</ele>
        <time>2024-05-29T16:49:22.195Z</time>
      </trkpt>
      <trkpt lat="43.0106" lon="-0.96478">
        <ele>873.03</ele>
        <time>2024-05-29T16:49:31.392Z</time>
      </trkpt>
      <trkpt lat="43.01067" lon="-0.96421">
        <ele>871.44</ele>
        <time>2024-05-29T16:49:40.595Z</time>
      </trkpt>
      <trkpt lat="43.01071" lon="-0.9641">
        <ele>869.82</ele>
        <time>2024-05-29T16:49:49.800Z</time>
      </trkpt>
      <trkpt lat="43.01077" lon="-0.96405">
        <ele>868.08</ele>
        <time>2024-05-29T16:49:59.006Z</time>
      </trkpt>
      <trkpt lat="43.0109" lon="-0.96404">
        <ele>866.12</ele>
        <time>2024-05-29T16:50:08.214Z</time>
      </trkpt>
      <trkpt lat="43.01097" lon="-0.9641">
        <ele>864.04</ele>
        <time>2024-05-29T16:50:17.423Z</time>
      </trkpt>
      <trkpt lat="43.01113" lon="-0.96476">
        <ele>861.73</ele>
        <time>2024-05-29T16:50:26.640Z</time>
      </trkpt>
      <trkpt lat="43.01127" lon="-0.96504">
        <ele>859.19</ele>
        <time>2024-05-29T16:50:35.861Z</time>
      </trkpt>
      <trkpt lat="43.01144" lon="-0.9652">
        <ele>856.53</ele>
        <time>2024-05-29T16:50:45.086Z</time>
      </trkpt>
      <trkpt lat="43.01164" lon="-0.9653">
        <ele>853.67</ele>
        <time>2024-05-29T16:50:54.314Z</time>
      </trkpt>
      <trkpt lat="43.01175" lon="-0.9653">
        <ele>850.97</ele>
        <time>2024-05-29T16:51:03.544Z</time>
      </trkpt>
      <trkpt lat="43.01203" lon="-0.96525">
        <ele>848.01</ele>
        <time>2024-05-29T16:51:12.778Z</time>
      </trkpt>
      <trkpt lat="43.0123" lon="-0.96526">
        <ele>844.84</ele>
        <time>2024-05-29T16:51:22.017Z</time>
      </trkpt>
      <trkpt lat="43.01239" lon="-0.96521">
        <ele>841.87</ele>
        <time>2024-05-29T16:51:31.257Z</time>
      </trkpt>
      <trkpt lat="43.01243" lon="-0.9651">
        <ele>838.88</ele>
        <time>2024-05-29T16:51:40.499Z</time>
      </trkpt>
      <trkpt lat="43.01249" lon="-0.96487">
        <ele>835.88</ele>
        <time>2024-05-29T16:51:49.744Z</time>
      </trkpt>
      <trkpt lat="43.01256" lon="-0.96472">
        <ele>832.68</ele>
        <time>2024-05-29T16:51:58.991Z</time>
      </trkpt>
      <trkpt lat="43.01275" lon="-0.96437">
        <ele>829.2</ele>
        <time>2024-05-29T16:52:08.243Z</time>
      </trkpt>
      <trkpt lat="43.01285" lon="-0.96392">
        <ele>825.82</ele>
        <time>2024-05-29T16:52:17.500Z</time>
      </trkpt>
      <trkpt lat="43.01291" lon="-0.96356">
        <ele>822.5</ele>
        <time>2024-05-29T16:52:26.762Z</time>
      </trkpt>
      <trkpt lat="43.01299" lon="-0.96344">
        <ele>819.1</ele>
        <time>2024-05-29T16:52:36.025Z</time>
      </trkpt>
      <trkpt lat="43.01306" lon="-0.9634">
        <ele>815.69</ele>
        <time>2024-05-29T16:52:45.290Z</time>
      </trkpt>
      <trkpt lat="43.01313" lon="-0.96343">
        <ele>812.34</ele>
        <time>2024-05-29T16:52:54.556Z</time>
      </trkpt>
      <trkpt lat="43.01317" lon="-0.9635">
        <ele>809.07</ele>
        <time>2024-05-29T16:53:03.823Z</time>
      </trkpt>
      <trkpt lat="43.01323" lon="-0.964">
        <ele>805.9</ele>
        <time>2024-05-29T16:53:13.096Z</time>
      </trkpt>
      <trkpt lat="43.01338" lon="-0.96459">
        <ele>802.62</ele>
        <time>2024-05-29T16:53:22.376Z</time>
      </trkpt>
      <trkpt lat="43.01344" lon="-0.96473">
        <ele>799.38</ele>
        <time>2024-05-29T16:53:31.658Z</time>
      </trkpt>
      <trkpt lat="43.01345" lon="-0.96478">
        <ele>796.26</ele>
        <time>2024-05-29T16:53:40.941Z</time>
      </trkpt>
      <trkpt lat="43.01365" lon="-0.96503">
        <ele>792.85</ele>
        <time>2024-05-29T16:53:50.228Z</time>
      </trkpt>
      <trkpt lat="43.01389" lon="-0.96527">
        <ele>789.46</ele>
        <time>2024-05-29T16:53:59.520Z</time>
      </trkpt>
      <trkpt lat="43.01406" lon="-0.9654">
        <ele>786.08</ele>
        <time>2024-05-29T16:54:08.815Z</time>
      </trkpt>
      <trkpt lat="43.01421" lon="-0.96549">
        <ele>782.94</ele>
        <time>2024-05-29T16:54:18.113Z</time>
      </trkpt>
      <trkpt lat="43.0149" lon="-0.96572">
        <ele>779.61</ele>
        <time>2024-05-29T16:54:27.422Z</time>
      </trkpt>
      <trkpt lat="43.01498" lon="-0.96578">
        <ele>776.74</ele>
        <time>2024-05-29T16:54:36.732Z</time>
      </trkpt>
      <trkpt lat="43.01507" lon="-0.96587">
        <ele>774</ele>
        <time>2024-05-29T16:54:46.044Z</time>
      </trkpt>
      <trkpt lat="43.01527" lon="-0.96622">
        <ele>771.27</ele>
        <time>2024-05-29T16:54:55.361Z</time>
      </trkpt>
      <trkpt lat="43.0154" lon="-0.96648">
        <ele>768.55</ele>
        <time>2024-05-29T16:55:04.682Z</time>
      </trkpt>
      <trkpt lat="43.0155" lon="-0.96674">
        <ele>765.88</ele>
        <time>2024-05-29T16:55:14.006Z</time>
      </trkpt>
      <trkpt lat="43.01555" lon="-0.9669">
        <ele>763.47</ele>
        <time>2024-05-29T16:55:23.333Z</time>
      </trkpt>
      <trkpt lat="43.01561" lon="-0.96732">
        <ele>761.32</ele>
        <time>2024-05-29T16:55:32.665Z</time>
      </trkpt>
      <trkpt lat="43.01567" lon="-0.96745">
        <ele>759.07</ele>
        <time>2024-05-29T16:55:41.998Z</time>
      </trkpt>
      <trkpt lat="43.01575" lon="-0.96749">
        <ele>756.87</ele>
        <time>2024-05-29T16:55:51.333Z</time>
      </trkpt>
      <trkpt lat="43.01582" lon="-0.96747">
        <ele>754.74</ele>
        <time>2024-05-29T16:56:00.669Z</time>
      </trkpt>
      <trkpt lat="43.01587" lon="-0.96741">
        <ele>752.67</ele>
        <time>2024-05-29T16:56:10.006Z</time>
      </trkpt>
      <trkpt lat="43.0159" lon="-0.96732">
        <ele>750.6</ele>
        <time>2024-05-29T16:56:19.344Z</time>
      </trkpt>
      <trkpt lat="43.01587" lon="-0.96723">
        <ele>748.47</ele>
        <time>2024-05-29T16:56:28.683Z</time>
      </trkpt>
      <trkpt lat="43.01575" lon="-0.96686">
        <ele>746.23</ele>
        <time>2024-05-29T16:56:38.027Z</time>
      </trkpt>
      <trkpt lat="43.01567" lon="-0.96593">
        <ele>743.83</ele>
        <time>2024-05-29T16:56:47.382Z</time>
      </trkpt>
      <trkpt lat="43.0155" lon="-0.96509">
        <ele>741.65</ele>
        <time>2024-05-29T16:56:56.747Z</time>
      </trkpt>
      <trkpt lat="43.0155" lon="-0.96491">
        <ele>739.66</ele>
        <time>2024-05-29T16:57:06.114Z</time>
      </trkpt>
      <trkpt lat="43.01555" lon="-0.96431">
        <ele>737.38</ele>
        <time>2024-05-29T16:57:15.489Z</time>
      </trkpt>
      <trkpt lat="43.01561" lon="-0.96415">
        <ele>735.37</ele>
        <time>2024-05-29T16:57:24.866Z</time>
      </trkpt>
      <trkpt lat="43.01582" lon="-0.96366">
        <ele>733.02</ele>
        <time>2024-05-29T16:57:34.249Z</time>
      </trkpt>
      <trkpt lat="43.01588" lon="-0.96346">
        <ele>731.12</ele>
        <time>2024-05-29T16:57:43.635Z</time>
      </trkpt>
      <trkpt lat="43.01593" lon="-0.9632">
        <ele>729.36</ele>
        <time>2024-05-29T16:57:53.024Z</time>
      </trkpt>
      <trkpt lat="43.01594" lon="-0.96298">
        <ele>727.5</ele>
        <time>2024-05-29T16:58:02.416Z</time>
      </trkpt>
      <trkpt lat="43.0159" lon="-0.96284">
        <ele>725.83</ele>
        <time>2024-05-29T16:58:11.809Z</time>
      </trkpt>
      <trkpt lat="43.01586" lon="-0.9628">
        <ele>724.23</ele>
        <time>2024-05-29T16:58:21.203Z</time>
      </trkpt>
      <trkpt lat="43.01562" lon="-0.96244">
        <ele>722.61</ele>
        <time>2024-05-29T16:58:30.603Z</time>
      </trkpt>
      <trkpt lat="43.01539" lon="-0.96227">
        <ele>721.12</ele>
        <time>2024-05-29T16:58:40.007Z</time>
      </trkpt>
      <trkpt lat="43.01519" lon="-0.96195">
        <ele>719.4</ele>
        <time>2024-05-29T16:58:49.416Z</time>
      </trkpt>
      <trkpt lat="43.01481" lon="-0.96151">
        <ele>718.04</ele>
        <time>2024-05-29T16:58:58.833Z</time>
      </trkpt>
      <trkpt lat="43.01478" lon="-0.96141">
        <ele>716.41</ele>
        <time>2024-05-29T16:59:08.251Z</time>
      </trkpt>
      <trkpt lat="43.01478" lon="-0.96131">
        <ele>714.62</ele>
        <time>2024-05-29T16:59:17.670Z</time>
      </trkpt>
      <trkpt lat="43.01488" lon="-0.96122">
        <ele>712.52</ele>
        <time>2024-05-29T16:59:27.091Z</time>
      </trkpt>
      <trkpt lat="43.01544" lon="-0.96099">
        <ele>709.77</ele>
        <time>2024-05-29T16:59:36.522Z</time>
      </trkpt>
      <trkpt lat="43.01609" lon="-0.96063">
        <ele>707.03</ele>
        <time>2024-05-29T16:59:45.964Z</time>
      </trkpt>
      <trkpt lat="43.01614" lon="-0.96057">
        <ele>704.95</ele>
        <time>2024-05-29T16:59:55.407Z</time>
      </trkpt>
      <trkpt lat="43.01616" lon="-0.96055">
        <ele>702.88</ele>
        <time>2024-05-29T17:00:04.850Z</time>
      </trkpt>
      <trkpt lat="43.01623" lon="-0.96038">
        <ele>700.77</ele>
        <time>2024-05-29T17:00:14.296Z</time>
      </trkpt>
      <trkpt lat="43.01631" lon="-0.95988">
        <ele>698.62</ele>
        <time>2024-05-29T17:00:23.748Z</time>
      </trkpt>
      <trkpt lat="43.01636" lon="-0.95973">
        <ele>696.52</ele>
        <time>2024-05-29T17:00:33.201Z</time>
      </trkpt>
      <trkpt lat="43.01642" lon="-0.95962">
        <ele>694.37</ele>
        <time>2024-05-29T17:00:42.656Z</time>
      </trkpt>
      <trkpt lat="43.01651" lon="-0.95957">
        <ele>692.16</ele>
        <time>2024-05-29T17:00:52.113Z</time>
      </trkpt>
      <trkpt lat="43.01682" lon="-0.95947">
        <ele>689.85</ele>
        <time>2024-05-29T17:01:01.575Z</time>
      </trkpt>
      <trkpt lat="43.01716" lon="-0.95931">
        <ele>687.38</ele>
        <time>2024-05-29T17:01:11.043Z</time>
      </trkpt>
      <trkpt lat="43.01726" lon="-0.95923">
        <ele>685.06</ele>
        <time>2024-05-29T17:01:20.512Z</time>
      </trkpt>
      <trkpt lat="43.01737" lon="-0.95908">
        <ele>682.68</ele>
        <time>2024-05-29T17:01:29.984Z</time>
      </trkpt>
      <trkpt lat="43.01742" lon="-0.95903">
        <ele>680.42</ele>
        <time>2024-05-29T17:01:39.457Z</time>
      </trkpt>
      <trkpt lat="43.0175" lon="-0.95901">
        <ele>678.15</ele>
        <time>2024-05-29T17:01:48.931Z</time>
      </trkpt>
      <trkpt lat="43.01757" lon="-0.95907">
        <ele>675.96</ele>
        <time>2024-05-29T17:01:58.407Z</time>
      </trkpt>
      <trkpt lat="43.01764" lon="-0.95922">
        <ele>673.77</ele>
        <time>2024-05-29T17:02:07.885Z</time>
      </trkpt>
      <trkpt lat="43.01775" lon="-0.95954">
        <ele>671.51</ele>
        <time>2024-05-29T17:02:17.367Z</time>
      </trkpt>
      <trkpt lat="43.01775" lon="-0.95954">
        <ele>669.37</ele>
        <time>2024-05-29T17:02:26.849Z</time>
      </trkpt>
      <trkpt lat="43.01779" lon="-0.95966">
        <ele>667.15</ele>
        <time>2024-05-29T17:02:36.332Z</time>
      </trkpt>
      <trkpt lat="43.01784" lon="-0.96003">
        <ele>664.91</ele>
        <time>2024-05-29T17:02:45.820Z</time>
      </trkpt>
      <trkpt lat="43.01785" lon="-0.96018">
        <ele>662.73</ele>
        <time>2024-05-29T17:02:55.309Z</time>
      </trkpt>
      <trkpt lat="43.01782" lon="-0.96035">
        <ele>660.57</ele>
        <time>2024-05-29T17:03:04.801Z</time>
      </trkpt>
      <trkpt lat="43.01777" lon="-0.96048">
        <ele>658.38</ele>
        <time>2024-05-29T17:03:14.294Z</time>
      </trkpt>
      <trkpt lat="43.01754" lon="-0.96082">
        <ele>656.19</ele>
        <time>2024-05-29T17:03:23.793Z</time>
      </trkpt>
      <trkpt lat="43.01752" lon="-0.96099">
        <ele>653.9</ele>
        <time>2024-05-29T17:03:33.294Z</time>
      </trkpt>
      <trkpt lat="43.01755" lon="-0.96111">
        <ele>651.59</ele>
        <time>2024-05-29T17:03:42.796Z</time>
      </trkpt>
      <trkpt lat="43.01765" lon="-0.96118">
        <ele>649.27</ele>
        <time>2024-05-29T17:03:52.300Z</time>
      </trkpt>
      <trkpt lat="43.01777" lon="-0.96112">
        <ele>647.17</ele>
        <time>2024-05-29T17:04:01.806Z</time>
      </trkpt>
      <trkpt lat="43.01809" lon="-0.96084">
        <ele>645.07</ele>
        <time>2024-05-29T17:04:11.318Z</time>
      </trkpt>
      <trkpt lat="43.01846" lon="-0.96056">
        <ele>642.58</ele>
        <time>2024-05-29T17:04:20.837Z</time>
      </trkpt>
      <trkpt lat="43.01856" lon="-0.96044">
        <ele>640.65</ele>
        <time>2024-05-29T17:04:30.358Z</time>
      </trkpt>
      <trkpt lat="43.01868" lon="-0.9602">
        <ele>638.77</ele>
        <time>2024-05-29T17:04:39.883Z</time>
      </trkpt>
      <trkpt lat="43.01874" lon="-0.96">
        <ele>637.1</ele>
        <time>2024-05-29T17:04:49.410Z</time>
      </trkpt>
      <trkpt lat="43.01871" lon="-0.95956">
        <ele>635.62</ele>
        <time>2024-05-29T17:04:58.942Z</time>
      </trkpt>
      <trkpt lat="43.01872" lon="-0.95917">
        <ele>634.1</ele>
        <time>2024-05-29T17:05:08.479Z</time>
      </trkpt>
      <trkpt lat="43.01876" lon="-0.95876">
        <ele>632.72</ele>
        <time>2024-05-29T17:05:18.021Z</time>
      </trkpt>
      <trkpt lat="43.01885" lon="-0.95839">
        <ele>631.43</ele>
        <time>2024-05-29T17:05:27.567Z</time>
      </trkpt>
      <trkpt lat="43.01886" lon="-0.95826">
        <ele>630.47</ele>
        <time>2024-05-29T17:05:37.115Z</time>
      </trkpt>
      <trkpt lat="43.01886" lon="-0.95812">
        <ele>629.7</ele>
        <time>2024-05-29T17:05:46.664Z</time>
      </trkpt>
      <trkpt lat="43.01882" lon="-0.95786">
        <ele>629.11</ele>
        <time>2024-05-29T17:05:56.216Z</time>
      </trkpt>
      <trkpt lat="43.01882" lon="-0.95774">
        <ele>628.64</ele>
        <time>2024-05-29T17:06:05.770Z</time>
      </trkpt>
      <trkpt lat="43.01885" lon="-0.95762">
        <ele>628.28</ele>
        <time>2024-05-29T17:06:15.325Z</time>
      </trkpt>
      <trkpt lat="43.01892" lon="-0.95744">
        <ele>628.08</ele>
        <time>2024-05-29T17:06:24.883Z</time>
      </trkpt>
      <trkpt lat="43.01908" lon="-0.95712">
        <ele>628.01</ele>
        <time>2024-05-29T17:06:34.445Z</time>
      </trkpt>
      <trkpt lat="43.01927" lon="-0.95668">
        <ele>628.13</ele>
        <time>2024-05-29T17:06:44.013Z</time>
      </trkpt>
      <trkpt lat="43.01933" lon="-0.95651">
        <ele>628.25</ele>
        <time>2024-05-29T17:06:53.584Z</time>
      </trkpt>
      <trkpt lat="43.01935" lon="-0.95626">
        <ele>628.43</ele>
        <time>2024-05-29T17:07:03.157Z</time>
      </trkpt>
      <trkpt lat="43.01933" lon="-0.95612">
        <ele>628.67</ele>
        <time>2024-05-29T17:07:12.732Z</time>
      </trkpt>
      <trkpt lat="43.01928" lon="-0.95586">
        <ele>628.92</ele>
        <time>2024-05-29T17:07:22.310Z</time>
      </trkpt>
      <trkpt lat="43.01925" lon="-0.95581">
        <ele>629.23</ele>
        <time>2024-05-29T17:07:31.889Z</time>
      </trkpt>
      <trkpt lat="43.01917" lon="-0.95553">
        <ele>629.51</ele>
        <time>2024-05-29T17:07:41.472Z</time>
      </trkpt>
      <trkpt lat="43.01911" lon="-0.95541">
        <ele>629.87</ele>
        <time>2024-05-29T17:07:51.056Z</time>
      </trkpt>
      <trkpt lat="43.01903" lon="-0.95526">
        <ele>630.2</ele>
        <time>2024-05-29T17:08:00.642Z</time>
      </trkpt>
      <trkpt lat="43.01893" lon="-0.9551">
        <ele>630.51</ele>
        <time>2024-05-29T17:08:10.231Z</time>
      </trkpt>
      <trkpt lat="43.01887" lon="-0.95503">
        <ele>630.81</ele>
        <time>2024-05-29T17:08:19.821Z</time>
      </trkpt>
      <trkpt lat="43.01868" lon="-0.95498">
        <ele>631.03</ele>
        <time>2024-05-29T17:08:29.414Z</time>
      </trkpt>
      <trkpt lat="43.01847" lon="-0.95493">
        <ele>631.17</ele>
        <time>2024-05-29T17:08:39.011Z</time>
      </trkpt>
      <trkpt lat="43.01826" lon="-0.95487">
        <ele>631.28</ele>
        <time>2024-05-29T17:08:48.611Z</time>
      </trkpt>
      <trkpt lat="43.01804" lon="-0.95494">
        <ele>631.48</ele>
        <time>2024-05-29T17:08:58.215Z</time>
      </trkpt>
      <trkpt lat="43.01793" lon="-0.95491">
        <ele>631.52</ele>
        <time>2024-05-29T17:09:07.820Z</time>
      </trkpt>
      <trkpt lat="43.01767" lon="-0.95475">
        <ele>631.48</ele>
        <time>2024-05-29T17:09:17.430Z</time>
      </trkpt>
      <trkpt lat="43.01763" lon="-0.95467">
        <ele>631.29</ele>
        <time>2024-05-29T17:09:27.041Z</time>
      </trkpt>
      <trkpt lat="43.01762" lon="-0.95463">
        <ele>630.98</ele>
        <time>2024-05-29T17:09:36.653Z</time>
      </trkpt>
      <trkpt lat="43.01763" lon="-0.95439">
        <ele>630.52</ele>
        <time>2024-05-29T17:09:46.267Z</time>
      </trkpt>
      <trkpt lat="43.01778" lon="-0.95417">
        <ele>629.85</ele>
        <time>2024-05-29T17:09:55.885Z</time>
      </trkpt>
      <trkpt lat="43.01793" lon="-0.95401">
        <ele>629.06</ele>
        <time>2024-05-29T17:10:05.506Z</time>
      </trkpt>
      <trkpt lat="43.01799" lon="-0.95393">
        <ele>628.17</ele>
        <time>2024-05-29T17:10:15.128Z</time>
      </trkpt>
      <trkpt lat="43.01804" lon="-0.9538">
        <ele>627.15</ele>
        <time>2024-05-29T17:10:24.752Z</time>
      </trkpt>
      <trkpt lat="43.01807" lon="-0.95368">
        <ele>626</ele>
        <time>2024-05-29T17:10:34.378Z</time>
      </trkpt>
      <trkpt lat="43.01807" lon="-0.95358">
        <ele>624.74</ele>
        <time>2024-05-29T17:10:44.005Z</time>
      </trkpt>
      <trkpt lat="43.01807" lon="-0.95339">
        <ele>623.32</ele>
        <time>2024-05-29T17:10:53.634Z</time>
      </trkpt>
      <trkpt lat="43.01802" lon="-0.95319">
        <ele>621.79</ele>
        <time>2024-05-29T17:11:03.265Z</time>
      </trkpt>
      <trkpt lat="43.01762" lon="-0.952">
        <ele>619.37</ele>
        <time>2024-05-29T17:11:12.912Z</time>
      </trkpt>
      <trkpt lat="43.01758" lon="-0.95183">
        <ele>617.47</ele>
        <time>2024-05-29T17:11:22.561Z</time>
      </trkpt>
      <trkpt lat="43.01756" lon="-0.95169">
        <ele>615.49</ele>
        <time>2024-05-29T17:11:32.212Z</time>
      </trkpt>
      <trkpt lat="43.01758" lon="-0.95151">
        <ele>613.37</ele>
        <time>2024-05-29T17:11:41.865Z</time>
      </trkpt>
      <trkpt lat="43.01762" lon="-0.95139">
        <ele>611.24</ele>
        <time>2024-05-29T17:11:51.519Z</time>
      </trkpt>
      <trkpt lat="43.01775" lon="-0.95122">
        <ele>608.97</ele>
        <time>2024-05-29T17:12:01.176Z</time>
      </trkpt>
      <trkpt lat="43.01785" lon="-0.95115">
        <ele>606.66</ele>
        <time>2024-05-29T17:12:10.835Z</time>
      </trkpt>
      <trkpt lat="43.01813" lon="-0.95109">
        <ele>604.19</ele>
        <time>2024-05-29T17:12:20.498Z</time>
      </trkpt>
      <trkpt lat="43.01833" lon="-0.951">
        <ele>601.73</ele>
        <time>2024-05-29T17:12:30.165Z</time>
      </trkpt>
      <trkpt lat="43.01842" lon="-0.95091">
        <ele>599.18</ele>
        <time>2024-05-29T17:12:39.834Z</time>
      </trkpt>
      <trkpt lat="43.01846" lon="-0.95083">
        <ele>596.54</ele>
        <time>2024-05-29T17:12:49.504Z</time>
      </trkpt>
      <trkpt lat="43.01848" lon="-0.95075">
        <ele>593.79</ele>
        <time>2024-05-29T17:12:59.175Z</time>
      </trkpt>
      <trkpt lat="43.0185" lon="-0.9506">
        <ele>590.91</ele>
        <time>2024-05-29T17:13:08.848Z</time>
      </trkpt>
      <trkpt lat="43.0185" lon="-0.95045">
        <ele>587.98</ele>
        <time>2024-05-29T17:13:18.522Z</time>
      </trkpt>
      <trkpt lat="43.01844" lon="-0.95017">
        <ele>584.87</ele>
        <time>2024-05-29T17:13:28.200Z</time>
      </trkpt>
      <trkpt lat="43.01828" lon="-0.94962">
        <ele>581.64</ele>
        <time>2024-05-29T17:13:37.885Z</time>
      </trkpt>
      <trkpt lat="43.0182" lon="-0.94929">
        <ele>578.42</ele>
        <time>2024-05-29T17:13:47.574Z</time>
      </trkpt>
      <trkpt lat="43.01816" lon="-0.94896">
        <ele>575.12</ele>
        <time>2024-05-29T17:13:57.267Z</time>
      </trkpt>
      <trkpt lat="43.01816" lon="-0.94876">
        <ele>571.76</ele>
        <time>2024-05-29T17:14:06.962Z</time>
      </trkpt>
      <trkpt lat="43.01818" lon="-0.94865">
        <ele>568.33</ele>
        <time>2024-05-29T17:14:16.658Z</time>
      </trkpt>
      <trkpt lat="43.01845" lon="-0.94757">
        <ele>564.12</ele>
        <time>2024-05-29T17:14:26.368Z</time>
      </trkpt>
      <trkpt lat="43.01871" lon="-0.94687">
        <ele>560.27</ele>
        <time>2024-05-29T17:14:36.087Z</time>
      </trkpt>
      <trkpt lat="43.01872" lon="-0.94677">
        <ele>556.96</ele>
        <time>2024-05-29T17:14:45.807Z</time>
      </trkpt>
      <trkpt lat="43.01871" lon="-0.94662">
        <ele>553.61</ele>
        <time>2024-05-29T17:14:55.529Z</time>
      </trkpt>
      <trkpt lat="43.01852" lon="-0.94577">
        <ele>550.19</ele>
        <time>2024-05-29T17:15:05.261Z</time>
      </trkpt>
      <trkpt lat="43.01851" lon="-0.94561">
        <ele>547.02</ele>
        <time>2024-05-29T17:15:14.995Z</time>
      </trkpt>
      <trkpt lat="43.01853" lon="-0.94546">
        <ele>543.88</ele>
        <time>2024-05-29T17:15:24.731Z</time>
      </trkpt>
      <trkpt lat="43.01859" lon="-0.94534">
        <ele>540.83</ele>
        <time>2024-05-29T17:15:34.469Z</time>
      </trkpt>
      <trkpt lat="43.01866" lon="-0.94524">
        <ele>537.85</ele>
        <time>2024-05-29T17:15:44.208Z</time>
      </trkpt>
      <trkpt lat="43.01879" lon="-0.94518">
        <ele>534.86</ele>
        <time>2024-05-29T17:15:53.950Z</time>
      </trkpt>
      <trkpt lat="43.01914" lon="-0.94506">
        <ele>531.56</ele>
        <time>2024-05-29T17:16:03.697Z</time>
      </trkpt>
      <trkpt lat="43.01922" lon="-0.94501">
        <ele>528.78</ele>
        <time>2024-05-29T17:16:13.446Z</time>
      </trkpt>
      <trkpt lat="43.01927" lon="-0.94492">
        <ele>526.17</ele>
        <time>2024-05-29T17:16:23.196Z</time>
      </trkpt>
      <trkpt lat="43.01935" lon="-0.94475">
        <ele>523.6</ele>
        <time>2024-05-29T17:16:32.948Z</time>
      </trkpt>
      <trkpt lat="43.01939" lon="-0.94457">
        <ele>521.15</ele>
        <time>2024-05-29T17:16:42.703Z</time>
      </trkpt>
      <trkpt lat="43.01939" lon="-0.9444">
        <ele>518.93</ele>
        <time>2024-05-29T17:16:52.460Z</time>
      </trkpt>
      <trkpt lat="43.01937" lon="-0.94423">
        <ele>516.8</ele>
        <time>2024-05-29T17:17:02.219Z</time>
      </trkpt>
      <trkpt lat="43.01931" lon="-0.94412">
        <ele>514.82</ele>
        <time>2024-05-29T17:17:11.979Z</time>
      </trkpt>
      <trkpt lat="43.01908" lon="-0.94393">
        <ele>512.97</ele>
        <time>2024-05-29T17:17:21.743Z</time>
      </trkpt>
      <trkpt lat="43.01901" lon="-0.94384">
        <ele>510.97</ele>
        <time>2024-05-29T17:17:31.509Z</time>
      </trkpt>
      <trkpt lat="43.01895" lon="-0.94372">
        <ele>508.93</ele>
        <time>2024-05-29T17:17:41.277Z</time>
      </trkpt>
      <trkpt lat="43.01892" lon="-0.94356">
        <ele>506.79</ele>
        <time>2024-05-29T17:17:51.047Z</time>
      </trkpt>
      <trkpt lat="43.01886" lon="-0.9427">
        <ele>504.4</ele>
        <time>2024-05-29T17:18:00.827Z</time>
      </trkpt>
      <trkpt lat="43.01889" lon="-0.9425">
        <ele>502.42</ele>
        <time>2024-05-29T17:18:10.609Z</time>
      </trkpt>
      <trkpt lat="43.01897" lon="-0.94224">
        <ele>500.31</ele>
        <time>2024-05-29T17:18:20.395Z</time>
      </trkpt>
      <trkpt lat="43.01901" lon="-0.94208">
        <ele>498.37</ele>
        <time>2024-05-29T17:18:30.183Z</time>
      </trkpt>
      <trkpt lat="43.01901" lon="-0.94196">
        <ele>496.57</ele>
        <time>2024-05-29T17:18:39.972Z</time>
      </trkpt>
      <trkpt lat="43.01897" lon="-0.94185">
        <ele>494.84</ele>
        <time>2024-05-29T17:18:49.762Z</time>
      </trkpt>
      <trkpt lat="43.01884" lon="-0.94152">
        <ele>493.03</ele>
        <time>2024-05-29T17:18:59.557Z</time>
      </trkpt>
      <trkpt lat="43.01881" lon="-0.94141">
        <ele>491.28</ele>
        <time>2024-05-29T17:19:09.353Z</time>
      </trkpt>
      <trkpt lat="43.01881" lon="-0.94132">
        <ele>489.46</ele>
        <time>2024-05-29T17:19:19.150Z</time>
      </trkpt>
      <trkpt lat="43.01884" lon="-0.9412">
        <ele>487.62</ele>
        <time>2024-05-29T17:19:28.949Z</time>
      </trkpt>
      <trkpt lat="43.01891" lon="-0.94101">
        <ele>485.92</ele>
        <time>2024-05-29T17:19:38.750Z</time>
      </trkpt>
      <trkpt lat="43.01896" lon="-0.9409">
        <ele>484.05</ele>
        <time>2024-05-29T17:19:48.553Z</time>
      </trkpt>
      <trkpt lat="43.01937" lon="-0.94036">
        <ele>481.18</ele>
        <time>2024-05-29T17:19:58.365Z</time>
      </trkpt>
      <trkpt lat="43.01944" lon="-0.94024">
        <ele>479.09</ele>
        <time>2024-05-29T17:20:08.179Z</time>
      </trkpt>
      <trkpt lat="43.01948" lon="-0.94008">
        <ele>477.16</ele>
        <time>2024-05-29T17:20:17.995Z</time>
      </trkpt>
      <trkpt lat="43.0195" lon="-0.93993">
        <ele>475.34</ele>
        <time>2024-05-29T17:20:27.812Z</time>
      </trkpt>
      <trkpt lat="43.0195" lon="-0.93903">
        <ele>472.86</ele>
        <time>2024-05-29T17:20:37.640Z</time>
      </trkpt>
      <trkpt lat="43.0194" lon="-0.9383">
        <ele>471.35</ele>
        <time>2024-05-29T17:20:47.477Z</time>
      </trkpt>
      <trkpt lat="43.01937" lon="-0.93815">
        <ele>470.07</ele>
        <time>2024-05-29T17:20:57.315Z</time>
      </trkpt>
      <trkpt lat="43.01933" lon="-0.93808">
        <ele>468.79</ele>
        <time>2024-05-29T17:21:07.155Z</time>
      </trkpt>
      <trkpt lat="43.01924" lon="-0.93799">
        <ele>467.67</ele>
        <time>2024-05-29T17:21:16.996Z</time>
      </trkpt>
      <trkpt lat="43.01917" lon="-0.93794">
        <ele>466.52</ele>
        <time>2024-05-29T17:21:26.839Z</time>
      </trkpt>
      <trkpt lat="43.01904" lon="-0.93789">
        <ele>465.48</ele>
        <time>2024-05-29T17:21:36.684Z</time>
      </trkpt>
      <trkpt lat="43.01857" lon="-0.93781">
        <ele>464.49</ele>
        <time>2024-05-29T17:21:46.536Z</time>
      </trkpt>
      <trkpt lat="43.01841" lon="-0.93774">
        <ele>462.72</ele>
        <time>2024-05-29T17:21:56.391Z</time>
      </trkpt>
      <trkpt lat="43.01836" lon="-0.93767">
        <ele>460.53</ele>
        <time>2024-05-29T17:22:06.247Z</time>
      </trkpt>
      <trkpt lat="43.01834" lon="-0.93758">
        <ele>458.15</ele>
        <time>2024-05-29T17:22:16.104Z</time>
      </trkpt>
      <trkpt lat="43.01836" lon="-0.93748">
        <ele>455.47</ele>
        <time>2024-05-29T17:22:25.963Z</time>
      </trkpt>
      <trkpt lat="43.01841" lon="-0.93737">
        <ele>452.62</ele>
        <time>2024-05-29T17:22:35.823Z</time>
      </trkpt>
      <trkpt lat="43.01856" lon="-0.93712">
        <ele>449.37</ele>
        <time>2024-05-29T17:22:45.687Z</time>
      </trkpt>
      <trkpt lat="43.01859" lon="-0.937">
        <ele>446.54</ele>
        <time>2024-05-29T17:22:55.552Z</time>
      </trkpt>
      <trkpt lat="43.01859" lon="-0.93687">
        <ele>443.65</ele>
        <time>2024-05-29T17:23:05.419Z</time>
      </trkpt>
      <trkpt lat="43.01841" lon="-0.93619">
        <ele>440.59</ele>
        <time>2024-05-29T17:23:15.294Z</time>
      </trkpt>
      <trkpt lat="43.01838" lon="-0.93593">
        <ele>437.6</ele>
        <time>2024-05-29T17:23:25.172Z</time>
      </trkpt>
      <trkpt lat="43.0185" lon="-0.93446">
        <ele>434.4</ele>
        <time>2024-05-29T17:23:35.068Z</time>
      </trkpt>
      <trkpt lat="43.01856" lon="-0.93388">
        <ele>431.33</ele>
        <time>2024-05-29T17:23:44.971Z</time>
      </trkpt>
      <trkpt lat="43.01863" lon="-0.93357">
        <ele>427.94</ele>
        <time>2024-05-29T17:23:54.877Z</time>
      </trkpt>
      <trkpt lat="43.01886" lon="-0.93298">
        <ele>424.13</ele>
        <time>2024-05-29T17:24:04.791Z</time>
      </trkpt>
      <trkpt lat="43.0189" lon="-0.93285">
        <ele>422</ele>
        <time>2024-05-29T17:24:14.707Z</time>
      </trkpt>
      <trkpt lat="43.01891" lon="-0.9327">
        <ele>420.19</ele>
        <time>2024-05-29T17:24:24.625Z</time>
      </trkpt>
      <trkpt lat="43.0189" lon="-0.93258">
        <ele>418.57</ele>
        <time>2024-05-29T17:24:34.544Z</time>
      </trkpt>
      <trkpt lat="43.01886" lon="-0.93244">
        <ele>417.28</ele>
        <time>2024-05-29T17:24:44.465Z</time>
      </trkpt>
      <trkpt lat="43.01849" lon="-0.93193">
        <ele>416.63</ele>
        <time>2024-05-29T17:24:54.394Z</time>
      </trkpt>
      <trkpt lat="43.01843" lon="-0.93181">
        <ele>415.32</ele>
        <time>2024-05-29T17:25:04.325Z</time>
      </trkpt>
      <trkpt lat="43.0184" lon="-0.93169">
        <ele>413.59</ele>
        <time>2024-05-29T17:25:14.257Z</time>
      </trkpt>
      <trkpt lat="43.0184" lon="-0.93147">
        <ele>411.54</ele>
        <time>2024-05-29T17:25:24.192Z</time>
      </trkpt>
      <trkpt lat="43.01855" lon="-0.93102">
        <ele>409.29</ele>
        <time>2024-05-29T17:25:34.133Z</time>
      </trkpt>
      <trkpt lat="43.01857" lon="-0.9308">
        <ele>408.36</ele>
        <time>2024-05-29T17:25:44.076Z</time>
      </trkpt>
      <trkpt lat="43.01851" lon="-0.93062">
        <ele>407.42</ele>
        <time>2024-05-29T17:25:54.022Z</time>
      </trkpt>
      <trkpt lat="43.01832" lon="-0.93033">
        <ele>407.08</ele>
        <time>2024-05-29T17:26:03.972Z</time>
      </trkpt>
      <trkpt lat="43.01825" lon="-0.93019">
        <ele>405.91</ele>
        <time>2024-05-29T17:26:13.924Z</time>
      </trkpt>
      <trkpt lat="43.01819" lon="-0.92999">
        <ele>404.26</ele>
        <time>2024-05-29T17:26:23.879Z</time>
      </trkpt>
      <trkpt lat="43.01817" lon="-0.92983">
        <ele>402.72</ele>
        <time>2024-05-29T17:26:33.836Z</time>
      </trkpt>
      <trkpt lat="43.01826" lon="-0.9295">
        <ele>401.17</ele>
        <time>2024-05-29T17:26:43.797Z</time>
      </trkpt>
      <trkpt lat="43.01846" lon="-0.92905">
        <ele>400.52</ele>
        <time>2024-05-29T17:26:53.764Z</time>
      </trkpt>
      <trkpt lat="43.01851" lon="-0.92889">
        <ele>400.04</ele>
        <time>2024-05-29T17:27:03.733Z</time>
      </trkpt>
    </trkseg>
  </trk>
</gpx>